GFSSGP_2pvu_pres_000.txt.gz
Presure
145 121 98 127 85 139 84 89 89 86 113 89 90 149 148 148 145 151 138 149 152 160 117 164 141 199 197 187 107 126 174 181 170 170 166 131 159 127 134 106 127 124 136 123 193 161 153 138 162
89 90 121 111 94 84 88 84 130 122 88 90 92 151 152 156 91 128 147 115 131 170 178 230 97 209 197 185 201 189 152 200 194 193 169 157 137 127 127 128 153 128 130 119 108 112 137 84 127
142 95 147 123 150 161 116 87 87 90 90 91 100 147 135 158 158 84 84 151 88 89 95 91 205 178 158 121 192 157 176 191 193 199 199 178 171 163 170 134 167 133 126 88 93 142 127 122 119
103 130 144 113 88 165 101 153 147 140 89 96 152 142 158 144 166 157 134 159 123 145 142 250 237 98 180 97 103 184 183 176 201 190 206 195 187 191 161 171 179 171 87 131 168 123 157 130 148
168 171 130 83 184 78 97 94 84 133 109 96 153 153 158 146 158 167 160 168 158 135 129 226 231 147 168 195 110 116 139 189 194 161 141 199 195 194 192 182 184 116 169 160 158 139 129 133 134
84 92 87 89 83 85 92 160 93 153 125 160 153 140 132 150 88 114 134 95 99 100 118 193 222 126 160 194 148 145 193 203 192 186 202 198 186 154 159 119 144 129 131 105 140 165 131 177 145
97 88 84 85 87 89 91 137 119 96 170 169 148 135 125 165 100 89 96 99 107 111 127 215 232 167 206 121 122 133 123 186 132 118 121 122 127 121 81 116 150 153 164 144 112 168 145 152 178
92 88 85 85 88 90 77 155 152 111 137 172 184 141 128 167 162 164 154 172 191 254 158 235 251 212 210 125 201 201 124 138 194 183 191 194 169 86 189 157 133 180 139 145 169 175 175 177 150
92 96 84 87 132 105 89 104 180 170 168 160 110 121 109 117 103 128 110 137 112 117 139 125 225 122 188 206 148 181 125 127 117 135 132 141 141 143 139 119 143 170 156 179 183 200 173 152 154
151 101 154 112 80 88 104 120 157 163 159 169 145 100 128 157 86 88 165 179 99 249 220 229 224 126 128 206 140 156 133 114 113 117 134 127 128 140 183 168 159 172 178 184 142 135 150 149 141
157 174 149 189 191 98 215 248 224 186 184 191 191 117 100 83 152 168 207 120 100 247 239 226 162 198 182 204 185 139 138 196 191 130 183 190 183 166 171 172 175 188 179 133 144 145 145 156 130
82 98 86 129 95 212 139 231 242 207 174 162 178 87 115 93 100 168 231 236 215 248 236 212 140 214 128 191 187 195 196 113 178 178 178 182 163 173 175 180 185 181 142 145 146 151 133 134 148
138 139 180 154 207 141 176 237 194 136 165 192 152 145 172 158 167 163 255 183 208 246 231 218 151 146 212 132 111 126 109 169 184 163 172 116 170 181 176 178 166 141 146 149 135 134 143 151 149
91 92 124 136 197 167 153 124 154 155 150 159 159 161 175 149 162 151 171 229 217 218 222 158 192 193 182 165 95 184 159 166 175 167 151 183 144 182 136 145 150 156 153 136 141 150 146 142 143
212 145 106 186 126 207 167 128 221 193 144 183 159 165 167 116 156 161 112 109 239 235 168 161 219 222 200 90 185 175 182 139 198 189 173 189 151 154 161 155 134 105 138 146 151 150 142 144 141
177 110 146 121 101 142 127 135 147 150 186 167 160 162 169 164 162 160 202 109 217 227 184 225 181 184 190 174 178 181 135 193 166 152 155 161 163 143 111 142 150 153 153 152 144 145 141 181 167
186 145 90 177 198 159 133 116 144 152 131 173 160 175 171 148 164 162 144 211 207 175 183 213 204 200 201 196 157 143 148 150 158 170 139 143 145 151 157 158 153 128 149 156 142 146 175 160 152
169 207 192 184 129 138 215 145 138 82 84 154 166 177 169 145 164 194 156 151 182 176 210 152 167 184 181 150 152 157 121 143 97 98 154 154 119 153 153 147 149 153 136 151 171 161 167 173 164
171 173 177 146 199 110 134 149 125 155 169 169 161 179 170 157 135 177 169 167 169 161 158 161 162 110 158 157 95 153 160 160 96 153 159 148 145 146 145 159 151 137 154 167 165 163 172 161 159
166 168 175 114 194 188 208 136 162 146 166 175 160 179 143 166 147 136 152 164 161 165 154 162 119 150 148 157 159 160 160 116 147 122 143 139 152 159 164 160 147 150 162 172 147 159 172 172 157
103 187 166 145 188 196 178 124 191 122 120 125 153 127 133 139 155 152 152 149 160 163 167 155 150 160 163 169 166 157 141 148 89 139 151 139 136 145 161 152 166 179 166 162 158 167 159 174 172
179 193 173 193 184 182 196 208 104 104 102 134 150 145 164 168 158 145 154 176 161 160 164 169 164 168 167 153 134 111 145 147 161 125 127 153 143 157 167 116 163 160 132 163 152 166 169 173 160
194 187 202 180 179 189 206 198 194 140 102 106 148 165 164 174 109 159 102 104 161 174 159 132 128 128 99 168 157 160 138 168 158 134 95 172 103 106 151 129 173 170 168 167 167 164 145 164 159
156 101 202 170 190 173 202 137 123 166 175 168 144 172 172 175 177 118 121 106 105 106 113 166 169 108 155 128 135 171 168 166 169 109 163 134 142 165 173 168 174 167 167 166 167 178 174 124 107
178 166 149 160 192 183 183 198 130 136 135 162 159 154 127 99 168 104 100 98 180 178 170 101 164 145 146 150 154 174 163 140 149 149 170 163 164 160 167 174 157 168 162 166 179 186 168 140 189
90 158 193 90 194 160 120 194 191 176 162 159 167 165 116 95 96 98 102 177 152 165 150 170 148 161 172 172 166 130 165 145 148 167 172 169 180 176 162 160 165 167 169 187 180 167 185 192 192
172 176 178 171 187 133 168 193 200 155 174 138 152 156 176 171 166 158 155 95 160 167 152 154 167 145 144 145 177 175 77 156 170 167 171 171 163 158 164 172 176 179 182 174 173 190 190 178 168
175 182 169 174 170 154 193 144 204 177 166 157 114 174 163 143 168 114 117 164 169 156 172 154 174 148 104 168 163 174 169 166 179 181 181 170 153 176 175 179 186 175 174 190 183 181 186 184 196
159 158 165 194 183 194 172 190 209 147 148 113 92 93 178 175 143 150 160 169 175 177 145 165 151 167 176 163 167 170 169 182 179 168 163 158 177 177 189 157 178 183 194 197 188 183 206 182 168
195 195 153 189 176 194 169 181 203 182 157 157 141 130 136 182 167 170 137 171 141 155 135 136 174 168 179 163 161 182 181 171 163 172 175 176 190 135 129 187 189 196 185 160 213 203 141 207 159

GFSSGP_2pvu_pres_003.txt.gz
Presure
94 123 102 94 92 113 115 139 100 88 92 91 141 147 144 148 151 142 155 151 153 145 167 150 152 135 100 172 174 170 173 174 144 161 163 160 166 129 168 149 156 154 193 120 115 120 84 94 106
130 148 93 82 83 144 84 114 90 100 109 95 91 110 121 142 147 120 155 152 158 114 141 123 91 169 119 203 111 183 195 194 183 167 156 182 182 181 172 168 145 149 114 100 84 118 95 115 167
113 158 123 144 159 144 133 103 84 85 119 89 92 95 148 148 148 125 159 144 83 143 113 128 89 100 163 94 137 96 103 191 190 177 186 126 185 208 197 185 172 161 135 135 142 166 173 173 166
112 80 82 98 104 170 102 146 111 162 147 89 143 96 148 151 144 144 166 150 161 170 100 137 175 141 257 101 222 213 176 174 183 204 197 167 125 175 191 195 194 180 158 159 169 193 142 132 135
106 127 91 157 133 156 125 150 94 84 167 163 139 96 150 153 141 160 153 155 158 172 147 172 128 132 134 229 102 103 126 101 181 171 180 175 181 200 190 205 205 200 201 148 186 119 175 182 136
169 162 156 172 78 111 81 84 86 96 106 151 141 129 155 157 145 154 120 151 96 96 95 103 168 128 258 239 104 160 187 104 187 135 157 186 196 169 190 201 84 84 152 156 183 134 132 135 102
161 159 175 111 152 78 80 86 86 85 92 98 107 126 149 158 120 135 130 94 93 119 152 158 115 130 258 244 208 206 142 178 132 119 142 119 163 202 168 102 129 190 172 129 121 164 170 135 142
170 101 86 113 169 68 88 77 85 92 174 185 102 102 152 176 157 151 157 160 164 158 160 168 255 253 245 222 207 198 199 182 133 127 200 186 191 187 195 197 192 195 182 146 149 177 95 176 183
107 95 159 91 89 79 84 89 102 94 89 174 186 108 159 161 176 110 117 150 145 111 124 205 95 136 213 207 215 121 153 173 155 120 116 109 119 140 125 122 134 142 138 144 156 172 178 183 134
103 86 92 88 94 91 89 93 188 149 169 188 151 183 156 174 117 102 83 88 86 91 112 96 204 234 245 192 206 124 207 137 136 133 135 141 131 133 90 160 101 149 171 171 180 132 155 142 139
90 82 91 93 92 88 81 208 112 102 171 136 156 216 175 159 138 105 84 84 154 124 211 97 243 234 229 165 207 207 126 214 122 144 203 201 201 197 193 113 147 114 176 176 128 129 142 142 145
197 200 88 93 87 204 213 222 93 139 226 157 228 166 176 142 118 89 88 93 170 177 190 228 245 240 229 227 168 163 132 77 198 200 107 118 179 180 182 166 176 178 188 183 157 145 140 150 152
83 186 203 152 167 148 100 126 97 91 154 260 246 227 177 161 123 119 174 159 168 167 126 222 240 230 232 199 177 215 202 84 189 187 168 162 167 169 127 178 166 172 144 146 136 157 134 150 142
88 158 133 115 152 85 212 215 155 128 201 171 136 222 190 192 144 164 161 161 162 148 186 223 246 176 186 228 152 152 172 199 194 185 161 168 133 165 183 162 149 157 161 134 148 140 144 143 153
188 96 194 185 89 195 105 108 205 181 139 137 243 173 175 195 164 168 167 149 162 117 113 112 228 245 164 220 213 201 205 173 193 180 189 141 149 153 100 92 137 134 144 142 142 157 163 160 154
190 199 119 157 126 160 190 95 201 182 210 233 176 163 200 176 162 168 155 159 164 149 124 112 212 176 194 224 210 201 198 185 146 143 153 141 171 92 153 152 147 147 155 160 154 159 152 165 154
172 137 210 181 107 193 130 209 133 168 212 149 195 179 161 177 158 167 172 153 165 160 207 108 189 184 218 184 187 177 184 146 147 122 97 158 153 90 153 154 157 159 150 158 160 168 156 139 152
128 218 188 182 203 180 97 205 111 115 124 128 83 89 116 172 157 179 170 148 177 163 164 154 205 170 159 199 202 127 161 144 162 154 155 154 155 157 151 156 156 140 164 150 160 154 154 112 166
207 179 195 176 96 163 138 191 196 133 125 76 90 190 169 175 161 149 171 158 143 162 163 164 172 157 158 165 161 150 98 156 160 157 155 156 152 160 157 160 138 152 128 130 157 104 158 167 170
90 190 131 169 128 162 183 105 104 80 144 151 135 144 160 168 157 155 172 155 145 146 150 154 159 161 169 169 160 167 164 166 161 150 142 124 134 150 157 140 128 168 165 103 148 115 144 156 161
183 162 192 161 179 161 178 175 187 164 166 152 148 163 168 166 165 159 139 155 165 150 150 155 156 140 156 153 162 167 164 160 130 134 135 136 164 146 140 152 159 111 152 161 156 162 165 174 167
183 180 97 172 202 203 174 120 170 193 201 128 159 124 127 165 158 142 130 131 144 159 159 104 101 101 107 90 102 171 141 128 133 152 159 163 145 175 174 110 150 153 154 169 137 178 176 165 158
175 185 183 192 172 183 130 183 191 200 195 132 135 157 103 157 121 148 144 153 164 102 108 97 99 104 168 174 152 125 98 131 160 168 132 143 145 168 156 161 178 180 166 169 157 170 173 162 154
179 194 164 85 155 94 176 144 187 200 203 148 159 132 113 109 155 149 159 178 164 178 95 93 101 103 124 159 117 162 152 171 135 153 162 171 176 138 161 161 153 149 162 176 175 159 159 172 174
174 187 186 175 183 169 179 171 186 178 193 90 195 110 149 153 167 143 129 95 96 95 98 151 148 96 168 143 163 146 159 150 152 144 170 169 150 154 176 158 157 181 173 172 166 155 171 154 190
172 180 173 177 92 191 81 141 190 200 185 196 190 192 176 148 162 164 165 102 169 165 106 172 156 168 165 146 148 171 169 151 157 142 159 174 175 174 152 177 176 169 165 175 161 170 189 186 176
90 178 176 162 171 178 174 84 173 197 173 184 184 127 136 135 120 153 160 180 173 179 176 163 152 159 157 172 175 163 156 168 141 170 156 168 160 179 172 177 179 171 166 172 189 178 180 126 183
175 168 168 115 176 172 165 176 191 137 177 151 144 214 203 160 132 133 144 164 168 153 176 174 173 170 167 159 170 150 123 159 179 168 179 179 177 177 173 170 174 181 179 158 158 180 183 205 169
190 184 140 190 141 152 171 174 188 183 141 187 177 181 198 201 173 118 177 157 185 176 176 173 167 146 132 174 144 173 175 168 176 178 179 173 171 170 169 177 190 197 131 193 205 123 195 187 206
196 185 173 185 160 185 174 165 162 175 174 190 102 182 179 207 152 157 166 171 138 158 152 178 174 172 180 178 174 180 179 179 188 171 169 174 191 192 193 135 114 195 135 190 178 130 152 135 150

GFSSGP_2pvu_pres_006.txt.gz
Presure
105 161 116 100 90 89 89 91 88 103 101 90 89 94 95 150 153 144 102 146 143 152 150 155 156 163 152 141 116 128 148 159 160 165 162 129 162 123 162 161 156 161 160 129 107 123 154 98 122
97 94 128 128 92 93 94 101 150 104 117 95 142 110 95 123 123 154 83 141 127 156 116 156 97 93 97 99 161 170 184 102 124 183 185 179 176 179 169 171 172 172 177 179 166 157 145 134 134
178 140 89 167 174 89 84 125 89 137 86 91 115 135 96 96 147 155 153 145 148 133 150 148 119 105 136 114 117 101 147 212 149 156 200 189 192 158 183 122 163 185 187 153 205 211 110 133 154
169 142 85 82 86 171 106 121 86 82 152 117 155 94 124 88 135 151 149 137 147 153 151 156 166 164 164 160 170 155 248 235 225 216 195 198 198 177 192 208 141 182 210 85 207 200 194 199 211
104 157 86 175 160 123 140 99 134 110 83 144 148 163 147 105 101 147 156 155 149 151 156 152 167 171 155 155 131 135 126 103 158 214 100 183 176 163 200 188 175 184 165 87 111 188 205 199 162
177 102 81 77 130 175 164 95 78 84 88 93 100 166 150 150 105 151 147 90 137 123 95 132 137 121 160 140 120 142 244 100 218 214 123 180 127 130 189 109 117 130 97 124 145 165 172 153 151
179 180 110 89 90 167 132 78 77 86 98 140 151 107 150 102 148 147 150 157 127 91 94 169 121 158 151 107 120 252 242 229 222 219 130 133 193 104 133 174 199 189 198 198 199 194 190 190 193
89 103 184 106 104 160 64 78 84 82 118 156 110 115 105 144 113 149 176 160 122 139 153 161 165 162 94 207 260 143 218 230 224 206 208 132 100 183 142 112 129 123 90 132 137 141 143 145 106
82 181 109 160 182 144 87 72 88 83 91 88 184 103 180 174 111 151 158 115 109 116 85 91 108 89 98 157 258 161 180 223 208 155 177 136 174 136 141 136 204 124 161 144 109 131 154 188 181
84 83 109 138 161 95 87 82 85 134 130 87 94 133 179 182 180 121 183 114 99 85 85 85 89 133 96 256 260 247 226 218 155 126 121 159 139 141 162 191 191 198 192 201 201 188 184 177 190
176 96 121 97 183 85 98 93 77 94 92 81 229 84 107 164 126 133 155 187 93 122 149 89 168 174 183 260 254 232 242 226 179 195 122 203 208 204 201 115 198 196 190 185 180 181 143 162 173
209 139 101 89 86 167 93 89 94 94 137 225 78 78 226 195 200 191 140 161 92 85 116 162 172 168 198 241 249 242 246 228 207 138 208 124 166 121 133 190 188 174 181 131 97 101 153 150 150
90 117 83 91 84 85 92 91 90 216 214 215 166 92 179 144 230 164 164 180 155 119 166 168 171 162 238 238 250 241 231 167 181 192 216 203 169 202 181 134 176 183 138 161 156 157 164 165 160
81 156 84 94 95 83 84 86 199 104 103 152 92 201 229 154 239 233 215 185 204 161 174 164 138 114 110 106 247 189 166 210 207 214 210 200 201 190 195 157 117 149 123 165 169 148 151 150 148
202 200 197 83 100 107 98 171 103 145 153 123 104 107 221 252 241 225 220 204 187 162 178 155 161 124 120 106 242 219 236 229 216 214 204 198 148 98 91 150 185 169 167 153 155 154 153 160 164
189 205 193 89 110 195 185 119 98 119 138 174 170 223 173 223 187 190 149 198 186 159 175 161 171 163 153 236 192 226 231 189 194 209 201 117 147 144 161 162 156 151 153 155 157 162 161 136 130
187 184 192 183 91 188 110 155 90 152 194 98 175 224 244 230 184 182 174 189 170 162 153 153 171 168 183 159 190 170 152 191 118 186 153 177 175 154 154 158 139 160 164 144 144 159 152 138 102
187 182 163 174 183 163 157 194 151 192 82 117 157 109 154 82 84 184 184 172 170 165 178 166 158 171 170 170 156 160 150 159 160 158 152 142 135 142 160 161 154 148 134 153 153 149 146 111 149
191 116 192 180 185 181 184 160 195 135 196 202 113 114 78 83 138 196 191 179 171 164 177 176 143 162 154 158 161 157 160 161 167 146 166 161 161 154 153 162 153 134 161 164 109 166 143 171 163
191 197 191 194 203 177 178 189 120 185 164 191 189 130 184 213 132 170 188 172 173 148 177 172 161 153 146 153 101 139 100 95 100 113 168 166 169 139 129 131 137 158 132 143 152 171 153 166 166
145 182 191 206 170 173 196 178 180 178 171 169 145 219 224 214 136 135 160 169 165 161 148 158 163 161 153 154 100 100 101 109 110 125 150 166 160 135 133 153 174 163 163 137 177 172 175 145 150
184 179 197 135 172 183 182 184 184 94 116 113 112 203 118 216 129 121 154 170 167 122 125 126 138 113 118 94 98 102 103 97 177 158 169 157 152 141 142 157 160 149 146 169 173 173 172 156 152
181 170 95 178 168 203 165 95 99 166 159 185 197 193 210 117 128 185 107 109 166 123 146 149 164 171 98 98 101 101 98 173 159 164 159 155 170 159 182 166 158 165 132 167 166 155 159 172 172
178 130 174 104 185 116 173 192 201 174 186 166 191 199 206 177 179 105 142 110 110 156 130 157 95 91 98 101 128 151 178 154 168 148 171 175 167 137 164 139 165 165 151 167 178 177 176 177 174
181 143 190 174 180 170 189 172 166 181 191 178 190 196 198 137 165 158 161 140 154 159 148 149 136 158 166 177 174 169 163 152 158 160 175 165 159 183 154 171 177 171 178 168 170 172 172 186 190
165 182 178 168 92 164 170 179 184 153 180 192 193 185 189 195 196 198 141 128 152 158 168 163 162 154 176 164 170 170 164 171 174 139 172 180 174 173 177 157 164 171 170 162 179 192 182 115 192
169 179 173 189 192 177 155 163 182 178 188 174 192 193 182 123 185 175 162 205 125 138 120 114 160 159 168 152 161 170 170 164 172 141 182 178 162 160 170 187 164 165 189 180 182 188 151 183 162
177 183 114 83 178 166 160 184 178 178 169 165 128 196 154 181 181 98 151 125 132 133 159 100 142 166 164 173 172 152 179 185 184 164 158 165 179 179 161 169 181 183 192 103 106 176 162 186 120
168 177 180 172 183 137 114 164 172 188 175 166 178 181 181 113 159 186 121 179 189 194 200 186 169 165 170 122 157 157 155 174 167 169 189 180 177 170 183 191 186 124 144 181 148 118 159 139 144
172 176 171 163 174 184 175 163 190 178 191 174 165 184 172 189 197 190 189 182 185 197 202 201 198 177 151 180 130 178 169 166 193 165 170 182 190 190 152 180 130 115 136 136 172 135 207 137 132

GFSSGP_2pvu_pres_009.txt.gz
Presure
90 109 108 128 85 88 127 91 90 96 137 151 145 101 96 93 142 103 80 84 145 145 139 150 151 150 153 91 110 108 96 151 154 104 158 161 146 165 159 160 163 145 164 162 163 161 110 164 164
93 89 120 104 134 95 87 99 94 88 106 105 85 112 142 94 98 120 151 156 130 150 148 148 156 140 128 122 98 101 155 135 134 165 96 181 134 166 176 160 172 166 164 170 175 173 173 175 173
110 109 108 116 126 158 113 119 91 90 90 86 90 92 85 140 146 101 151 134 150 146 145 157 148 160 140 114 142 162 127 143 106 167 159 144 148 198 136 204 196 189 163 172 166 185 162 194 181
93 174 92 85 109 100 172 87 90 82 123 122 151 156 148 128 160 148 105 140 158 161 159 148 149 156 152 156 167 162 165 158 128 127 230 101 110 129 105 203 109 191 195 180 192 187 195 181 184
92 102 161 185 89 90 102 102 83 115 126 101 118 151 160 162 156 143 103 161 159 159 107 165 147 161 161 155 147 168 158 165 141 159 241 233 223 119 119 132 113 126 155 112 149 110 141 175 122
145 100 187 142 83 139 117 102 176 153 97 90 91 94 160 159 156 154 140 154 155 159 147 163 108 151 127 98 97 111 152 158 168 251 237 227 222 208 171 208 102 176 137 164 177 125 151 210 199
95 187 150 162 101 168 124 116 125 94 135 93 161 154 91 100 119 159 123 133 167 167 166 123 140 89 175 168 134 91 158 191 261 205 237 227 170 129 134 134 164 146 109 117 133 119 108 113 143
149 103 104 196 108 104 83 106 86 86 83 89 158 83 93 150 96 105 162 154 156 145 190 114 122 170 185 152 94 95 175 203 209 169 219 204 126 101 205 141 144 189 137 137 214 109 144 163 181
174 176 186 179 184 180 92 103 76 77 87 120 131 90 92 103 133 156 155 148 190 149 117 99 84 85 88 93 136 173 176 240 250 238 225 223 221 123 149 169 160 179 204 118 214 200 204 188 169
187 178 153 189 141 193 125 107 129 83 119 94 92 90 111 79 185 192 189 179 116 171 155 114 86 90 90 162 172 173 188 239 247 237 221 223 204 188 120 168 173 202 168 195 118 166 134 122 180
111 97 98 126 103 110 110 114 88 90 136 95 76 84 81 175 84 213 170 152 205 167 151 221 141 144 158 167 174 169 232 239 244 236 232 214 208 202 205 202 156 180 94 152 207 194 187 145 136
178 118 77 176 178 183 191 183 191 116 94 176 91 96 187 201 96 212 212 230 250 248 221 134 94 163 163 171 175 166 109 243 251 232 222 226 225 204 213 192 201 214 89 98 187 176 136 143 196
142 205 71 175 85 84 125 156 93 103 97 107 86 177 166 153 95 238 231 133 135 186 234 212 172 195 168 174 168 109 106 125 252 240 208 189 203 205 212 213 170 136 201 183 189 147 153 160 163
173 143 136 156 97 186 98 132 83 93 100 94 86 195 101 220 155 217 227 228 244 165 188 174 186 175 158 170 148 117 125 237 250 184 237 212 217 204 216 188 201 151 152 143 142 175 167 166 158
92 226 85 89 225 92 106 104 85 164 94 90 93 164 169 195 111 184 238 192 248 232 191 213 178 162 183 168 173 159 199 237 164 236 229 229 164 221 207 190 98 150 138 167 168 160 154 151 136
202 105 191 93 132 141 84 90 96 101 92 173 110 163 126 182 143 140 154 245 171 225 184 202 191 163 183 166 169 160 157 198 160 151 163 190 230 207 159 162 158 159 155 152 154 137 158 141 158
208 208 153 121 89 101 95 91 90 128 125 206 82 182 124 149 221 151 140 107 117 199 199 152 185 159 178 151 175 172 163 157 160 147 131 133 97 104 183 160 152 148 156 164 163 163 139 144 139
192 196 193 197 168 194 194 197 191 190 145 114 193 111 120 106 217 236 111 85 87 165 189 189 178 166 170 181 155 159 156 164 154 108 95 100 101 162 167 166 161 167 167 161 142 140 133 142 138
98 192 199 189 189 187 192 73 90 88 188 184 193 198 194 124 146 182 119 86 189 182 194 170 180 167 177 178 155 140 143 150 99 101 101 105 104 122 123 165 165 163 169 143 127 160 160 156 175
199 123 110 186 153 191 185 183 201 188 187 198 190 103 196 208 221 92 142 177 148 189 190 177 178 165 161 180 169 145 165 153 153 102 104 91 153 169 170 167 167 164 164 144 168 162 184 153 161
193 191 186 186 137 179 180 181 185 164 178 187 187 165 112 199 241 221 214 213 163 172 155 166 171 163 160 138 137 133 134 96 101 96 95 154 172 176 159 154 171 157 161 176 183 146 153 144 163
184 194 188 80 178 123 170 181 177 189 194 189 178 188 195 192 199 209 140 122 191 124 114 118 172 168 123 143 130 156 94 98 96 151 169 174 173 171 171 171 144 161 177 135 175 150 139 170 171
185 194 189 188 89 179 190 193 182 180 178 178 171 94 182 108 118 212 167 106 145 168 140 151 114 140 157 99 87 95 163 167 166 168 174 152 164 170 158 150 146 152 180 144 148 153 169 151 161
186 198 195 191 185 164 188 178 177 173 174 182 158 173 176 188 196 199 192 210 207 187 130 110 147 129 161 162 148 151 170 154 145 135 172 172 169 175 145 162 156 186 184 172 169 176 183 171 174
183 170 171 176 196 105 174 100 171 179 182 169 177 191 187 183 189 197 155 207 210 130 158 156 161 132 154 154 168 170 169 159 160 172 162 178 152 164 188 190 188 168 170 181 194 179 179 179 184
170 168 190 177 166 179 176 191 195 185 176 116 176 162 193 179 190 187 190 198 200 147 195 200 201 132 133 129 140 122 133 157 165 156 174 131 158 183 144 168 166 166 192 178 190 171 178 187 178
177 173 88 177 166 185 170 184 167 97 157 160 171 168 193 185 186 194 191 191 187 172 158 190 194 165 184 199 136 149 145 162 147 170 136 149 162 174 163 168 176 194 167 175 143 142 197 135 172
182 181 173 167 171 184 189 186 185 178 196 182 190 171 161 182 156 154 192 192 183 142 131 119 123 124 169 194 203 203 198 200 165 190 160 182 187 169 196 197 179 181 194 160 165 172 147 181 143
186 185 145 178 150 135 175 173 187 168 187 182 171 175 163 161 159 175 189 186 184 186 185 184 183 188 184 189 139 194 196 146 162 184 193 193 195 201 200 192 177 202 198 178 151 189 181 153 186
188 190 177 175 177 177 168 182 196 170 166 96 152 186 172 179 177 197 186 179 179 191 195 194 198 187 181 182 193 173 169 185 175 172 183 191 173 194 167 207 166 179 143 194 196 151 173 219 196

GFSSGP_2pvu_pres_012.txt.gz
Presure
117 140 89 101 88 88 95 86 103 91 87 97 109 109 95 88 93 99 140 99 104 150 146 141 149 147 157 153 147 107 103 109 158 147 102 160 147 152 158 163 160 156 145 156 162 164 167 126 163
114 136 113 127 175 89 89 148 90 90 125 93 107 136 84 110 135 121 97 141 151 151 148 149 149 142 143 154 152 129 98 98 114 129 138 156 104 158 168 100 173 158 161 167 161 146 164 125 147
107 108 92 109 168 93 134 107 96 85 88 100 90 81 97 98 153 127 96 101 147 150 155 148 151 148 155 145 139 150 115 149 136 155 155 168 160 165 115 226 204 155 210 202 205 149 203 192 187
87 111 106 93 113 107 178 140 131 85 81 82 143 111 145 112 131 126 145 97 103 147 151 149 141 161 162 143 149 148 156 152 128 151 166 158 124 105 241 230 218 192 107 209 204 196 189 162 127
96 92 110 104 123 90 133 129 115 83 87 96 108 134 129 169 148 143 144 143 136 139 156 153 152 154 145 126 120 157 144 135 161 160 162 151 166 251 230 226 218 196 204 209 127 159 178 99 182
89 93 91 135 185 99 122 169 164 81 88 170 110 97 146 117 133 128 150 145 157 140 152 147 166 127 137 91 139 92 97 90 169 123 153 143 169 242 228 222 187 205 134 167 180 189 185 121 142
96 89 113 102 110 115 104 87 85 187 165 121 163 156 90 90 98 95 106 167 149 153 152 171 154 155 125 129 146 152 157 112 160 170 164 189 252 134 231 220 161 190 203 154 165 141 109 128 168
110 119 106 98 103 189 141 85 89 110 143 86 173 91 120 183 138 93 126 174 168 156 159 167 172 116 153 112 87 90 98 162 166 179 168 198 246 239 131 215 126 124 204 200 181 189 171 196 122
104 122 131 129 98 176 145 79 106 198 113 84 171 84 84 90 90 100 144 125 160 151 181 176 158 154 96 86 90 101 188 156 169 174 171 258 246 231 231 124 209 204 122 148 135 178 201 201 213
227 208 162 183 94 179 140 115 100 110 68 86 179 85 87 86 84 170 115 117 118 173 180 187 211 215 149 87 122 148 184 167 175 142 213 248 239 233 172 224 151 127 167 162 152 128 206 212 195
193 139 220 132 174 117 113 180 97 90 86 83 71 75 114 78 84 128 182 164 173 183 174 126 207 250 228 91 117 157 164 177 178 163 244 257 238 234 215 214 209 207 205 204 136 90 196 204 176
113 84 228 224 224 192 108 122 112 158 108 88 84 93 89 81 90 187 118 181 192 203 243 209 236 241 248 242 236 163 201 178 167 106 107 151 245 231 235 156 217 211 89 105 204 194 214 204 125
114 113 215 195 163 208 160 173 182 109 105 90 94 97 95 85 130 153 129 193 214 231 229 145 135 209 153 235 179 190 181 162 171 106 185 148 245 160 225 215 219 200 205 196 214 215 202 194 174
123 166 197 102 83 88 167 99 105 187 180 79 152 103 102 93 124 130 190 220 219 218 219 236 207 226 203 174 149 199 166 162 167 152 236 238 242 233 235 236 216 219 216 216 196 184 131 165 161
75 194 78 87 81 113 209 205 176 170 97 179 87 92 96 93 93 169 217 131 217 230 227 236 247 234 216 208 169 174 175 168 167 152 169 157 160 156 159 186 217 182 213 168 160 161 140 136 167
189 181 162 216 89 104 90 89 203 129 99 141 91 94 94 90 191 194 175 100 117 258 186 153 201 193 208 186 178 173 179 164 165 171 161 164 162 153 103 93 100 172 189 146 133 155 152 153 160
191 180 162 193 86 140 82 88 88 139 93 90 96 168 145 201 207 208 91 181 215 108 90 84 146 205 191 171 190 165 173 151 165 172 169 161 163 100 93 99 111 161 126 163 149 165 163 165 165
156 179 198 204 202 202 79 115 85 123 93 92 90 110 91 183 112 178 197 133 182 231 126 85 193 183 175 191 181 169 161 178 153 156 104 122 121 101 100 94 98 165 168 168 152 166 164 162 167
184 186 197 211 217 90 206 215 144 110 93 99 90 93 194 198 173 176 145 237 134 174 147 203 149 179 179 189 171 171 165 178 184 176 168 96 100 99 96 157 161 157 163 176 174 170 128 172 139
179 179 194 195 197 199 198 169 195 187 172 192 195 190 170 88 124 188 212 198 122 163 142 122 175 183 193 189 177 180 167 158 135 133 134 97 108 113 174 178 179 178 171 176 164 173 165 153 156
176 173 116 206 203 196 197 201 195 191 189 192 142 180 148 192 191 195 170 248 171 193 184 168 187 183 185 145 174 180 170 120 125 114 95 171 170 170 169 144 162 174 160 162 154 155 155 167 168
187 176 196 162 116 190 197 194 187 150 185 188 179 183 195 178 114 188 172 204 204 213 207 211 129 141 172 188 148 110 191 169 150 148 158 162 164 169 136 130 165 174 174 168 150 167 153 164 183
182 191 185 191 192 195 98 97 101 184 185 193 176 194 186 191 188 164 173 196 120 204 120 116 103 151 181 142 110 152 125 170 164 161 154 113 143 153 169 162 169 161 134 152 145 187 179 147 171
188 166 176 190 189 186 191 194 183 105 178 137 188 177 175 186 174 182 191 184 188 189 176 209 204 194 188 184 141 128 147 137 124 152 160 165 148 172 143 162 146 151 171 185 160 161 191 185 199
115 167 172 188 184 189 190 187 184 178 178 176 176 179 177 99 172 182 175 185 192 195 194 195 202 202 202 185 188 170 133 176 151 137 144 138 146 158 141 169 162 159 165 194 202 201 197 167 202
83 102 186 182 175 184 190 182 190 178 181 187 171 167 133 172 174 182 184 178 182 188 184 191 191 197 199 201 201 170 125 190 190 135 196 189 145 210 206 204 203 161 196 193 188 190 179 196 197
166 182 83 173 180 184 191 186 180 190 178 186 114 198 163 169 179 172 190 174 166 185 184 187 188 140 190 188 114 117 189 187 192 196 193 192 193 199 200 144 192 196 194 184 160 210 180 200 183
170 88 151 173 179 170 182 186 190 119 169 152 137 173 180 163 168 170 174 191 179 165 173 187 150 191 189 186 185 185 189 188 190 189 183 184 191 189 194 204 199 127 166 182 202 154 128 183 142
178 175 181 184 174 174 196 182 176 178 188 131 185 190 170 164 173 167 171 158 167 167 176 175 186 184 183 182 185 193 187 189 189 186 191 144 187 195 210 162 196 170 159 208 134 206 146 154 222
191 192 189 171 181 176 178 190 173 186 177 190 186 155 175 89 189 198 170 179 177 177 179 163 181 170 161 173 183 180 173 183 192 143 177 195 208 223 107 222 225 164 143 156 150 210 146 143 188

GFSSGP_2pvu_pres_015.txt.gz
Presure
116 102 92 84 82 82 89 94 87 89 90 90 89 136 99 90 88 155 77 89 85 149 135 144 147 145 139 146 147 149 152 99 97 99 141 122 99 123 141 162 99 138 102 152 155 152 155 189 176
148 113 97 95 88 88 86 131 96 93 92 85 85 124 149 93 176 115 150 119 101 122 151 143 144 145 145 144 143 143 147 148 152 110 111 120 148 135 137 163 153 161 167 131 167 134 172 172 173
113 128 110 190 99 93 90 108 92 89 88 112 91 77 99 126 95 121 149 158 97 100 148 139 152 151 145 157 151 144 150 158 149 146 149 155 150 155 165 127 110 124 135 170 231 223 113 204 213
86 109 85 196 153 121 150 88 100 91 93 87 100 89 158 117 124 152 148 125 135 118 101 142 145 150 144 148 144 137 163 101 145 148 152 158 154 160 164 160 153 164 240 238 230 141 145 167 103
94 87 94 77 111 114 179 138 138 102 114 93 86 104 89 121 155 124 118 140 142 133 144 134 137 150 93 167 151 165 134 88 96 89 114 149 158 178 161 124 165 246 244 229 223 209 206 207 187
95 95 113 90 97 116 107 142 117 181 119 84 88 86 108 145 111 126 100 96 125 142 146 129 129 157 159 158 141 89 87 127 160 170 97 180 178 163 168 172 181 150 233 223 215 206 204 151 133
215 88 97 109 111 110 177 97 118 168 83 84 86 157 159 89 91 115 164 91 99 113 144 155 155 152 170 152 151 111 136 102 92 96 141 152 183 163 177 168 182 240 127 215 202 191 126 191 206
128 230 95 89 93 113 108 154 193 154 79 81 179 169 168 86 91 115 144 130 115 142 192 191 164 179 175 152 112 108 110 89 96 144 156 191 152 166 163 195 244 238 225 220 213 140 127 113 137
150 143 126 102 90 101 105 107 150 88 83 100 110 102 107 86 87 87 108 87 156 143 109 108 167 178 148 165 157 119 89 101 123 183 143 190 167 159 164 248 250 236 223 223 205 200 126 142 184
160 89 110 110 106 94 96 101 80 82 140 115 186 81 172 117 85 112 80 88 156 167 118 152 136 139 165 185 186 191 141 168 112 131 143 183 174 170 134 244 241 232 237 191 208 191 170 131 133
180 192 138 109 105 119 101 96 103 134 85 105 71 85 89 71 82 87 80 75 171 195 191 199 186 202 196 125 244 190 255 126 145 226 193 177 175 106 109 157 229 238 220 176 206 92 181 189 161
103 195 191 139 104 113 114 178 95 102 183 159 113 84 81 81 90 180 84 93 173 187 191 179 193 194 204 236 226 242 237 241 231 202 180 176 166 104 112 221 231 160 171 217 214 204 202 203 200
133 81 197 194 219 104 120 188 96 98 192 181 94 87 79 83 124 97 85 86 192 195 162 203 191 227 228 189 194 224 248 192 200 179 200 163 174 163 157 255 252 224 225 221 203 209 203 207 212
136 152 118 195 219 195 228 124 198 139 103 180 110 156 106 87 94 95 94 88 189 189 148 235 194 186 231 200 207 234 222 207 181 174 169 184 173 159 229 242 231 184 168 98 101 147 146 182 131
187 187 109 93 190 206 193 184 226 211 97 167 167 154 109 89 95 106 153 86 106 92 227 211 140 176 261 224 240 219 211 200 195 196 167 185 174 161 154 164 162 106 98 98 97 102 107 115 145
196 206 98 112 106 107 115 115 222 226 206 180 109 122 180 128 97 98 99 84 131 92 92 216 136 169 207 127 146 210 208 194 156 193 163 183 170 172 171 171 161 92 92 97 94 141 158 161 162
204 197 180 128 172 97 139 139 214 182 171 209 106 170 133 103 173 97 81 105 94 120 213 202 208 238 121 150 203 206 190 187 194 185 164 179 161 162 172 118 97 159 101 97 141 156 162 163 158
200 194 187 188 191 157 69 80 81 124 101 160 133 91 198 163 110 90 187 176 146 95 203 214 196 212 205 150 180 191 184 176 191 184 172 163 183 142 136 95 108 145 94 162 156 155 152 164 156
202 199 190 183 190 187 137 135 89 84 83 89 95 90 208 92 217 80 203 89 96 196 208 227 105 171 122 117 198 167 180 179 190 175 176 170 95 143 121 145 96 133 178 174 172 132 174 144 176
189 197 188 184 187 178 149 205 211 182 203 119 111 87 103 94 95 103 168 185 192 144 159 217 123 134 152 187 178 133 184 169 183 181 142 118 134 115 174 148 152 173 172 171 170 176 169 174 173
196 192 190 155 175 180 175 205 155 203 208 204 207 148 153 150 100 103 188 188 115 191 203 103 213 210 207 202 204 182 178 152 187 161 176 121 119 173 160 156 154 110 153 158 166 168 154 149 169
205 190 190 189 174 180 176 201 212 204 202 207 201 196 160 146 180 190 193 186 193 187 198 111 193 159 208 205 202 162 116 170 135 183 128 159 174 150 127 137 152 165 154 169 149 131 169 127 164
204 191 185 81 177 179 186 224 208 201 204 163 197 197 185 191 187 181 181 159 125 170 170 192 213 204 201 201 121 167 198 190 182 187 189 127 136 137 149 138 157 141 145 141 154 152 153 155 186
206 188 193 177 178 175 184 205 203 210 197 198 194 189 181 187 191 181 189 171 179 182 191 176 174 204 213 118 205 205 206 196 196 193 182 182 179 156 172 173 175 135 190 194 181 136 202 198 198
155 190 191 175 175 180 125 212 148 138 134 98 98 129 153 182 189 176 179 175 180 178 170 181 186 183 191 193 195 179 196 198 196 195 199 170 185 195 194 193 161 196 195 187 184 194 190 192 183
112 190 183 180 164 183 193 211 189 188 191 188 183 180 178 176 178 171 175 184 168 173 175 176 186 176 191 198 165 188 190 194 192 135 174 191 192 194 192 201 201 199 136 157 193 187 193 204 223
202 188 163 164 167 170 189 189 195 190 190 188 181 181 178 193 180 171 174 177 172 172 165 179 171 161 179 175 170 186 125 192 193 191 193 193 200 201 195 192 190 134 196 189 173 182 153 220 218
138 150 185 164 174 173 187 197 194 185 186 186 182 179 177 135 172 160 116 154 111 169 174 166 160 184 177 148 176 178 175 182 163 184 181 178 181 183 184 152 171 173 181 149 232 219 218 196 219
190 173 137 113 168 170 184 195 192 189 187 185 180 180 184 193 168 200 195 152 164 160 167 177 161 191 175 181 170 173 174 196 170 165 172 188 182 185 137 190 169 203 106 205 146 181 207 149 216
189 191 190 179 172 174 192 165 186 184 182 180 178 178 176 162 163 176 188 180 94 132 164 180 177 179 171 172 162 172 186 189 179 178 174 187 186 195 174 203 227 119 224 158 208 222 215 192 241

GFSSGP_2pvu_pres_018.txt.gz
Presure
108 167 111 84 89 114 81 95 96 93 92 90 93 94 124 92 88 89 97 84 88 88 134 140 147 143 143 149 148 138 141 147 145 132 110 150 111 111 121 117 153 95 157 162 167 162 169 156 167
135 119 95 121 171 98 89 90 93 107 116 94 94 123 110 111 100 94 115 125 94 139 116 119 129 145 147 147 148 147 146 144 149 147 144 146 107 126 141 140 149 146 154 113 120 160 137 148 173
86 131 182 95 93 90 89 87 95 95 134 92 93 91 109 94 104 127 101 160 113 172 145 144 110 146 149 145 153 148 148 150 138 119 144 155 161 151 150 149 159 158 159 172 162 148 160 172 228
89 86 179 97 94 94 91 94 86 95 86 94 93 84 97 92 140 144 132 156 149 155 144 125 148 142 145 155 148 148 140 90 138 93 98 89 150 146 148 154 155 157 176 153 153 165 175 249 241
98 89 135 84 127 109 94 97 94 85 85 93 90 114 114 85 94 103 138 148 146 152 144 130 135 158 149 133 136 139 148 136 90 89 161 151 154 151 167 164 158 162 173 167 174 169 254 212 235
208 102 91 115 131 79 126 173 98 121 91 89 142 86 87 102 92 150 147 104 92 93 128 139 143 140 130 154 134 152 156 157 133 161 124 109 114 156 155 160 152 187 179 172 167 220 251 238 220
212 97 96 112 93 113 124 166 122 124 110 87 90 85 121 92 100 118 93 102 135 133 153 90 185 150 151 124 149 152 156 153 165 105 88 95 126 150 150 162 186 181 167 172 165 113 241 222 212
173 191 100 99 203 98 94 111 118 119 177 157 113 88 90 88 130 168 93 96 119 93 96 107 88 141 144 173 135 180 175 200 84 106 89 118 127 128 154 144 144 171 173 161 256 248 246 221 215
101 215 197 102 97 98 90 95 110 123 121 110 77 87 90 124 121 86 98 94 86 91 136 90 191 166 171 136 176 194 193 176 166 153 114 149 226 124 158 145 200 108 132 182 248 225 207 210 194
143 101 185 174 105 110 99 93 85 106 112 164 85 81 110 168 172 148 91 93 80 84 97 120 175 187 169 181 169 138 143 185 182 219 236 238 141 108 235 218 138 105 123 118 244 234 215 222 205
189 140 152 162 182 209 104 109 111 95 111 84 84 92 97 169 106 87 84 89 83 83 92 97 172 189 187 181 185 197 193 194 233 225 238 244 144 237 224 178 139 103 155 235 240 227 163 202 206
209 204 189 135 135 133 119 112 99 94 80 95 168 151 138 168 78 82 87 181 96 84 85 90 190 181 197 180 194 196 204 236 228 251 231 222 154 224 186 186 165 165 170 248 238 236 215 217 102
210 198 78 113 153 119 133 108 109 105 109 153 94 118 183 117 118 83 87 88 94 173 86 93 158 189 143 156 158 207 229 229 239 174 205 226 191 172 176 172 162 169 155 244 243 234 181 98 103
251 144 163 194 191 110 107 104 112 105 111 172 93 94 106 149 109 88 77 95 178 98 157 89 108 108 93 188 186 217 118 261 242 234 215 210 185 188 152 168 175 175 167 160 163 138 99 98 99
239 210 104 97 87 110 196 80 109 95 104 115 198 102 95 177 117 136 151 111 110 97 90 88 190 103 167 100 133 219 205 90 151 217 207 204 200 167 183 170 180 168 170 171 163 105 153 101 98
217 248 207 132 188 165 179 183 186 116 110 195 113 178 114 112 176 122 115 100 106 107 81 104 84 85 194 200 216 169 118 226 150 135 204 197 199 187 188 167 180 167 147 166 122 105 163 104 134
241 235 236 203 148 156 158 79 80 139 224 138 81 89 192 115 110 178 149 179 79 179 92 93 180 89 185 211 139 226 107 111 146 128 201 194 188 193 190 171 169 161 122 106 98 99 136 156 163
273 214 240 205 74 155 109 159 190 108 213 204 187 163 220 212 87 116 169 196 93 174 146 156 96 215 183 209 186 104 123 205 118 127 134 185 182 190 189 169 172 159 122 93 156 94 144 140 161
281 304 236 228 205 190 110 110 190 96 77 88 79 214 213 106 208 92 93 85 91 91 183 101 210 144 170 236 214 146 121 120 200 194 188 187 161 174 143 186 182 174 167 164 182 175 155 115 167
292 306 222 247 212 198 190 187 108 111 119 92 86 148 131 109 108 94 176 95 98 85 99 102 102 121 192 189 223 204 197 203 175 179 174 183 112 160 176 122 184 143 144 164 126 151 118 144 138
316 315 248 242 221 198 191 189 189 140 176 190 207 128 164 104 94 88 185 207 201 161 170 99 190 184 199 214 195 211 205 206 202 196 161 142 109 176 163 183 192 138 131 136 143 153 152 141 144
387 391 300 236 240 204 196 180 193 173 169 127 212 135 103 202 201 202 195 142 147 194 194 186 184 193 189 192 213 216 209 205 209 210 191 122 195 196 189 186 184 183 186 180 180 151 162 183 197
460 377 332 231 242 202 195 183 194 177 184 186 207 210 207 202 200 202 162 155 161 189 183 183 185 171 122 188 132 203 211 209 212 136 123 200 207 202 195 194 202 177 202 201 201 199 198 195 189
320 286 289 229 246 204 196 183 187 171 185 183 212 209 195 200 197 189 174 192 190 186 184 185 180 185 183 174 187 177 188 183 193 192 188 191 190 191 193 195 117 194 193 191 192 195 199 202 203
278 221 236 237 236 193 194 183 196 177 178 184 208 208 205 203 195 196 188 189 179 184 184 180 180 172 177 179 182 188 178 183 176 160 169 186 191 191 196 144 197 192 198 189 184 197 189 187 178
274 276 220 240 221 194 189 186 183 172 185 198 208 200 197 198 198 189 185 118 111 180 180 118 174 145 173 168 109 180 160 194 181 183 178 180 171 172 179 180 173 169 181 179 174 179 176 132 172
264 232 225 236 203 189 174 191 178 173 181 206 198 204 195 197 188 189 182 180 183 182 99 176 172 176 168 172 175 168 181 166 186 170 177 166 170 165 183 176 191 179 181 184 193 145 201 214 244
260 168 219 100 198 184 186 180 176 168 195 200 204 201 136 189 128 185 181 183 179 90 170 180 169 179 162 178 177 169 180 185 172 173 163 181 178 184 181 176 182 189 171 159 200 207 213 241 237
225 181 225 206 194 185 193 184 90 177 199 206 203 195 190 188 190 182 183 174 168 157 120 179 183 187 166 170 174 174 172 169 184 183 177 183 184 196 201 207 200 185 190 202 206 214 239 237 222
218 117 232 210 185 186 142 163 163 183 201 181 189 191 189 185 188 186 178 176 168 181 182 188 180 191 163 90 180 172 186 176 182 197 167 182 177 191 199 204 197 148 192 214 216 240 240 215 201

GFSSGP_2pvu_pres_021.txt.gz
Presure
179 155 188 159 115 84 76 122 146 144 114 102 89 107 95 95 135 93 119 141 84 89 90 90 151 152 135 140 149 146 145 151 151 142 139 144 115 136 109 118 148 110 115 155 121 112 111 144 146
147 172 141 121 130 90 83 83 136 107 132 117 91 90 94 102 93 119 92 112 105 96 132 99 100 154 122 135 141 143 149 153 150 138 149 140 134 157 140 146 144 160 154 153 147 160 164 152 164
85 178 144 152 164 141 117 89 82 86 87 99 127 94 93 120 91 91 155 133 136 136 144 132 111 102 109 161 155 151 140 140 152 106 89 104 152 88 145 149 164 169 149 149 158 158 153 170 180
107 103 209 169 105 184 90 87 90 94 91 90 92 90 115 104 86 118 98 128 124 140 162 169 170 119 150 144 148 159 145 134 146 143 92 91 95 95 91 92 136 156 149 152 172 149 154 187 170
212 89 90 106 114 109 120 95 90 88 91 123 88 139 96 96 91 100 85 103 143 124 128 119 178 140 123 155 135 144 152 133 135 100 87 87 131 156 155 150 158 170 150 165 149 151 195 178 162
196 197 117 90 148 105 87 95 95 91 89 94 91 123 92 97 97 92 92 125 151 112 94 153 163 127 131 158 162 145 131 145 151 153 122 163 132 92 94 108 163 202 150 145 260 153 191 162 174
189 187 186 210 110 84 177 83 102 88 93 82 91 92 93 92 94 89 95 119 112 102 92 87 106 116 144 131 162 164 177 119 146 147 99 175 94 89 90 134 143 136 157 143 236 154 156 171 168
203 85 190 196 101 93 229 118 181 110 117 94 94 92 91 88 90 91 93 121 92 103 92 175 100 82 166 136 129 160 153 195 171 161 187 200 140 100 142 102 205 148 192 243 168 110 163 177 165
200 195 102 132 171 103 95 90 76 136 118 130 177 180 149 157 89 97 143 162 123 94 82 91 93 84 147 128 168 124 127 169 194 151 182 184 164 154 229 212 124 123 235 193 192 104 153 148 191
244 195 179 80 197 200 100 198 94 100 98 195 90 136 114 92 76 112 148 155 142 90 73 88 83 88 98 131 161 170 183 174 152 197 165 181 197 218 221 259 249 181 236 229 160 104 141 165 242
249 255 170 188 99 198 149 100 99 117 98 108 118 112 112 86 81 89 190 94 88 86 83 79 88 87 97 153 120 174 147 191 182 209 200 180 234 217 217 246 233 230 221 177 188 166 163 165 243
231 239 211 194 184 103 196 108 110 201 84 95 110 108 109 116 94 79 110 83 90 106 95 93 90 127 91 84 150 110 194 212 190 197 193 235 221 279 252 224 221 169 173 186 183 172 161 173 232
241 238 243 89 210 127 95 199 139 208 97 93 102 114 79 83 83 118 85 134 88 87 87 81 118 89 86 92 97 120 201 187 191 189 223 166 255 249 228 152 216 205 176 182 160 175 166 191 167
281 242 230 122 203 176 189 162 188 111 118 101 101 102 88 82 98 102 174 174 165 80 93 90 122 163 84 104 89 113 103 112 144 224 215 257 242 229 219 213 210 202 194 184 163 182 170 171 178
274 279 239 223 99 226 178 191 176 183 160 109 106 109 107 111 93 98 105 189 178 105 91 102 93 81 96 104 102 90 162 177 210 179 123 246 225 217 139 176 203 205 189 189 173 172 183 168 138
259 268 271 218 226 249 207 182 127 102 98 207 110 108 108 111 123 102 99 97 167 166 127 111 109 95 85 105 103 100 107 120 222 109 239 199 173 122 127 203 198 191 189 193 180 165 169 121 140
252 258 268 263 218 251 238 192 192 191 130 95 89 115 107 106 117 131 160 182 145 193 191 77 129 87 130 175 99 132 170 222 210 228 107 218 207 205 126 132 193 189 184 193 190 167 120 145 171
242 252 256 259 260 229 258 202 193 189 147 194 102 108 106 115 80 114 114 231 194 186 183 166 108 119 94 148 173 121 209 206 197 223 214 209 188 200 196 195 132 187 175 174 129 111 136 127 156
248 253 257 262 266 222 253 181 95 175 126 95 170 91 170 108 109 126 119 193 207 200 85 100 94 139 125 105 194 169 186 198 215 218 112 206 204 202 197 195 193 188 123 109 105 114 144 140 140
206 250 255 261 267 213 234 77 78 191 191 176 193 78 177 184 188 91 116 181 88 119 178 212 145 104 163 202 156 198 183 223 221 208 201 205 208 206 200 157 163 103 115 164 191 130 186 183 186
245 251 250 261 277 287 152 253 128 135 159 179 189 183 187 189 213 107 194 214 208 177 96 100 104 203 199 195 195 192 200 192 195 215 219 199 205 204 205 202 181 198 133 209 203 201 200 146 124
272 283 286 286 289 260 163 245 214 192 186 124 110 143 143 109 109 114 145 201 203 157 99 183 201 196 157 194 192 189 182 198 178 155 199 210 211 204 203 203 201 180 194 194 193 194 198 200 200
310 304 305 297 290 296 312 238 222 197 196 179 184 114 109 108 110 108 207 109 108 108 186 197 178 175 143 193 183 184 172 181 186 185 187 177 184 184 172 171 171 186 189 184 180 174 185 185 172
317 325 334 358 337 302 284 127 82 199 133 176 186 178 165 176 180 208 205 197 174 206 198 194 180 151 184 191 183 183 181 179 184 175 177 170 179 176 196 177 175 177 169 178 176 187 181 178 180
348 367 374 366 198 335 284 210 236 154 181 188 190 180 174 179 185 210 204 202 206 200 196 188 143 184 184 183 182 181 179 181 172 179 172 170 175 177 181 177 182 137 183 192 182 182 179 182 187
399 413 404 372 418 297 290 203 239 114 175 189 189 178 178 178 205 209 202 203 203 199 192 192 187 181 184 114 180 137 180 169 166 181 181 168 180 182 170 183 190 162 184 177 168 183 192 185 194
387 431 449 413 288 285 262 166 235 215 187 182 189 176 171 180 207 205 201 207 198 198 192 189 181 183 107 181 181 170 188 181 171 182 177 172 186 168 181 170 179 183 176 169 184 212 214 211 206
335 367 347 274 265 208 219 230 232 210 183 180 188 174 174 183 207 206 204 201 155 169 189 148 187 184 183 177 179 182 187 182 163 144 193 177 169 184 194 182 174 175 189 191 197 212 212 215 181
298 309 266 259 261 224 168 237 230 199 179 186 180 178 180 197 207 202 199 200 197 191 189 183 179 119 183 94 177 171 195 184 179 163 183 179 181 182 177 180 172 185 197 203 207 216 161 206 213
99 251 239 172 252 234 195 195 78 111 177 182 180 177 188 209 200 209 197 196 190 189 184 182 179 172 183 176 196 176 173 169 164 185 170 173 180 185 197 175 182 195 206 217 213 144 205 227 255

GFSSGP_2pvu_pres_024.txt.gz
Presure
82 162 105 140 162 122 122 84 99 115 96 130 104 96 95 118 94 89 116 100 92 84 88 101 96 143 127 139 154 147 139 139 149 145 132 153 149 143 109 145 99 137 145 141 141 147 155 156 148
81 189 163 105 168 95 126 84 77 139 96 149 92 91 99 118 120 120 93 118 104 119 115 95 152 115 148 140 136 161 153 139 141 135 146 152 140 121 92 141 150 148 127 144 131 158 168 160 146
189 85 128 165 167 127 132 83 85 135 123 79 94 94 96 99 96 95 100 139 140 134 103 145 108 110 102 140 136 144 168 150 153 153 145 121 90 137 142 144 108 90 145 136 147 163 166 143 153
88 84 231 208 211 166 156 88 91 113 85 101 172 160 93 90 105 95 126 98 130 142 157 155 138 159 153 169 117 104 170 134 117 153 158 136 88 89 87 92 119 150 148 161 152 153 162 171 145
203 88 117 217 192 207 229 183 192 86 90 89 89 95 97 99 96 91 97 89 99 122 130 111 168 147 143 123 150 116 133 157 129 144 148 137 131 101 83 155 140 104 93 137 135 164 165 161 145
191 202 173 86 207 200 145 200 96 147 88 87 90 98 90 129 91 96 92 85 89 135 133 95 137 112 113 143 147 178 181 153 182 176 143 139 98 163 149 135 89 92 160 132 119 202 137 144 145
186 197 207 172 88 210 211 114 131 166 150 87 89 137 191 96 94 90 92 99 93 129 111 96 86 107 86 153 132 124 116 142 168 168 155 169 132 170 185 149 94 178 192 131 181 159 223 227 179
197 183 195 196 102 91 210 220 95 84 90 108 87 90 90 141 84 85 93 88 93 135 93 84 99 96 79 99 130 162 166 110 121 165 164 167 170 191 195 190 164 208 151 143 235 258 137 238 145
177 187 220 187 192 115 91 204 181 131 85 85 86 88 91 93 96 95 85 89 151 119 122 82 89 87 86 91 96 169 97 125 149 174 190 193 126 181 193 177 197 207 194 231 218 249 239 237 232
189 225 198 208 101 190 120 89 207 83 111 131 94 93 87 92 85 85 106 142 133 115 120 72 83 87 86 88 92 90 90 149 168 174 183 183 188 202 208 201 202 218 219 261 249 238 229 184 215
208 107 107 134 250 91 195 188 89 94 172 222 117 112 113 167 111 151 142 174 182 131 172 85 81 84 109 90 86 86 94 102 178 172 192 178 201 208 190 194 225 212 248 247 237 151 219 216 184
277 208 238 245 85 236 181 191 189 167 93 92 213 232 118 145 126 132 108 86 86 114 89 88 109 187 89 85 89 96 102 84 125 102 184 191 195 200 190 214 214 241 251 234 227 218 215 178 189
230 244 231 232 243 235 254 144 131 188 97 91 94 89 110 73 132 115 95 86 83 86 111 90 95 91 87 89 140 85 108 89 88 97 133 123 103 161 198 238 249 248 234 223 216 215 204 181 197
246 238 276 288 281 243 234 254 145 185 170 95 89 96 95 94 203 121 116 89 81 83 94 85 100 126 90 101 109 127 90 166 91 95 180 177 144 167 108 114 162 158 164 149 202 203 205 194 196
239 239 282 276 268 295 172 239 258 102 141 187 103 168 77 98 192 114 81 85 91 104 102 188 184 174 93 104 113 93 167 101 93 89 182 106 177 190 214 238 114 216 121 157 203 203 202 193 194
231 277 277 274 276 280 288 235 236 200 142 139 196 115 196 127 95 108 86 91 95 101 104 102 173 172 134 112 118 113 91 175 162 93 100 95 181 193 237 231 222 214 207 206 133 132 198 171 189
245 269 261 255 258 268 279 250 226 242 210 109 190 181 192 157 116 103 101 115 115 129 116 131 107 116 183 180 177 88 91 104 94 145 188 93 182 240 229 215 217 205 202 203 167 197 195 186 187
258 265 260 233 208 264 270 282 226 106 245 210 112 99 193 203 194 110 108 109 110 113 115 187 189 178 188 178 165 81 105 100 152 114 175 204 152 227 223 216 180 208 204 201 191 196 193 126 106
260 252 246 239 239 250 255 264 230 76 252 240 80 119 201 120 107 125 113 201 109 100 101 114 94 140 188 83 96 77 113 170 137 177 214 197 206 215 212 98 208 208 214 211 203 202 198 194 196
255 248 239 237 239 242 248 155 269 219 172 105 201 185 154 118 193 136 117 109 111 200 108 119 96 99 193 122 93 212 186 203 156 193 201 203 194 197 219 223 210 205 205 204 204 205 205 187 200
248 241 237 238 242 248 250 258 272 83 219 254 103 79 114 116 139 181 138 147 151 98 77 175 124 216 198 139 129 140 202 206 203 200 199 193 196 185 178 194 185 188 194 192 190 179 182 190 186
248 237 238 243 245 250 260 256 271 263 70 248 236 163 79 85 179 189 109 106 102 196 208 142 130 214 125 204 178 173 201 192 184 198 192 187 178 182 188 185 182 178 181 177 186 189 187 180 178
234 239 240 243 247 249 261 269 82 124 238 232 236 205 181 194 185 184 173 198 177 214 206 204 118 123 128 109 137 200 198 186 153 189 192 183 169 186 181 171 176 181 172 185 183 176 183 194 179
232 231 245 253 258 274 259 271 278 267 253 169 241 207 189 193 187 187 181 190 182 194 124 103 105 204 207 118 159 158 179 190 192 192 185 156 186 179 181 183 173 166 166 181 180 177 185 187 169
247 246 260 281 285 197 292 135 166 284 308 215 247 208 188 189 184 185 153 141 174 111 115 115 179 201 205 160 198 197 166 144 165 189 185 182 181 185 169 183 178 180 184 173 174 182 171 181 195
327 330 337 261 289 337 313 316 348 278 318 211 247 212 137 184 187 181 183 173 169 169 207 203 201 204 202 197 198 193 173 189 191 184 183 173 181 182 170 172 183 187 176 173 184 167 176 173 181
332 332 311 317 322 318 307 338 270 273 305 83 92 210 136 176 190 174 182 178 171 183 210 206 202 203 201 192 196 191 188 187 183 185 186 186 93 188 200 190 174 181 175 171 165 172 175 180 189
373 379 351 348 337 354 370 388 323 166 270 209 239 143 187 184 183 180 186 177 176 209 209 204 208 199 153 194 195 184 189 186 190 177 174 85 169 150 169 188 173 170 173 171 171 189 184 220 253
364 391 411 416 429 447 448 397 76 274 234 206 230 208 183 180 187 186 181 178 186 206 206 204 207 201 201 190 190 185 182 154 181 177 138 182 181 171 175 178 178 173 192 201 194 201 245 257 242
306 292 283 297 301 288 280 295 265 206 224 231 227 208 181 181 194 190 176 179 186 207 205 207 199 201 194 190 192 149 180 181 138 168 170 181 178 183 182 197 196 187 180 202 208 260 254 141 222

GFSSGP_2pvu_pres_027.txt.gz
Presure
144 154 147 144 142 154 122 90 165 153 158 123 151 92 133 137 135 136 97 141 119 107 115 90 145 149 128 164 166 125 135 148 150 142 139 97 149 149 140 152 140 98 144 143 135 140 119 152 133
179 154 173 173 134 130 104 116 76 115 143 114 94 142 102 120 110 117 124 114 114 86 115 94 95 149 151 124 129 135 147 152 140 158 138 143 131 144 120 135 137 138 160 114 152 146 124 145 146
131 83 127 143 160 96 135 148 89 109 107 140 109 111 124 104 94 94 103 85 93 143 140 142 139 100 143 142 126 157 134 135 135 151 147 161 141 146 90 146 115 90 150 99 145 147 145 151 150
235 208 168 210 173 236 230 110 78 157 141 172 101 146 102 96 102 94 89 89 92 139 146 145 135 133 136 137 132 103 146 166 142 145 145 172 135 181 83 136 83 84 87 136 150 148 103 160 169
191 210 159 200 184 194 233 216 118 81 163 89 95 81 132 90 95 100 92 102 90 101 155 134 139 126 136 125 132 129 146 120 137 143 119 140 145 159 94 151 140 139 151 141 94 90 174 133 118
202 203 218 88 141 163 215 190 157 195 80 154 164 111 87 145 93 117 88 93 138 88 139 130 132 126 95 131 123 142 153 146 101 137 162 178 161 163 146 182 167 163 103 144 96 136 176 147 123
201 111 198 198 186 198 105 201 226 210 132 109 192 88 116 99 93 93 93 91 93 90 100 140 89 86 123 79 111 105 140 164 151 150 159 155 133 171 172 158 133 147 187 182 164 228 205 149 159
198 208 198 193 94 183 145 196 192 135 217 91 89 97 92 134 95 95 96 92 99 101 94 98 113 101 129 79 94 94 104 95 129 149 169 142 178 144 149 162 172 186 175 184 221 199 201 235 226
205 205 201 143 182 183 89 84 80 201 220 120 93 177 92 161 89 97 88 94 86 88 93 111 99 87 92 85 88 90 89 86 93 142 124 135 162 141 139 172 176 185 161 182 191 190 202 225 263
201 216 204 216 201 185 207 93 139 83 82 136 89 195 98 96 101 182 131 92 87 91 97 97 149 82 88 84 88 89 86 85 90 116 176 175 134 148 180 182 182 197 129 200 190 207 263 253 247
220 112 204 207 226 192 236 227 193 97 176 198 201 87 166 95 93 94 90 97 99 99 166 108 82 76 81 84 88 89 83 94 116 106 88 95 161 170 112 111 156 184 183 193 185 220 248 244 236
216 215 97 96 216 242 198 88 209 87 141 173 84 100 117 223 106 88 84 86 99 80 124 126 167 123 87 138 89 82 158 103 91 90 88 91 93 151 182 182 184 180 110 107 200 240 241 219 217
220 208 205 148 108 212 244 234 225 211 167 88 87 147 166 101 101 88 102 109 94 174 194 81 101 127 90 82 88 86 89 109 127 111 120 123 90 98 97 140 172 126 192 153 168 163 158 124 207
226 211 194 208 102 178 99 100 223 162 201 241 89 125 166 194 209 181 127 123 128 142 113 83 89 93 134 104 99 110 84 91 146 92 121 115 143 150 95 95 180 189 181 204 240 223 221 217 204
226 212 184 204 221 214 248 244 262 124 79 240 254 96 92 90 97 88 110 130 133 120 91 120 88 107 175 189 180 112 94 181 171 83 92 85 107 173 131 168 103 189 203 234 226 225 222 204 207
225 221 213 204 219 218 238 245 229 254 244 244 246 226 195 89 94 97 87 94 107 217 90 89 89 102 104 108 97 94 182 188 176 114 88 108 92 183 119 97 183 192 230 226 225 219 212 202 203
225 221 215 211 214 212 188 249 278 285 298 257 240 253 208 132 183 125 91 92 103 203 215 95 94 96 88 98 89 151 89 179 151 76 97 96 84 138 193 119 184 216 226 225 215 217 208 154 208
228 223 218 216 201 204 235 282 275 85 223 290 246 237 255 197 175 184 184 173 112 96 100 90 112 96 117 139 175 183 187 174 153 99 95 95 192 181 190 191 214 196 204 223 224 216 207 207 206
236 229 232 213 212 205 152 279 270 265 286 130 276 236 239 253 180 185 186 110 103 116 111 109 111 77 109 107 107 105 173 83 180 149 96 197 222 183 190 214 202 205 192 190 195 190 189 193 190
234 230 228 213 201 228 225 266 189 262 262 274 268 241 228 246 204 102 171 161 133 205 123 118 111 115 120 87 79 96 100 124 186 188 171 107 187 195 211 205 199 196 190 185 194 185 162 171 164
230 237 228 216 215 220 227 272 260 253 252 256 264 259 228 235 80 107 190 110 191 173 168 123 120 88 76 102 200 118 127 121 150 195 103 113 206 211 203 189 189 192 179 172 178 183 180 136 158
230 223 232 223 220 223 249 278 257 159 174 80 113 262 230 222 143 201 193 174 103 136 175 119 76 105 76 117 117 153 126 118 213 111 110 145 205 195 201 158 191 179 182 184 176 179 182 170 172
231 221 219 219 227 243 248 277 92 254 249 231 66 254 239 216 247 81 85 186 184 194 178 189 192 84 218 216 221 212 209 209 117 101 111 128 198 196 160 192 143 181 181 181 174 183 181 185 184
219 217 222 229 238 250 190 264 247 239 243 242 249 114 265 217 126 130 82 112 177 202 180 190 183 177 155 217 209 188 136 110 107 183 199 194 194 183 148 189 187 179 180 186 185 171 173 186 153
227 231 239 244 250 96 242 250 253 230 237 181 249 256 268 220 228 231 213 188 178 198 176 188 180 189 211 208 205 201 203 117 157 201 197 194 196 165 191 189 182 181 179 89 188 183 182 180 180
245 238 245 242 246 259 88 96 262 224 235 234 75 134 199 223 95 219 211 192 182 191 179 188 196 187 182 209 204 206 202 204 201 197 193 193 190 183 185 183 185 185 176 173 171 172 172 172 170
286 280 280 122 275 270 173 95 267 223 248 242 252 259 268 230 211 232 213 192 85 191 184 188 187 183 176 187 208 203 202 203 199 194 196 190 192 188 182 190 183 175 103 186 179 170 189 194 195
383 365 350 346 344 346 358 311 106 268 182 267 246 183 243 230 211 232 220 189 183 187 186 182 185 177 172 166 208 205 205 201 200 192 189 191 183 188 185 173 173 169 187 178 172 186 185 179 194
340 350 371 361 352 340 341 365 70 318 242 302 283 267 278 183 214 228 214 189 187 186 176 175 180 177 171 212 210 203 204 201 199 197 187 187 185 189 182 188 188 183 182 184 179 177 190 200 203
358 351 365 362 361 394 376 357 92 126 273 289 296 291 283 225 215 228 209 189 187 183 188 175 181 180 175 208 207 205 203 199 202 193 188 191 192 191 184 182 181 186 176 180 189 195 195 207 250

GFSSGP_2pvu_pres_030.txt.gz
Presure
96 88 160 155 147 155 127 140 128 147 133 154 125 157 148 157 101 128 148 105 124 113 137 114 136 154 145 151 157 155 145 162 146 142 153 138 135 138 144 141 146 148 105 93 150 148 102 147 145
161 84 135 150 157 90 151 115 155 160 95 120 148 113 143 153 91 114 120 140 126 136 90 112 95 132 132 131 151 143 124 166 146 143 158 149 139 152 141 149 86 121 87 97 110 112 145 90 94
154 158 96 117 166 160 84 132 134 158 160 155 156 141 152 128 139 124 116 105 141 89 88 100 138 134 112 124 151 150 152 157 119 157 150 135 138 159 157 141 149 101 132 84 85 148 154 136 149
135 158 149 142 157 150 130 87 129 122 99 153 134 94 98 169 102 101 92 90 95 153 141 138 96 144 140 102 129 137 140 146 142 131 142 157 154 150 167 145 155 165 187 175 144 143 143 150 90
169 171 172 160 160 166 169 164 104 160 147 103 97 96 97 141 103 95 95 108 88 111 99 101 144 137 141 147 130 135 133 135 138 140 152 169 142 155 120 162 129 147 168 167 144 136 159 160 158
212 168 173 178 93 83 180 205 193 188 133 147 100 154 85 98 91 98 99 90 116 90 101 121 114 137 152 123 86 138 126 129 120 144 150 151 138 121 172 185 156 167 145 164 175 147 157 152 155
222 218 215 215 209 186 129 226 225 205 170 120 83 178 222 209 89 129 95 100 96 96 87 101 132 129 102 127 94 100 97 127 100 96 109 160 146 142 133 168 169 145 156 177 187 156 179 183 205
204 206 196 197 83 204 207 103 213 180 214 79 229 190 143 138 107 216 95 100 89 95 88 154 113 149 108 95 89 89 91 90 87 93 96 123 130 99 91 157 130 157 183 150 165 153 180 193 191
202 203 197 200 196 204 151 208 212 182 190 196 163 226 162 229 95 124 106 174 135 96 90 92 95 150 101 123 81 89 89 85 83 86 88 93 100 140 130 140 86 166 160 153 172 176 166 194 182
177 194 123 106 212 194 211 181 90 195 98 190 189 100 95 95 83 93 95 96 93 96 88 91 84 107 130 93 83 87 86 85 85 86 120 123 82 89 96 133 160 150 167 142 175 179 103 125 189
180 193 188 190 213 187 193 192 197 120 181 176 204 173 190 93 102 175 94 95 79 91 89 92 90 101 96 137 86 84 103 87 82 157 94 90 86 88 86 80 109 100 96 109 196 122 191 172 163
194 163 185 225 210 212 222 232 185 181 98 93 91 88 90 199 92 207 105 100 100 93 162 125 96 110 167 103 129 87 93 83 82 89 93 120 136 148 102 89 90 102 96 98 191 181 198 179 199
233 203 219 176 231 210 202 226 220 206 215 98 95 197 194 131 199 135 123 138 100 73 88 86 106 157 127 110 166 79 124 87 102 82 87 94 96 84 81 185 105 98 99 174 153 156 183 183 205
220 179 228 223 132 93 216 227 163 201 237 222 154 127 87 206 197 205 202 95 90 102 99 103 123 192 149 93 92 103 158 129 146 126 127 103 189 84 81 91 92 96 168 97 148 192 175 191 227
201 226 189 229 222 223 228 139 211 96 215 235 250 200 198 91 111 96 188 72 103 100 84 107 82 187 183 87 81 83 123 189 134 187 106 98 180 83 87 120 136 157 105 186 171 180 198 224 215
208 218 230 229 238 232 236 100 218 215 161 196 238 267 238 253 112 96 200 190 132 88 168 225 124 126 181 198 117 100 100 102 106 74 102 180 108 147 110 92 90 93 183 175 189 195 184 208 232
219 207 233 224 233 239 237 90 145 191 96 214 98 179 258 250 120 120 93 144 188 89 95 94 99 111 130 236 106 92 91 94 96 180 127 193 161 96 141 97 175 158 189 191 196 192 208 197 201
213 241 231 244 237 232 241 236 228 187 202 218 187 111 245 114 243 237 202 90 100 93 140 100 95 108 101 220 89 87 108 117 114 109 129 114 182 184 155 180 181 120 195 199 197 201 199 201 189
226 232 231 219 236 236 236 242 227 227 222 215 199 234 290 290 295 245 240 244 206 93 78 78 87 90 94 202 90 101 120 109 103 92 114 90 121 121 192 186 136 110 119 183 207 203 194 183 194
226 229 231 247 238 249 220 239 238 230 222 214 201 232 248 276 284 283 237 242 236 199 145 176 129 131 106 115 129 165 114 102 87 113 82 111 167 134 118 191 110 111 189 152 206 191 148 145 187
233 234 235 240 240 234 232 244 243 233 224 214 189 184 269 92 282 283 236 235 239 146 166 106 183 168 183 155 111 115 77 113 112 142 137 98 165 173 192 114 127 191 201 204 198 186 195 178 184
228 238 239 243 242 248 241 249 240 233 225 200 212 231 257 258 218 275 250 228 235 218 96 87 91 186 183 119 200 82 114 82 94 110 113 182 189 183 103 111 110 194 202 195 193 167 158 189 191
264 254 240 243 258 249 254 122 229 231 215 208 209 249 251 225 254 270 267 218 114 232 209 201 184 183 109 190 182 121 84 89 197 167 191 192 193 215 202 137 196 199 196 185 185 188 188 188 183
278 266 269 263 259 263 253 253 248 204 208 204 245 246 243 150 247 216 263 78 156 185 74 120 197 194 175 198 119 190 198 184 201 204 221 213 210 202 199 201 197 196 190 195 196 190 191 188 186
286 284 277 276 274 84 282 114 181 169 212 234 235 239 161 216 245 248 260 252 223 233 173 90 90 194 173 199 180 189 187 181 172 214 212 205 200 202 198 198 194 194 193 188 190 183 190 189 97
272 267 267 271 274 248 258 71 97 206 210 223 240 235 239 235 236 240 258 251 198 100 234 203 200 192 185 203 183 176 185 182 187 198 201 204 203 202 201 197 194 196 191 194 197 187 192 179 188
247 247 244 243 252 251 258 73 213 207 155 216 222 228 227 235 222 243 249 261 225 220 236 216 201 191 187 198 186 175 188 188 182 178 170 205 197 201 200 198 196 196 196 190 188 191 186 190 187
357 374 406 426 339 333 209 288 158 94 173 191 210 223 225 236 241 224 84 86 226 219 237 222 201 192 189 189 182 187 184 185 177 171 172 205 203 203 203 203 202 194 196 192 191 193 189 190 189
348 359 365 360 356 377 385 388 393 202 216 189 157 129 224 231 239 249 250 199 226 220 221 220 202 194 187 188 162 186 182 182 174 172 202 209 205 206 207 202 209 193 193 193 190 188 188 182 185
288 295 306 377 356 353 357 397 374 356 338 131 204 211 96 227 243 246 249 258 232 219 231 221 204 193 188 190 186 181 178 177 176 172 207 208 210 207 209 205 194 197 192 174 188 181 172 190 190

GFSSGP_2pvu_pres_033.txt.gz
Presure
150 82 128 116 147 157 135 115 146 169 140 164 128 161 158 160 156 151 148 147 136 149 133 136 132 136 134 135 132 140 144 156 159 127 143 159 144 150 156 145 112 140 89 135 107 132 88 140 142
153 150 108 93 162 130 162 127 166 137 98 132 148 155 155 132 111 118 152 140 148 155 132 141 142 129 120 99 148 144 137 118 147 153 143 159 112 148 149 150 109 145 140 82 124 83 107 124 155
157 163 152 157 154 159 158 159 120 127 151 157 146 146 144 126 107 128 139 148 154 148 111 133 106 123 120 120 132 128 130 143 144 140 123 150 127 148 143 136 143 139 157 156 145 164 147 173 157
96 155 141 153 155 156 174 174 174 172 109 166 156 118 136 100 101 133 95 138 113 132 135 89 131 136 147 140 127 140 146 100 144 147 140 154 129 125 171 144 145 137 125 161 168 128 134 138 184
161 156 144 163 162 171 92 162 160 98 131 157 171 123 142 110 123 156 134 139 89 93 151 153 134 134 115 142 138 151 136 133 143 138 139 141 135 135 130 141 161 125 161 144 156 191 174 171 174
167 158 157 164 165 176 144 105 108 156 106 146 141 144 149 139 128 137 132 150 107 89 123 140 154 146 158 126 154 149 142 140 148 134 123 117 132 146 142 145 134 112 160 171 178 157 169 160 162
178 168 142 94 167 79 151 167 179 158 129 159 111 103 121 174 98 104 142 96 96 91 90 90 100 150 108 117 128 116 130 107 125 96 96 136 98 118 162 121 112 181 94 129 134 170 161 144 163
201 207 155 170 221 179 184 185 84 211 232 106 185 147 185 87 115 133 98 185 98 93 105 89 99 100 124 129 87 102 90 90 88 85 83 87 89 90 138 112 156 133 95 95 181 144 166 149 156
193 175 179 222 230 200 231 229 86 225 225 224 86 231 221 163 129 126 227 97 206 103 97 85 85 100 139 100 146 105 92 88 86 84 85 106 84 99 83 88 119 124 146 146 157 124 190 167 171
202 205 222 210 216 218 226 216 84 202 204 185 210 89 139 93 174 223 145 98 95 94 88 97 94 96 93 91 130 82 86 85 85 86 84 85 88 114 82 88 88 86 88 133 127 100 91 160 177
181 216 203 191 83 214 201 161 207 183 199 200 183 158 155 89 210 118 100 201 228 96 110 96 90 89 93 96 93 128 86 93 89 106 83 89 85 129 120 79 78 158 89 110 98 175 94 174 187
147 183 199 164 162 105 180 186 188 188 85 99 205 82 105 116 89 93 194 86 93 91 95 101 88 89 92 94 161 129 81 84 172 103 83 81 144 82 93 112 86 106 89 168 138 101 175 97 96
198 185 184 188 214 213 200 174 177 191 179 163 191 187 83 199 196 160 137 102 144 93 90 93 90 173 89 95 96 97 104 81 82 126 119 84 83 98 92 99 117 112 87 94 84 163 94 135 185
175 204 201 198 185 215 204 186 169 200 218 203 166 87 188 99 185 175 133 87 92 182 214 99 89 93 86 92 98 174 125 177 144 111 185 184 118 116 115 138 174 127 167 95 106 91 110 173 190
212 173 195 185 210 213 188 172 176 199 242 231 209 212 228 94 97 158 213 198 198 183 93 201 84 86 92 107 101 99 219 77 84 87 104 120 124 103 96 134 103 129 103 91 99 90 170 189 108
206 214 195 207 213 229 212 196 113 99 157 221 226 213 110 212 115 87 197 84 229 168 195 90 88 104 112 109 89 97 81 121 113 107 92 100 94 81 136 127 119 188 186 95 89 182 185 125 180
211 206 213 204 187 189 222 216 229 155 195 230 219 222 220 218 207 214 166 95 123 221 79 77 167 112 83 124 180 115 108 233 141 198 92 87 113 116 104 110 109 114 157 108 146 182 185 109 150
206 205 207 204 213 195 206 219 203 247 231 241 233 225 218 214 216 219 209 257 183 98 170 238 205 77 104 187 174 171 211 213 132 85 93 113 110 102 108 110 107 113 114 122 126 119 110 106 182
205 205 207 202 208 220 224 222 230 228 247 235 232 233 103 211 207 206 226 210 242 247 95 241 90 208 90 99 94 97 96 93 88 97 98 102 113 103 84 111 84 109 114 192 162 197 110 109 195
205 208 203 209 209 219 219 226 227 223 236 232 235 238 232 226 104 154 216 216 218 213 243 132 111 117 92 93 93 97 101 104 108 115 117 117 104 101 98 114 99 198 105 198 196 189 127 119 199
208 213 213 217 213 216 218 222 225 223 235 236 226 227 233 158 225 216 187 204 123 248 187 189 243 246 239 208 194 194 181 143 105 111 116 93 118 117 215 112 112 153 97 200 192 184 195 118 195
214 226 228 220 224 226 231 246 223 234 223 231 231 209 223 230 234 234 110 212 203 276 293 239 236 237 245 235 209 194 136 174 167 191 208 108 195 85 105 117 108 101 191 190 189 214 203 199 204
233 231 230 236 237 246 248 250 252 239 235 225 219 221 231 232 93 229 228 212 231 279 281 279 234 229 239 242 229 84 106 186 103 185 206 198 186 209 194 198 193 194 202 214 199 202 200 202 194
245 248 254 257 259 271 257 254 253 250 237 232 246 216 223 229 230 228 228 140 265 89 127 282 235 231 235 238 76 117 190 154 152 179 192 189 198 201 184 186 217 212 209 204 198 200 199 197 195
214 220 219 231 246 265 263 272 267 253 248 168 247 234 228 233 234 231 217 235 262 233 264 271 87 84 82 238 221 201 142 195 185 171 187 188 187 183 177 184 211 198 203 202 202 201 201 200 195
228 231 238 289 321 323 297 243 75 275 257 241 237 231 240 229 226 219 220 253 256 257 261 119 125 102 225 114 189 153 185 121 188 170 188 181 186 182 184 183 180 170 206 205 200 203 203 202 202
238 282 276 269 281 282 290 272 290 276 123 127 243 234 233 242 220 216 246 250 256 249 258 260 252 224 222 232 231 214 196 190 189 177 190 181 182 187 183 180 174 173 205 204 203 204 207 203 199
251 279 302 323 314 347 313 393 223 88 230 256 272 245 248 225 220 218 237 247 247 243 249 260 251 226 220 230 229 213 192 198 189 188 186 177 188 184 185 180 177 184 205 209 209 206 203 207 202
274 264 310 276 309 331 355 402 383 93 262 262 263 223 240 214 212 216 228 237 241 243 243 136 251 229 219 225 232 212 192 197 189 181 188 180 187 180 184 180 175 207 204 204 205 206 202 201 194
290 294 290 293 316 338 359 409 352 378 232 124 258 266 236 223 230 216 223 233 235 238 245 250 260 229 220 222 232 210 196 193 185 183 189 180 185 180 174 182 173 205 205 209 212 194 187 186 185

GFSSGP_2pvu_pres_036.txt.gz
Presure
148 96 77 83 145 153 152 159 164 160 155 157 145 161 136 128 148 154 124 144 134 128 127 136 126 127 130 134 135 126 123 138 144 146 150 147 128 130 148 156 159 142 140 135 83 83 84 92 83
149 141 131 153 80 147 141 117 150 160 138 161 162 128 175 155 158 150 134 146 154 159 136 142 133 129 135 133 138 117 132 130 124 141 146 143 146 137 142 158 126 169 154 155 139 142 142 161 134
156 124 149 148 85 159 163 159 155 153 149 130 168 136 165 126 162 127 151 134 156 161 141 143 135 137 129 118 134 134 140 138 136 142 133 126 139 130 142 138 126 137 136 128 114 152 130 146 150
161 168 139 159 165 84 94 143 131 158 161 128 154 111 162 146 165 121 149 106 135 146 123 170 95 123 155 143 144 147 141 129 132 104 134 145 147 107 155 135 132 112 149 118 152 128 153 128 168
158 150 155 151 167 166 95 140 171 158 162 173 128 82 161 139 122 134 159 109 128 135 131 88 106 150 137 100 95 130 140 137 122 137 134 121 140 135 140 127 145 136 123 125 137 147 135 164 157
151 156 161 164 157 166 162 167 123 158 172 165 177 144 144 144 140 124 156 100 138 138 135 83 127 153 127 111 130 137 159 144 141 145 134 135 136 141 136 148 120 140 139 122 84 105 161 143 133
140 154 148 155 157 150 170 149 145 124 155 168 81 96 91 172 114 154 133 167 148 119 115 129 158 119 152 151 120 146 158 140 146 123 104 137 105 113 95 104 102 94 133 150 148 96 118 135 140
152 161 148 165 154 147 162 158 159 149 130 175 170 153 159 167 171 125 140 135 96 95 107 94 92 97 147 125 100 93 127 96 94 90 88 86 88 89 91 89 89 93 97 132 132 97 97 96 89
163 155 159 145 188 142 151 169 162 169 143 126 162 117 103 127 178 152 96 121 98 160 120 94 91 89 100 100 112 105 107 84 93 88 87 88 92 93 138 96 89 88 91 91 108 88 101 150 139
182 192 191 170 176 189 175 205 196 123 210 217 182 209 170 220 223 121 91 91 98 156 111 93 98 92 163 98 118 188 151 92 89 88 87 87 84 84 97 117 118 107 86 91 134 94 98 120 102
189 190 187 192 178 212 186 212 207 219 206 205 118 224 224 226 226 215 229 214 96 158 100 103 96 94 95 79 114 95 97 95 83 91 85 87 85 135 78 84 92 133 116 85 88 115 98 91 89
196 193 197 193 205 198 201 220 205 227 211 218 83 210 162 213 208 206 207 192 184 214 209 96 88 165 123 104 95 98 95 105 88 84 89 89 86 84 81 154 132 95 85 100 103 100 96 93 97
195 199 199 219 227 217 227 199 213 200 181 199 178 185 206 152 190 154 116 98 203 201 95 204 209 95 165 89 94 94 92 84 121 217 85 104 118 96 117 90 113 131 159 93 180 180 179 120 90
205 220 215 216 218 219 197 217 186 168 164 185 221 182 106 184 185 190 143 118 196 171 112 200 153 98 110 94 97 92 96 102 86 92 182 87 99 133 143 165 186 105 124 93 98 104 122 146 90
196 201 219 218 212 215 181 209 66 198 195 169 209 212 186 175 186 158 193 206 120 101 122 186 172 200 101 94 95 100 94 88 96 100 117 188 82 96 103 203 162 84 81 134 121 116 120 190 192
188 199 214 205 213 211 215 211 206 222 219 210 205 169 213 203 209 133 211 104 230 95 107 100 92 203 123 128 99 89 90 101 97 90 83 210 203 93 90 108 97 91 105 107 110 112 114 111 116
204 194 189 197 210 210 212 210 214 207 177 215 226 179 206 173 185 219 223 153 197 82 234 152 218 184 98 98 138 100 96 111 87 81 98 114 154 118 182 88 104 115 104 95 113 107 109 109 123
207 185 178 233 204 209 212 213 210 218 211 194 224 220 220 112 190 197 225 219 200 88 120 226 230 226 184 200 87 105 172 175 107 197 149 172 127 127 184 105 100 104 111 106 114 116 113 104 176
214 222 229 238 210 208 208 208 208 205 144 200 210 228 208 201 220 234 225 217 219 214 215 86 121 237 255 81 200 220 73 201 197 110 191 118 101 89 101 122 122 107 109 107 111 223 89 109 104
222 227 237 241 233 213 209 209 208 208 213 218 217 194 192 227 204 236 232 229 225 221 210 213 223 175 237 89 144 170 83 119 200 95 91 97 101 184 191 134 118 124 124 126 124 115 112 125 99
230 240 239 234 232 211 209 211 209 209 205 209 211 217 213 217 236 235 214 234 227 228 216 208 207 232 230 213 260 93 163 241 151 169 101 110 99 133 103 112 184 95 156 159 100 212 208 98 188
242 239 236 228 227 223 93 182 202 207 209 204 202 211 212 220 228 225 245 235 235 244 156 219 211 206 227 232 245 227 221 223 217 152 200 194 185 178 183 180 187 192 142 214 123 204 198 192 158
237 235 228 228 229 229 228 235 189 201 208 207 215 223 221 221 230 236 246 243 234 237 240 235 228 199 129 216 297 243 230 243 240 237 79 197 187 189 173 103 193 202 191 214 208 192 198 203 214
235 224 225 225 230 240 235 241 85 226 223 215 218 224 231 231 232 234 242 235 233 184 124 233 239 219 223 211 257 283 238 237 247 202 187 220 204 186 192 121 187 199 192 188 182 183 181 203 170
228 226 229 234 237 245 249 261 258 229 233 247 257 201 259 258 241 237 234 177 233 222 170 238 242 235 222 81 284 277 240 233 238 208 231 224 201 191 154 182 176 197 188 187 184 186 182 180 198
238 239 239 166 172 245 220 230 92 130 91 110 158 237 175 239 256 257 255 244 233 168 232 211 234 231 271 215 278 270 130 199 94 232 223 218 195 195 193 130 172 185 181 185 188 187 181 180 176
225 218 220 225 233 238 245 262 107 88 109 116 104 131 156 79 231 162 252 244 242 219 227 235 237 228 263 267 230 212 244 226 222 234 97 195 204 186 193 192 178 185 189 177 184 185 181 183 192
206 220 226 234 321 318 311 321 308 167 93 128 108 296 306 310 286 246 255 254 242 232 231 231 228 238 259 261 264 253 241 223 221 228 227 212 203 199 187 191 189 179 185 186 180 185 184 183 190
221 238 293 264 267 260 320 298 289 312 158 377 432 212 284 309 295 275 257 250 215 132 228 224 245 220 251 251 219 252 239 222 216 228 230 214 209 192 197 191 188 181 178 184 182 171 187 176 198
283 267 254 244 288 299 308 299 288 308 200 79 84 306 273 305 272 202 256 243 236 239 224 216 247 245 234 241 256 250 236 223 216 221 229 217 207 194 192 191 183 185 179 182 172 182 180 191 207

GFSSGP_2pvu_pres_039.txt.gz
Presure
165 136 155 122 140 157 147 136 158 99 141 150 127 138 141 136 132 116 156 152 137 127 134 136 131 129 133 134 141 133 133 138 130 135 139 143 141 141 150 157 142 134 155 158 160 167 83 83 83
140 161 138 137 160 147 155 146 147 132 159 118 149 155 154 157 114 138 144 131 134 154 136 140 134 143 138 132 135 126 138 135 139 125 126 127 143 142 147 140 145 146 147 136 143 149 116 138 134
136 165 157 134 161 83 93 102 156 145 144 115 146 159 152 159 149 140 134 165 128 120 156 163 156 134 137 147 133 142 139 132 138 112 134 140 130 146 142 125 144 120 140 137 119 137 118 140 151
94 98 99 142 149 160 163 111 164 160 164 153 158 134 159 146 162 126 136 141 128 133 167 151 143 128 134 141 92 146 146 137 136 156 142 141 139 147 139 141 148 133 148 111 133 136 117 136 144
160 117 97 129 92 148 140 147 135 148 133 155 124 158 164 155 126 151 155 127 158 116 111 157 143 145 115 103 137 123 141 148 124 138 131 135 127 136 141 114 144 148 137 134 143 138 140 142 141
168 164 157 153 138 132 158 163 124 118 158 157 145 163 157 134 145 120 144 134 162 150 126 139 140 146 119 142 138 161 105 142 158 145 123 150 144 136 140 134 133 143 141 135 105 103 133 122 128
175 168 158 161 152 168 142 125 166 150 91 155 166 137 127 172 160 160 130 165 169 148 118 135 86 87 149 133 95 138 108 117 141 142 142 143 128 131 144 132 102 95 96 98 115 141 134 121 96
154 170 173 153 167 151 163 153 159 146 152 103 132 165 165 160 128 123 162 133 159 148 96 135 131 141 154 107 116 122 154 136 127 143 143 113 154 92 139 92 91 86 84 84 90 92 136 90 160
166 149 156 153 166 152 158 147 152 160 165 145 160 167 161 94 173 152 95 139 166 153 98 142 129 124 137 175 117 154 119 106 115 113 132 90 88 88 92 133 91 89 93 83 88 138 90 128 94
169 158 160 170 157 155 167 141 146 120 157 163 165 164 157 170 141 137 179 160 180 151 163 110 96 90 156 117 117 100 100 92 139 99 96 92 115 89 87 86 86 89 89 99 82 101 84 91 85
178 188 159 157 174 168 162 150 166 155 161 171 165 177 177 172 182 172 177 177 213 130 187 127 225 141 99 93 93 102 127 154 100 94 90 88 89 93 89 89 87 87 88 135 90 135 92 98 137
179 163 173 182 175 189 171 182 164 198 145 180 165 150 200 196 215 218 227 103 237 97 216 161 107 104 102 104 91 209 107 126 95 108 89 87 89 90 90 88 86 85 131 133 113 154 118 145 136
207 197 202 197 206 206 200 194 164 146 186 189 203 195 188 196 206 233 227 227 226 183 148 96 149 172 98 150 101 101 101 105 117 128 96 91 88 106 99 83 85 126 113 157 129 123 109 132 95
180 183 189 191 190 196 198 191 182 198 209 196 216 229 197 214 208 180 200 207 224 215 154 208 94 98 103 98 120 103 104 97 87 90 91 84 117 87 228 83 140 91 151 162 120 96 93 101 172
195 196 198 191 202 186 188 196 202 204 207 181 225 224 222 220 206 84 101 181 201 200 170 195 98 195 201 199 104 161 200 96 95 94 95 96 182 104 102 107 209 144 211 95 214 122 90 103 102
220 205 215 216 234 224 225 214 186 226 224 99 216 219 221 212 192 191 187 211 205 215 201 91 175 195 120 199 204 204 114 108 99 95 95 91 91 102 90 88 168 207 203 91 185 105 107 110 101
207 215 206 214 222 229 215 206 209 207 219 217 217 221 217 206 162 194 204 183 212 227 202 193 210 123 106 96 144 173 88 93 116 87 89 89 93 105 91 86 108 109 129 186 109 100 173 111 104
208 212 212 200 206 212 206 206 192 203 216 170 211 220 224 210 202 208 205 202 214 155 185 206 159 230 88 129 92 98 97 100 127 114 94 99 95 128 84 179 181 135 125 125 125 115 102 101 130
203 204 211 205 212 207 199 207 184 185 199 206 206 211 211 152 216 201 215 233 220 224 114 189 193 159 87 221 97 96 240 111 85 84 188 94 110 198 199 191 123 196 89 96 102 109 110 110 112
207 204 211 211 200 214 210 209 205 188 191 214 201 209 211 212 215 217 215 203 212 212 220 240 246 201 211 232 223 185 219 229 221 125 96 249 193 91 204 97 92 93 101 97 98 182 129 110 131
215 208 202 210 209 212 212 210 219 223 225 241 226 208 208 210 212 218 224 213 204 219 223 220 210 244 171 229 96 158 89 157 213 89 170 214 89 199 247 168 194 144 97 184 184 189 109 180 166
218 217 213 211 206 212 214 219 222 220 229 239 226 211 211 215 215 212 181 175 221 212 207 213 233 236 240 241 232 227 217 209 224 93 161 205 91 225 212 235 211 109 183 182 183 179 183 190 200
231 227 216 214 214 220 220 229 230 224 233 229 228 210 218 221 218 219 220 211 212 221 222 230 226 234 244 236 248 237 228 209 197 220 225 238 134 132 129 218 116 207 202 196 180 177 115 185 195
228 222 218 220 225 229 226 242 246 63 127 232 217 219 221 221 222 223 218 216 216 222 217 223 228 230 242 243 244 245 246 231 188 198 207 238 229 232 232 203 137 233 214 207 193 183 171 175 189
222 223 248 249 260 262 259 259 243 200 109 223 185 210 233 229 228 224 221 218 220 220 222 163 224 230 228 243 238 236 240 245 234 214 196 118 186 226 228 233 230 229 223 221 204 187 184 175 173
257 256 252 256 248 242 246 243 95 76 116 143 142 253 255 253 246 242 243 244 242 238 227 217 215 224 228 236 236 228 237 243 83 141 218 197 242 227 225 138 233 229 222 218 186 196 191 187 168
247 248 245 247 164 168 245 242 250 204 105 99 232 100 111 247 170 263 172 276 265 261 257 103 244 234 229 229 235 216 237 236 232 262 217 215 111 196 221 228 234 227 223 216 204 186 190 191 175
243 230 232 225 220 217 227 230 230 155 104 77 212 140 98 130 342 297 199 217 190 232 168 251 254 244 177 235 227 224 230 231 239 258 268 263 243 232 222 221 228 146 223 215 207 200 185 190 184
220 219 209 213 220 229 273 270 267 274 295 290 280 199 113 303 317 261 381 341 241 235 231 233 239 248 199 232 234 213 229 233 238 78 262 233 243 231 221 219 222 225 222 211 206 194 194 193 185
214 208 214 224 276 264 270 279 286 297 198 105 82 97 90 82 288 333 457 347 305 203 244 235 226 239 237 230 228 229 216 219 249 249 257 252 237 230 220 219 223 221 219 207 204 199 190 193 188

GFSSGP_2pvu_pres_042.txt.gz
Presure
107 152 140 96 82 154 150 148 142 113 109 113 111 143 130 143 129 100 141 119 138 132 133 136 135 135 148 134 136 135 135 135 136 133 138 135 139 142 142 140 105 141 147 125 157 91 142 158 84
79 90 146 164 148 125 157 116 122 157 151 137 135 138 146 156 130 114 137 146 148 141 122 155 143 140 143 133 130 135 135 137 137 136 138 125 144 135 123 141 127 145 141 130 91 139 145 135 143
152 131 153 151 150 152 133 117 115 131 144 161 139 158 138 146 115 103 140 132 148 122 141 154 156 142 119 137 134 136 132 143 142 144 138 137 131 130 126 122 137 146 141 133 140 144 124 146 133
162 158 89 86 156 142 123 86 89 89 97 112 142 152 129 150 164 141 130 129 130 160 146 168 121 129 134 152 141 152 133 146 137 135 145 132 148 136 135 141 138 85 141 140 141 115 120 151 140
153 157 117 134 162 160 148 140 143 102 134 163 160 140 154 161 161 163 133 165 164 151 158 159 163 124 177 152 147 161 166 135 140 152 145 153 144 137 111 147 144 142 144 129 139 144 145 145 96
150 141 150 153 123 149 138 160 157 145 149 97 156 170 123 111 167 138 158 134 139 165 156 147 136 152 124 124 165 151 153 115 137 157 139 147 125 103 145 142 144 137 136 142 139 133 118 97 140
165 162 154 157 151 101 162 111 111 160 143 156 143 148 157 151 153 143 129 145 158 138 156 148 159 158 103 147 128 108 126 127 150 101 128 147 156 168 147 114 151 155 148 147 109 96 98 121 100
171 175 169 159 165 157 145 85 94 95 159 165 139 153 116 149 152 158 127 156 133 151 137 146 168 142 159 103 152 148 128 140 158 151 145 131 154 111 155 104 159 147 89 85 83 87 86 89 85
164 169 163 160 167 168 162 166 149 164 168 160 142 165 162 144 119 162 141 149 166 157 166 134 130 148 135 94 102 171 142 98 155 162 148 132 114 119 152 121 90 88 85 119 94 101 146 89 92
166 153 153 166 172 160 172 181 158 173 159 149 168 153 145 166 146 164 155 159 169 148 106 148 160 150 115 95 155 136 168 151 151 158 152 110 137 106 92 90 90 88 86 88 87 87 85 82 106
171 170 177 167 168 181 177 162 171 158 172 158 173 172 148 167 168 156 171 103 166 102 155 165 163 101 143 158 103 168 197 103 151 160 107 120 124 95 90 88 83 87 79 86 85 96 148 144 152
183 178 172 163 167 175 157 167 159 165 164 157 167 137 164 169 164 166 172 164 157 88 108 156 210 171 171 171 92 98 179 104 154 103 102 88 108 100 91 92 91 85 87 86 129 147 188 164 186
183 176 173 181 176 175 169 161 179 177 155 174 104 130 167 151 160 174 177 168 173 171 174 201 159 229 210 102 140 99 96 93 101 101 106 123 98 94 90 96 91 91 180 131 89 123 160 154 162
169 182 200 182 199 190 179 178 188 130 172 179 174 180 176 188 189 177 192 198 167 197 219 125 158 217 229 223 108 109 100 116 94 109 102 106 92 98 89 91 89 81 186 82 110 232 218 107 124
201 190 177 182 189 192 198 205 202 174 181 180 181 177 197 207 208 209 199 175 191 170 234 228 101 161 206 106 100 204 111 206 167 98 106 212 89 100 98 107 98 100 86 120 91 119 212 88 91
185 198 194 188 179 186 190 191 195 189 201 208 208 196 205 205 188 194 191 205 237 95 232 218 219 215 202 208 112 98 100 195 163 100 206 100 96 95 98 101 94 96 196 85 91 88 114 191 130
196 200 205 200 198 203 205 199 197 197 193 183 60 214 206 213 226 232 229 232 228 215 169 154 207 208 187 164 224 224 145 200 146 198 111 116 129 98 104 92 94 94 84 102 142 89 110 183 217
195 203 203 203 197 201 201 199 202 196 196 205 236 218 224 222 217 219 223 222 221 227 233 228 178 121 190 195 95 171 196 209 205 218 145 210 229 104 98 104 90 100 95 100 107 101 125 201 181
201 188 198 200 203 205 209 209 206 211 230 210 214 233 219 206 206 208 216 215 216 224 232 221 220 164 213 213 221 191 214 195 225 231 96 203 215 102 85 83 150 92 90 106 101 196 200 90 124
211 211 212 215 215 215 211 212 212 218 219 213 204 210 204 203 209 201 204 208 214 215 217 218 215 230 130 234 91 152 197 191 112 97 216 206 151 87 96 98 94 106 201 237 219 217 163 173 94
218 219 214 212 212 216 220 205 209 208 209 202 207 206 202 208 199 198 202 206 200 208 214 216 223 229 231 209 159 202 205 161 176 156 172 150 97 150 209 225 214 242 211 125 222 213 247 222 127
223 218 217 218 215 213 218 217 211 210 202 206 202 202 211 209 202 198 193 227 259 216 213 214 215 216 228 218 211 203 208 210 187 255 244 226 219 145 218 215 89 241 234 96 237 234 223 89 134
223 221 219 216 219 222 219 222 204 209 207 203 209 210 209 214 207 214 225 229 253 238 216 213 214 216 221 227 226 184 183 225 221 105 226 238 107 188 209 199 104 106 237 238 233 114 146 145 228
224 223 220 216 222 228 221 226 76 183 210 169 215 210 219 230 229 230 236 241 252 251 228 218 215 214 215 214 218 211 224 215 218 233 248 238 236 233 217 203 196 210 223 235 237 234 230 232 225
227 225 227 231 232 229 232 234 225 150 129 152 84 220 174 180 139 236 245 248 255 249 240 225 224 219 214 214 187 217 223 219 220 231 241 246 240 238 245 221 189 203 208 210 232 122 233 233 229
232 229 237 244 247 243 243 240 230 102 72 132 135 159 210 259 259 261 260 255 249 250 249 237 220 221 209 208 216 211 212 222 228 226 233 242 166 101 245 237 219 206 212 206 198 228 227 228 229
249 240 229 223 222 224 223 224 259 253 110 91 126 110 126 157 249 263 240 253 235 252 246 245 245 231 212 208 223 224 84 197 228 231 231 232 110 219 239 237 260 262 265 100 242 233 225 226 228
221 242 265 263 260 255 256 212 249 245 244 238 103 125 127 154 183 109 227 255 262 268 269 191 208 238 238 239 236 230 231 234 230 231 229 231 229 225 236 232 251 266 256 248 241 238 227 225 222
256 248 250 250 237 234 223 215 220 224 226 259 279 235 105 103 94 161 285 135 160 211 248 241 253 264 265 211 261 249 246 241 236 228 233 232 227 226 243 235 256 268 256 249 237 235 227 220 219
240 229 216 218 216 217 222 220 261 255 257 315 314 99 88 310 83 243 134 130 159 290 301 138 324 240 238 241 238 232 235 242 238 232 232 236 236 219 215 240 252 245 256 247 239 233 225 221 220

GFSSGP_2pvu_pres_045.txt.gz
Presure
85 149 93 134 113 123 98 147 145 116 94 98 96 131 134 143 123 137 133 118 137 123 137 133 134 140 135 135 136 135 136 139 128 137 141 134 137 140 139 139 145 142 141 134 130 131 83 105 82
143 93 121 103 93 128 84 115 141 115 149 129 124 103 156 126 122 149 119 110 112 144 130 147 129 136 137 139 132 134 137 139 146 142 141 140 137 140 142 142 140 144 137 140 142 115 85 135 142
144 96 166 95 97 132 150 81 120 145 137 119 155 156 120 113 125 149 128 129 139 125 141 117 130 135 138 128 129 140 138 143 138 140 136 137 141 142 109 128 135 139 127 143 140 140 149 146 147
153 149 110 155 151 144 134 125 151 145 163 152 122 143 147 159 133 123 145 122 149 159 124 140 153 139 122 132 136 160 149 126 148 143 135 141 143 143 142 140 139 147 142 139 140 139 140 155 122
141 165 140 130 93 136 152 96 151 156 143 104 158 122 139 156 123 158 137 150 132 151 127 119 118 133 140 131 153 154 166 140 136 148 130 136 138 140 137 145 137 129 103 144 144 144 146 143 116
153 151 152 158 162 115 112 161 147 91 148 131 121 94 109 136 132 132 148 134 149 141 146 145 131 146 138 170 121 152 152 147 110 160 161 144 129 143 131 142 113 131 141 150 144 146 157 145 147
169 153 149 143 149 154 122 82 160 156 134 92 79 123 141 118 152 148 156 155 155 128 163 133 129 152 140 153 163 143 150 127 140 132 160 120 116 112 148 142 156 141 129 143 159 142 131 93 89
180 176 157 160 136 157 159 163 151 92 145 165 154 158 137 168 155 166 147 154 157 129 135 162 160 149 116 136 135 159 103 149 130 142 97 112 100 167 138 143 122 150 103 156 118 84 80 88 134
165 175 176 168 168 157 164 164 158 92 123 124 106 134 134 149 129 163 110 139 154 151 159 136 144 125 128 127 162 151 155 149 94 156 103 106 140 176 154 152 145 114 129 149 85 91 85 88 83
170 176 171 175 177 176 164 164 155 143 158 155 111 89 100 142 159 142 145 161 110 153 156 150 160 145 146 158 146 103 106 124 167 101 154 170 123 164 154 122 109 125 146 89 99 88 86 85 88
176 167 174 173 175 178 178 173 142 143 158 165 168 141 166 153 160 162 169 170 153 127 97 144 153 159 161 144 166 170 163 91 148 151 131 153 128 134 99 173 127 103 90 89 87 87 87 87 129
180 182 173 175 175 170 167 170 175 177 177 170 166 165 124 172 152 123 135 173 156 152 150 166 165 162 166 170 157 108 156 105 129 168 148 159 113 162 187 159 109 91 92 84 89 86 86 84 86
175 172 163 165 164 175 172 173 163 166 170 181 181 166 165 174 181 174 177 162 152 180 162 149 174 116 156 180 156 163 169 167 93 164 194 133 210 150 109 118 155 91 89 93 90 86 85 83 164
172 175 176 183 186 175 156 174 172 172 164 170 173 172 174 175 173 184 186 183 177 175 141 173 172 166 114 173 128 168 213 191 177 96 97 193 126 104 101 97 95 101 90 99 88 83 83 99 91
193 190 184 185 176 177 182 168 151 164 169 168 161 161 156 159 164 172 184 154 170 163 155 169 167 147 167 164 204 167 185 202 163 218 99 97 92 102 104 94 101 103 104 85 93 104 87 98 216
204 193 190 184 188 182 181 179 183 182 183 171 176 178 168 184 182 180 182 185 185 195 197 98 190 213 216 214 228 226 235 217 227 214 220 210 108 162 129 122 206 100 107 96 109 99 99 102 121
213 211 212 204 207 196 210 187 185 176 185 179 191 200 194 198 192 217 205 206 210 208 216 215 184 154 222 235 236 103 221 100 217 174 152 171 177 199 146 99 108 148 97 99 101 96 99 88 100
205 214 205 201 194 205 198 188 182 186 189 202 183 181 95 175 182 199 212 205 213 210 193 236 241 230 233 226 227 230 226 224 208 130 102 106 176 110 175 98 112 99 103 97 98 97 102 98 89
200 208 207 167 209 204 194 202 199 194 190 192 200 204 200 198 201 197 192 200 198 197 233 225 225 223 219 225 218 92 210 226 196 187 96 196 195 217 108 202 235 113 102 211 89 94 84 88 99
205 210 209 200 212 207 206 206 197 204 199 206 205 206 202 203 200 207 210 227 216 229 226 219 214 216 215 221 224 226 227 126 200 167 237 228 185 206 237 198 207 200 224 183 124 96 98 101 100
224 203 207 208 205 202 203 202 206 198 197 199 199 198 199 202 211 210 215 220 211 171 213 214 215 214 207 208 216 213 213 218 207 187 204 217 223 169 160 248 159 97 106 105 105 103 90 89 255
224 226 219 212 211 205 199 192 196 191 192 192 95 212 211 198 215 213 215 217 215 210 208 204 208 209 209 211 207 223 217 220 221 224 230 201 237 237 173 214 101 97 96 96 96 219 222 223 228
235 239 236 225 223 218 213 209 210 201 203 205 208 208 207 217 222 199 214 86 214 205 204 207 205 201 196 206 201 253 231 220 220 216 211 200 202 198 188 203 103 224 219 101 98 102 220 219 215
237 239 236 234 234 226 225 228 219 211 214 217 217 217 220 226 227 230 229 219 213 217 215 207 206 212 207 219 227 253 234 224 223 217 220 221 212 199 205 184 219 243 237 240 240 246 224 221 206
238 237 239 244 231 233 230 222 226 219 215 216 219 223 226 229 229 229 232 232 229 225 231 222 214 213 222 227 235 248 238 225 222 219 212 151 206 204 221 165 220 234 240 236 243 239 279 266 218
255 238 240 239 229 229 223 225 224 217 218 227 113 213 154 213 144 237 240 238 237 236 235 236 242 236 238 234 250 249 252 230 223 218 212 212 217 205 217 221 229 233 238 237 102 251 257 261 276
249 256 257 250 235 235 232 230 231 221 103 213 111 243 247 104 251 156 151 240 248 226 239 239 242 262 268 269 268 263 251 245 217 214 208 209 208 213 216 224 163 239 237 235 235 240 253 248 244
234 240 242 245 241 240 230 225 230 249 249 236 150 226 176 90 110 96 119 125 186 236 272 223 262 263 262 259 259 258 248 239 232 224 216 205 205 221 228 231 231 233 234 232 232 235 240 229 265
248 250 251 245 244 247 239 228 221 254 266 259 248 248 111 194 257 101 142 97 100 139 256 224 117 200 262 268 267 250 234 235 239 226 232 232 227 223 229 237 232 149 233 234 225 219 225 234 250
243 242 235 223 220 257 260 247 248 240 235 236 232 272 276 81 291 353 181 125 99 133 156 300 133 213 233 123 239 240 262 235 231 230 228 238 246 242 239 232 227 235 229 227 223 225 228 246 249

GFSSGP_2pvu_pres_048.txt.gz
Presure
100 140 131 131 98 130 147 118 148 125 122 138 137 137 132 120 125 130 99 142 127 135 129 124 126 126 109 136 136 136 125 141 133 128 134 138 148 141 138 142 143 142 140 143 144 142 141 83 83
146 79 131 127 130 87 143 139 134 128 112 121 94 92 93 96 141 131 141 133 150 144 117 135 138 133 134 134 126 118 136 138 136 148 141 142 128 140 137 134 138 141 146 138 148 158 81 126 130
140 152 98 130 139 129 101 115 128 147 134 133 89 134 128 105 125 138 146 134 138 136 104 133 113 143 137 132 126 141 141 139 133 131 139 139 142 138 145 143 140 144 145 147 130 124 151 145 144
137 151 143 154 100 100 135 149 122 84 128 154 92 97 155 130 96 122 126 122 115 122 125 145 125 136 155 134 125 137 138 140 134 112 139 139 136 132 138 141 139 134 99 144 149 143 133 142 134
157 157 149 138 142 161 151 141 129 137 91 138 136 146 125 88 118 108 134 124 143 123 128 146 128 123 128 125 141 152 109 124 129 136 144 152 160 150 140 137 142 137 144 139 158 145 113 146 146
168 167 165 147 134 112 124 87 140 115 130 133 93 145 118 122 126 157 111 119 147 126 126 116 158 114 115 127 120 127 156 150 161 135 135 155 140 138 142 141 147 158 135 138 147 142 142 140 143
159 156 158 87 163 152 162 170 164 154 139 120 160 141 123 92 157 125 126 126 138 159 150 157 145 144 146 135 157 109 156 136 130 141 133 132 136 150 156 132 149 169 151 127 163 163 131 145 158
176 165 151 148 164 156 161 87 146 151 158 93 146 154 158 154 130 151 97 148 127 122 151 135 135 155 146 150 140 149 157 157 121 121 130 142 170 142 131 146 105 138 142 160 114 159 166 150 82
180 178 168 162 158 154 167 148 160 124 163 147 146 146 151 156 109 85 143 150 153 156 120 119 147 156 151 138 155 141 167 103 152 134 104 162 162 148 97 149 156 110 155 131 156 156 102 112 125
164 164 165 168 172 170 157 147 148 152 150 157 90 153 138 143 96 146 151 164 151 164 165 98 151 151 139 156 161 162 132 134 166 135 130 169 114 136 100 156 159 162 134 146 176 132 90 122 87
156 152 157 181 175 179 176 170 169 132 138 143 152 152 98 137 142 146 150 122 154 157 165 160 160 152 165 149 167 161 155 160 156 168 156 147 117 170 139 104 109 107 171 160 117 120 94 89 90
161 157 160 162 174 180 179 181 178 169 164 159 168 164 156 156 156 146 115 157 150 81 146 165 161 161 159 144 127 131 130 153 149 158 164 159 119 168 179 150 178 125 176 195 143 111 90 88 90
183 165 170 185 167 164 166 174 177 170 174 180 181 168 172 160 164 102 159 98 157 150 147 161 155 162 164 152 111 166 155 169 160 178 159 117 96 158 158 150 213 154 131 196 191 109 94 90 90
175 182 198 168 177 170 168 174 171 169 179 178 179 175 162 171 176 151 161 169 173 167 169 157 162 156 162 174 180 157 149 179 166 147 171 172 98 156 192 165 194 144 121 200 113 113 92 93 84
198 187 180 184 173 176 174 172 169 177 174 174 156 175 173 160 170 173 175 175 174 181 179 172 152 185 174 179 192 180 93 173 138 163 168 109 165 212 97 211 157 227 187 98 223 125 105 92 92
203 199 193 184 194 188 177 167 169 179 167 172 170 169 175 173 176 169 157 158 156 167 175 175 172 176 174 168 170 177 170 159 162 173 183 164 243 203 201 97 101 209 221 107 114 101 105 102 95
184 201 184 196 193 193 185 180 184 171 165 160 163 173 184 170 178 172 174 172 172 178 158 156 163 169 189 222 232 181 208 187 212 223 214 93 235 242 236 214 99 98 103 95 180 151 97 102 105
191 212 214 196 189 190 190 184 192 174 175 175 178 185 171 181 181 176 167 177 183 174 166 185 203 188 199 188 191 209 212 136 198 221 224 217 220 222 229 222 216 210 178 111 200 104 111 162 103
211 217 212 215 218 206 202 194 189 194 191 194 184 181 187 191 205 209 189 203 209 181 183 204 183 187 180 211 204 198 200 199 208 200 201 102 99 228 227 226 166 104 104 103 112 110 107 102 93
214 211 204 215 213 214 211 210 203 200 189 205 209 208 207 197 194 193 104 191 201 148 190 67 98 201 206 208 193 230 208 217 230 219 207 213 182 205 217 208 217 102 181 157 217 174 140 211 209
212 206 212 214 213 210 209 206 204 211 199 206 201 197 198 196 195 198 199 188 200 206 211 215 209 207 217 214 216 179 218 214 214 217 195 209 210 207 205 168 206 202 93 133 244 219 217 182 123
233 201 207 204 211 200 218 201 208 203 203 196 206 204 206 203 204 209 211 212 209 204 201 204 209 218 217 188 219 223 216 217 208 184 207 197 197 195 201 204 205 200 202 188 236 117 203 137 96
239 229 218 205 196 201 205 191 183 198 200 205 204 197 199 209 205 205 207 207 206 203 205 208 223 221 223 221 215 213 215 209 197 213 209 211 201 191 207 219 220 218 215 95 198 196 210 212 218
252 239 239 219 231 207 206 203 191 199 200 212 210 207 207 205 204 208 208 206 209 211 215 217 218 219 217 226 217 213 212 213 202 205 194 212 143 201 221 212 210 203 217 221 212 206 225 224 233
253 251 242 238 240 232 232 229 217 207 206 207 208 208 209 211 211 213 211 218 217 221 229 232 228 229 234 233 234 225 210 206 211 153 205 214 206 204 234 219 212 208 206 206 202 211 201 221 226
241 243 232 239 243 245 250 248 248 146 229 227 211 223 224 222 226 227 75 234 234 233 234 231 228 235 240 245 245 241 238 226 208 213 212 213 222 214 233 236 216 211 206 210 207 209 206 220 229
249 250 246 243 240 235 242 243 245 246 247 249 243 235 235 239 239 236 239 219 198 184 168 239 242 243 246 246 244 249 248 241 240 226 226 222 216 249 249 230 226 213 212 208 208 206 208 226 232
248 248 251 256 252 255 253 263 242 238 246 254 247 193 245 244 244 161 139 99 107 136 178 106 115 213 111 206 248 243 251 248 233 228 240 258 259 253 244 237 224 220 222 208 205 207 227 223 236
252 253 249 256 249 247 243 246 253 257 256 255 247 246 244 203 100 217 233 251 249 86 93 115 120 285 282 220 272 148 263 267 271 264 253 261 255 244 244 237 227 221 213 210 229 219 226 233 230
249 244 252 277 264 252 242 243 248 245 163 248 237 232 260 258 89 255 255 255 116 239 236 235 252 249 240 135 239 156 243 264 269 258 259 254 239 239 240 234 225 224 227 222 231 234 231 228 226

GFSSGP_2pvu_pres_051.txt.gz
Presure
139 136 76 88 80 139 136 140 110 109 125 100 130 132 108 120 142 116 118 139 133 140 132 132 137 136 135 109 133 135 134 142 137 142 143 148 147 135 138 127 143 144 144 139 136 149 143 150 143
107 148 126 135 140 89 132 135 143 137 142 122 108 125 97 110 115 110 126 123 116 103 132 133 110 128 130 140 134 124 139 130 124 135 130 136 139 143 148 149 134 136 131 139 132 142 142 144 132
136 154 155 96 132 135 101 148 134 86 130 131 140 99 127 128 142 120 103 131 149 128 130 127 126 111 133 133 135 132 131 129 134 136 135 138 146 135 144 141 139 142 139 139 138 137 139 100 145
155 156 146 149 129 140 125 117 145 137 145 133 132 145 128 141 111 136 96 143 133 133 144 130 138 117 109 109 101 123 135 137 135 133 120 156 141 146 143 144 142 141 138 135 144 148 143 139 144
144 152 147 145 138 129 139 113 145 94 150 127 149 134 123 136 153 128 127 135 128 104 103 146 152 132 125 151 149 132 122 143 137 135 123 135 144 138 144 133 149 142 138 144 141 144 145 143 142
167 166 143 134 148 102 138 140 130 108 114 130 126 120 121 149 131 119 116 133 132 133 103 103 129 122 141 127 131 139 134 122 144 148 130 150 153 146 142 134 154 137 148 154 150 142 142 151 153
167 166 146 141 154 157 115 143 80 99 134 132 82 112 146 126 118 139 149 94 114 145 136 160 139 148 127 126 110 121 126 124 136 130 134 132 130 135 127 120 138 139 143 143 131 170 162 141 139
166 167 159 147 151 145 157 142 142 123 82 147 146 132 93 87 137 148 121 125 150 126 148 108 118 105 138 154 152 138 99 143 149 116 136 146 137 130 119 98 125 142 153 173 161 123 162 159 177
168 165 164 148 154 165 165 150 143 154 141 83 82 76 140 147 109 137 145 149 154 123 124 166 149 155 157 128 124 164 146 142 158 164 119 150 160 156 143 153 125 169 152 169 122 150 152 163 155
183 167 164 157 161 164 158 152 155 142 141 143 140 144 83 157 160 149 89 144 162 153 128 96 144 148 145 151 161 164 154 165 153 152 171 129 147 163 159 154 163 157 168 131 102 154 169 154 114
174 178 163 160 164 172 170 168 161 162 165 163 164 162 161 153 149 150 85 159 100 121 93 149 160 153 160 158 153 138 154 164 167 162 167 164 99 171 170 166 164 165 169 105 156 153 174 176 162
162 174 180 177 164 166 167 165 164 151 116 149 157 159 160 152 147 154 160 149 163 144 159 136 128 157 145 151 163 152 157 175 170 162 165 166 169 168 172 111 169 95 101 123 111 101 102 155 176
169 160 162 183 181 180 179 174 174 170 170 168 164 145 153 151 112 112 159 151 154 150 158 152 154 151 141 156 155 156 157 152 163 168 153 163 168 152 169 174 156 140 165 162 189 177 170 135 170
175 168 175 163 163 160 165 167 172 172 174 173 173 172 166 159 154 157 150 150 143 91 169 164 121 144 156 152 160 163 160 138 119 171 156 149 157 174 178 195 159 121 191 182 203 110 134 215 196
179 172 172 175 165 166 167 162 149 155 167 95 178 177 174 173 175 175 175 173 167 162 166 153 158 158 160 108 154 155 174 165 171 175 171 100 186 177 182 176 180 118 102 127 155 208 227 174 159
218 183 177 176 177 160 164 156 156 154 159 154 158 162 170 160 154 174 175 175 178 181 179 177 167 171 175 152 176 174 171 177 171 172 172 175 97 181 168 189 124 157 176 234 96 148 212 142 238
220 209 203 187 194 198 171 164 162 167 169 162 167 176 161 163 166 165 169 172 132 173 170 174 178 146 167 175 167 161 154 162 171 174 176 168 179 199 193 95 222 218 235 227 187 105 99 101 203
184 215 217 208 226 71 179 167 175 178 182 175 188 168 176 171 169 169 170 169 176 177 171 168 172 177 182 165 162 163 169 178 178 190 184 191 179 190 213 201 209 214 132 210 229 196 104 103 103
215 215 212 175 207 207 202 180 175 179 174 175 176 180 170 169 171 168 161 174 165 123 100 165 180 184 180 180 176 165 186 183 181 199 193 195 89 89 202 216 211 218 228 226 218 215 99 227 227
203 213 208 192 201 207 209 205 193 196 196 196 195 197 190 184 187 175 177 174 178 181 180 187 193 191 203 202 199 212 195 210 196 201 205 205 226 224 218 215 214 211 209 204 217 218 104 103 99
197 201 220 213 208 210 188 198 195 192 195 201 191 189 184 186 187 190 190 195 193 197 210 197 204 212 203 204 198 214 196 201 209 211 209 200 200 194 210 180 198 198 195 202 93 153 204 212 215
224 207 214 218 216 214 207 174 176 202 204 209 210 205 205 205 200 197 200 202 207 196 202 212 211 210 212 206 208 211 213 213 196 195 106 223 216 215 216 209 207 198 199 200 202 226 195 209 228
244 229 214 200 216 218 221 212 209 204 211 212 210 209 206 208 210 213 213 205 215 214 209 204 210 212 213 212 209 206 209 210 209 209 211 223 207 222 220 215 217 205 203 191 203 183 209 224 222
263 253 243 222 224 205 215 211 206 198 209 210 217 215 211 213 220 209 214 213 213 211 211 214 211 211 205 204 211 208 204 206 209 209 221 209 203 218 202 207 196 208 199 201 202 203 207 222 224
249 265 263 246 244 226 215 210 92 205 208 208 207 214 211 208 215 213 213 202 202 206 215 214 212 212 213 214 215 215 216 208 211 223 221 216 218 213 218 214 195 196 190 199 201 207 209 210 223
246 269 273 260 250 240 235 228 222 215 212 211 210 210 211 212 210 208 206 203 215 216 219 219 213 207 209 214 215 212 230 227 232 225 220 215 219 223 223 186 189 203 211 211 208 207 221 213 226
244 250 249 255 259 258 245 239 238 235 231 226 218 218 220 221 219 221 223 224 224 221 219 228 233 235 238 241 241 243 240 233 228 229 234 233 229 229 225 172 171 233 214 221 209 215 213 217 234
245 241 239 248 254 247 250 254 246 240 242 247 160 249 250 261 260 260 256 253 253 251 200 180 184 141 119 203 241 240 244 244 243 240 241 242 240 240 244 171 244 245 236 220 215 226 229 232 144
254 257 245 239 238 254 249 249 252 251 251 250 253 257 266 232 273 265 262 260 255 206 96 101 88 149 109 258 167 134 165 257 199 243 116 167 237 181 230 226 209 226 233 249 252 247 241 237 230
262 261 264 261 251 246 256 255 258 264 266 262 255 260 254 250 249 247 250 252 248 262 269 265 273 281 244 280 100 99 133 166 210 219 268 274 140 273 263 263 256 273 247 253 248 242 234 229 223

GFSSGP_2pvu_pres_054.txt.gz
Presure
152 140 157 108 128 139 151 95 139 89 89 110 94 133 105 102 107 107 109 115 145 121 126 139 137 139 132 110 148 145 134 131 143 122 126 151 130 151 153 141 147 141 137 143 149 157 147 150 149
128 115 151 156 142 87 146 155 89 100 142 117 136 132 115 126 122 133 138 122 120 114 139 130 135 130 134 138 136 138 141 139 140 129 135 135 141 139 144 143 144 146 141 141 136 143 140 141 138
146 136 141 149 109 106 89 148 147 143 142 132 123 104 118 133 111 133 133 131 106 121 138 144 127 138 117 127 139 134 127 127 127 127 126 140 135 135 136 140 142 141 146 137 128 136 142 139 141
155 160 146 148 130 148 144 148 147 140 133 136 134 137 125 148 150 95 146 98 113 121 137 108 142 118 110 127 125 112 134 138 138 135 139 134 130 133 126 131 135 142 142 148 144 149 140 137 141
149 162 149 141 131 137 149 143 141 161 143 143 137 142 132 95 137 130 128 106 139 95 136 132 138 138 131 131 134 125 125 134 136 133 134 135 141 137 134 140 135 141 142 143 150 133 138 138 156
156 156 139 145 132 140 148 136 110 149 120 135 139 143 141 138 131 130 127 132 114 141 126 127 119 134 142 131 116 138 138 134 134 126 140 147 144 140 125 121 141 126 130 141 158 154 144 143 147
162 166 146 151 134 146 139 146 149 136 122 135 144 149 140 145 143 130 139 138 140 126 148 146 133 129 144 104 148 124 149 123 118 129 117 110 134 117 121 117 135 133 139 117 111 104 153 139 146
175 168 170 144 146 163 142 134 152 132 107 96 87 94 133 141 151 134 144 148 134 146 150 118 116 103 137 130 145 137 162 131 138 155 132 149 132 139 135 167 110 156 158 115 149 154 153 152 147
176 179 162 151 147 147 142 157 148 134 83 147 134 120 142 77 129 83 133 133 101 130 99 108 124 145 126 161 127 120 119 126 142 111 141 125 151 149 159 152 140 159 164 157 134 154 152 168 173
179 170 164 162 156 160 156 145 145 147 136 146 138 84 78 138 144 109 137 151 150 142 134 140 137 151 139 161 117 131 122 170 154 147 160 160 150 164 158 134 166 146 147 173 173 155 139 171 125
173 181 161 166 89 168 168 156 147 133 147 148 153 149 139 130 151 141 156 140 141 116 141 157 142 150 147 145 161 159 165 154 163 151 147 156 155 144 164 165 168 159 173 166 172 174 166 171 117
176 169 177 176 174 169 165 166 166 149 140 146 141 150 150 136 142 119 119 101 115 147 142 159 159 119 130 160 101 95 148 158 163 165 166 147 134 169 163 166 162 170 180 170 155 149 173 164 179
167 169 182 184 173 178 173 165 165 159 154 150 154 155 153 147 147 151 141 144 145 123 167 161 125 148 113 158 154 155 151 90 129 153 134 150 142 157 163 165 161 163 168 178 164 169 190 189 183
182 144 167 184 190 174 176 151 162 157 162 148 152 157 154 148 148 126 158 165 163 164 168 160 151 150 161 165 158 155 150 151 151 144 170 132 101 152 164 103 165 183 166 184 182 175 139 152 102
190 178 181 176 183 183 184 177 162 94 158 159 160 104 156 161 146 149 146 147 152 157 157 159 156 153 152 154 154 153 151 154 154 152 157 164 163 172 164 179 181 103 185 175 184 190 172 201 102
222 196 177 173 164 178 183 182 174 175 180 176 158 159 157 157 160 163 168 171 177 178 178 175 172 169 170 176 178 176 178 179 177 170 183 171 178 180 179 176 163 152 181 185 182 203 195 215 224
204 191 186 178 178 173 171 169 167 176 178 181 180 173 174 173 173 174 177 178 174 174 176 176 177 177 181 180 181 178 178 172 176 175 178 180 172 176 180 175 183 176 212 186 207 157 226 219 221
216 221 193 186 180 181 173 170 168 169 173 169 178 179 175 159 167 165 166 153 153 159 163 163 166 168 165 169 172 169 167 166 173 167 171 175 181 177 188 187 197 198 201 196 210 210 206 231 224
214 214 224 218 202 190 125 164 171 170 169 175 168 163 163 165 165 160 158 159 159 163 165 161 162 162 165 170 164 67 172 180 179 176 162 178 176 199 199 204 194 198 202 208 211 228 214 203 199
227 224 187 193 216 220 210 185 171 172 174 174 173 173 166 168 165 165 161 161 166 168 164 165 169 177 173 172 176 175 181 172 177 184 192 201 201 193 202 199 202 199 213 194 206 233 218 213 205
226 225 216 217 171 182 222 224 202 185 186 176 179 179 178 177 186 164 169 170 172 176 178 180 181 181 184 200 189 188 193 199 199 210 202 161 203 205 201 209 217 207 201 204 205 208 215 214 212
232 226 229 209 223 217 207 171 216 217 210 187 191 190 207 213 203 197 182 175 174 180 187 197 198 203 194 193 197 202 202 203 200 209 219 213 212 211 204 208 206 194 203 207 212 226 204 210 202
245 231 229 221 218 223 212 213 212 215 211 213 218 216 211 210 208 207 204 207 205 201 205 209 210 202 210 212 211 210 206 208 208 204 208 214 214 210 214 200 206 211 203 195 218 213 207 214 211
271 238 229 223 220 222 218 206 195 213 217 218 190 188 202 210 214 209 206 204 205 210 212 215 210 210 212 212 212 215 214 212 206 200 208 207 209 212 205 213 202 197 203 207 213 213 213 203 212
270 272 234 228 223 217 217 222 213 204 210 214 214 208 204 215 207 213 207 217 214 219 219 209 215 212 208 210 209 207 210 210 206 135 207 209 209 208 203 205 203 205 222 224 216 212 210 219 213
253 275 266 265 231 224 222 216 220 208 202 200 224 220 216 209 218 219 217 192 216 223 217 214 216 212 209 213 208 207 214 214 213 216 217 213 212 208 205 217 223 227 229 221 216 216 219 227 219
253 259 263 258 263 239 242 232 223 219 208 216 217 217 215 212 220 221 218 211 220 221 218 209 220 221 219 217 221 222 223 224 215 223 224 222 218 223 229 233 235 232 218 222 223 226 221 225 231
254 251 265 264 254 252 256 261 259 161 232 222 219 219 221 225 217 220 229 232 230 227 225 224 230 230 230 178 177 132 247 246 180 266 256 252 248 239 183 181 220 217 191 230 225 93 230 213 212
258 257 253 257 259 254 246 265 270 273 212 264 246 241 241 244 245 245 247 250 250 252 258 205 270 186 146 155 101 100 194 116 273 239 261 224 129 135 247 216 196 169 233 214 142 221 218 224 223
240 247 246 252 247 253 241 249 254 253 264 260 256 259 257 258 263 266 261 261 259 270 267 267 269 274 278 270 274 281 285 281 109 107 105 134 133 168 135 119 242 120 145 236 248 244 261 245 240

GFSSGP_2pvu_pres_057.txt.gz
Presure
153 145 137 82 153 142 144 100 83 137 120 138 135 137 116 116 106 117 106 141 101 107 138 142 144 122 145 98 153 139 133 135 135 142 156 151 152 147 114 124 148 152 157 158 150 150 151 141 136
148 151 137 145 141 148 150 127 130 111 137 115 119 146 140 136 138 103 112 102 120 132 136 107 140 142 121 147 152 151 152 150 150 151 144 142 142 143 136 154 133 155 143 143 149 147 136 135 149
152 152 149 145 131 97 158 144 133 144 138 79 136 99 120 104 141 124 110 108 111 123 130 126 131 117 134 136 145 113 95 119 133 128 141 138 141 143 137 141 144 142 133 129 137 147 134 135 139
159 147 154 147 151 139 90 80 83 148 155 130 132 127 90 128 139 135 139 146 124 142 142 122 109 133 141 135 132 145 141 126 139 112 107 142 140 144 137 134 133 127 142 134 139 141 140 142 140
152 161 161 145 142 147 157 140 89 130 143 148 144 146 121 134 105 126 96 134 126 121 123 137 127 114 119 142 116 130 117 125 119 125 124 130 130 128 139 142 138 134 137 118 122 129 135 130 157
164 156 151 151 138 154 132 154 142 87 116 143 139 134 127 132 138 124 143 98 131 140 143 108 100 124 142 107 138 134 123 141 135 131 141 141 135 142 143 126 134 119 117 143 127 140 137 141 127
169 155 143 155 158 152 150 95 131 140 93 97 153 138 135 139 139 129 134 136 140 141 151 127 130 133 146 128 143 135 144 142 133 131 132 112 148 142 134 132 126 132 133 142 145 123 130 150 162
170 168 150 144 151 160 150 142 141 155 122 97 83 142 143 141 147 142 89 123 135 132 135 128 142 131 126 128 128 129 128 131 131 121 137 149 134 107 164 124 132 158 154 135 153 119 160 156 167
181 168 164 147 153 149 155 155 145 146 143 126 133 144 153 140 140 143 133 148 143 123 136 108 121 138 129 123 146 151 112 116 120 136 135 130 130 133 113 105 141 151 159 115 150 154 160 162 158
165 175 159 156 160 154 156 153 152 144 142 144 139 139 135 147 110 99 122 150 151 145 136 152 143 129 129 149 131 127 131 132 140 154 135 160 164 140 144 158 173 149 147 148 145 160 155 162 171
147 160 168 165 162 172 160 151 158 135 143 146 139 139 124 142 76 143 117 136 142 140 146 129 123 131 135 148 143 145 140 147 150 142 98 145 153 160 112 167 169 167 170 168 153 159 163 166 168
161 175 167 171 172 170 172 174 147 143 149 147 140 138 139 141 97 141 151 92 93 139 96 143 145 140 155 158 147 128 137 143 158 165 158 153 91 163 152 154 133 162 148 109 158 154 159 162 167
182 166 160 167 178 180 172 165 166 158 150 150 143 150 133 154 156 145 136 151 147 142 127 91 91 89 124 141 129 143 143 118 163 169 152 134 142 165 94 167 107 153 163 174 112 138 164 169 168
201 177 181 159 168 155 180 169 165 155 154 153 145 143 143 142 144 140 149 143 157 155 120 129 141 145 155 88 143 150 156 170 167 159 150 153 159 156 158 159 154 159 164 175 175 182 173 182 181
181 195 174 179 156 146 173 176 168 178 171 153 153 144 145 146 144 147 146 143 146 143 151 149 148 150 147 145 148 163 155 152 156 159 149 151 154 161 185 186 186 188 188 188 183 183 186 166 182
212 181 186 181 176 154 178 171 171 176 86 170 169 166 163 154 153 155 154 155 151 156 157 152 153 156 146 157 153 145 150 175 176 174 176 178 184 189 184 184 179 182 183 181 179 177 180 216 190
215 206 173 181 192 175 176 174 175 176 180 179 174 171 163 158 163 166 167 167 157 155 152 156 152 164 157 156 170 173 177 178 176 184 182 174 174 170 172 176 174 175 183 187 173 172 194 195 199
217 196 183 192 168 191 183 175 174 174 178 177 182 177 176 175 164 162 161 162 163 163 163 164 163 162 171 174 172 177 169 168 162 162 165 174 167 169 176 175 185 175 104 175 182 217 207 205 196
184 202 193 191 202 160 192 186 186 154 162 179 184 190 178 176 175 168 168 170 172 173 170 173 174 178 180 178 163 162 161 163 163 169 168 167 173 182 187 186 186 189 191 202 129 212 204 204 203
236 223 207 194 221 200 185 194 95 195 187 174 176 183 187 185 179 180 179 177 179 180 181 182 184 178 165 166 161 161 169 168 171 176 179 178 181 183 202 190 193 204 203 201 214 202 199 206 212
241 227 226 208 204 227 219 183 190 188 184 183 173 171 172 169 170 171 170 168 165 165 172 168 161 167 165 164 167 171 172 171 177 181 181 196 200 200 189 205 206 204 205 211 204 207 205 200 201
252 239 229 195 222 203 185 215 222 191 188 180 174 176 175 170 177 177 116 167 170 171 171 171 170 172 178 177 182 188 178 180 181 190 204 203 206 203 208 211 203 207 205 202 198 201 204 203 202
275 243 240 234 223 231 194 181 172 217 196 193 189 187 184 180 177 176 176 178 176 171 172 178 181 182 182 185 202 201 189 187 206 199 208 214 210 205 206 209 209 207 210 203 203 201 208 206 198
281 267 245 233 231 225 223 195 194 221 225 230 207 198 200 198 223 205 186 182 186 186 182 180 190 189 203 209 207 212 213 205 206 210 211 204 209 209 206 209 207 208 196 196 206 202 200 198 202
274 294 263 250 236 230 221 221 158 218 223 224 198 167 167 163 167 189 222 220 221 186 213 218 218 212 209 220 215 213 212 220 214 218 214 214 218 211 195 213 215 214 209 207 204 196 201 206 217
279 267 275 260 254 235 229 225 220 223 223 227 218 222 223 221 225 222 220 219 224 224 225 219 214 211 226 215 218 220 219 213 214 219 221 218 219 218 219 215 213 213 208 208 204 203 201 206 223
277 273 268 274 263 248 247 236 233 227 226 229 224 222 218 226 220 216 206 204 202 217 218 223 223 215 207 212 213 158 227 223 220 225 223 221 209 185 218 195 222 198 214 210 206 221 229 222 225
252 266 261 261 265 270 260 244 242 230 232 173 228 222 225 224 222 220 225 226 221 221 217 217 218 220 223 222 231 234 182 181 236 239 232 235 235 232 159 115 144 157 180 169 239 237 223 226 222
270 263 256 252 256 259 263 274 264 224 132 237 234 229 224 223 222 221 221 222 221 220 221 225 226 232 237 259 263 265 268 271 165 140 294 293 266 285 276 112 109 185 244 166 158 166 137 209 151
274 266 261 257 261 263 261 261 265 266 265 263 266 224 225 226 228 230 232 235 241 243 246 250 262 265 267 270 284 292 290 291 291 301 302 301 296 288 271 274 264 257 251 245 240 234 234 187 225

GFSSGP_2pvu_pres_060.txt.gz
Presure
147 136 156 144 80 143 140 120 140 145 124 142 138 133 143 139 153 102 142 125 137 145 150 117 122 141 145 112 110 167 149 147 141 135 144 107 142 141 130 139 159 127 126 104 134 149 148 147 144
148 152 153 157 137 82 137 142 107 89 134 144 141 146 143 123 145 111 107 100 119 111 134 106 114 102 124 124 132 125 150 149 147 143 141 137 146 144 131 129 144 148 149 156 157 137 130 134 137
146 142 149 150 146 152 87 152 136 143 89 92 100 104 141 129 150 145 120 113 103 108 102 133 110 105 125 130 118 150 146 122 133 140 115 131 149 151 151 146 140 139 135 131 130 137 123 132 116
153 139 143 139 153 127 100 133 146 131 144 133 130 121 119 140 146 147 132 146 104 119 141 114 122 117 105 123 117 103 136 139 136 141 148 144 147 107 110 133 125 125 125 111 122 134 119 118 107
158 149 157 147 146 132 141 128 117 145 131 143 146 101 97 144 95 140 142 107 127 119 143 109 142 138 140 136 124 127 112 129 125 113 135 135 135 135 127 141 141 138 125 136 133 126 114 116 127
158 157 150 143 140 148 152 141 144 96 133 132 144 140 136 116 141 111 125 145 138 128 138 127 139 120 136 123 124 141 127 125 140 140 120 128 138 132 126 131 136 123 130 145 140 149 138 141 146
175 162 149 141 141 96 149 151 150 151 89 90 132 140 146 135 128 84 135 140 136 101 133 130 133 129 139 137 141 108 131 133 129 126 141 127 132 107 131 116 133 116 136 121 125 126 148 154 129
175 169 158 69 156 150 152 84 149 123 146 140 95 106 136 139 146 141 132 138 145 140 142 98 137 139 98 139 133 135 127 140 142 127 149 126 125 140 136 114 129 110 107 133 130 144 145 169 128
175 169 162 157 158 161 155 105 147 144 133 111 149 138 96 82 143 132 131 149 153 95 130 118 128 118 93 144 127 130 132 147 118 98 122 99 106 115 114 133 147 120 146 155 161 147 155 157 162
165 174 160 159 163 164 161 157 148 149 148 152 151 137 142 144 117 103 133 134 139 125 87 106 142 137 145 140 130 137 141 137 145 140 122 112 131 103 140 140 148 142 144 161 156 162 163 150 150
144 162 152 167 166 161 158 161 155 155 146 146 154 146 146 147 128 136 136 139 127 143 146 149 148 136 111 144 139 140 147 151 126 126 132 147 146 145 149 141 149 154 104 156 150 161 167 162 171
186 146 169 149 171 168 166 157 161 148 154 144 146 154 155 135 148 155 71 78 90 121 137 134 136 125 132 135 128 140 142 128 133 136 100 156 142 146 145 145 145 169 167 158 153 163 158 159 127
190 179 156 162 175 174 171 162 154 146 152 155 151 142 144 103 149 145 134 131 153 133 121 146 82 108 116 133 123 137 137 144 145 147 141 144 146 144 120 103 163 147 166 154 159 155 159 173 189
174 189 177 158 170 173 176 167 160 158 150 138 154 155 154 149 151 148 144 142 147 141 140 141 122 149 144 148 149 120 123 125 142 122 143 110 151 132 95 165 101 150 172 153 175 180 195 188 175
200 179 190 177 173 62 179 67 78 170 159 153 144 140 147 159 140 142 146 146 144 143 136 143 155 157 138 142 137 157 155 157 151 149 83 149 152 154 162 150 170 183 183 184 197 174 170 169 176
202 190 196 177 177 165 180 176 178 171 174 157 156 153 151 143 159 153 144 156 146 145 149 142 142 145 142 142 148 143 143 146 145 153 143 147 163 164 159 178 183 178 174 163 166 172 169 175 185
190 202 192 173 193 183 171 176 178 178 116 161 165 164 160 155 153 153 152 151 152 146 145 143 144 143 150 152 151 153 151 152 154 156 156 159 170 165 179 172 170 158 168 170 170 175 177 181 192
204 185 200 194 177 166 186 172 183 173 178 180 171 160 169 163 171 164 140 155 65 151 151 151 151 147 145 153 156 136 154 156 152 158 162 159 168 178 179 164 161 164 168 172 179 177 157 206 196
225 204 211 206 193 185 171 182 173 176 158 174 180 182 181 167 161 163 165 161 161 162 161 160 161 161 159 157 165 167 169 167 160 160 175 187 189 181 163 167 170 169 172 177 180 197 203 196 204
241 225 213 224 202 190 192 186 66 176 178 179 164 171 167 172 176 172 173 173 174 174 176 91 166 164 163 165 162 163 171 174 180 182 183 187 171 167 163 168 164 188 200 186 196 199 214 207 205
265 242 229 222 223 201 195 192 190 188 179 172 178 176 176 171 175 177 173 173 176 180 183 184 182 180 180 180 181 181 179 170 171 177 179 171 169 178 183 180 188 204 195 203 200 207 207 201 201
250 257 228 232 229 228 205 191 199 189 190 181 185 180 173 174 176 182 171 176 179 175 183 182 182 182 177 182 183 184 184 174 173 166 180 182 181 190 207 189 208 207 207 201 209 210 207 207 205
274 238 265 227 233 221 227 230 201 203 194 170 164 155 165 187 186 184 183 179 175 175 172 172 172 173 171 169 170 175 176 180 168 180 176 183 188 186 204 207 210 211 204 205 206 210 197 212 209
281 264 244 267 229 233 222 209 232 225 190 198 200 196 192 176 168 195 191 173 183 192 179 176 170 176 179 170 177 179 178 176 153 186 190 187 196 218 207 168 210 207 205 207 201 205 200 203 202
295 270 266 248 270 227 232 231 207 228 211 216 188 204 206 198 195 183 193 193 191 187 183 185 186 186 183 188 198 195 213 213 211 196 194 219 214 204 212 214 212 158 214 210 199 203 202 194 195
300 285 268 262 269 232 230 225 234 228 223 204 203 226 192 169 206 206 207 226 206 202 199 191 198 191 171 213 219 225 164 225 219 223 220 216 189 170 211 210 213 216 221 217 210 211 207 208 209
289 289 281 270 244 258 258 244 226 227 235 230 223 222 222 227 193 184 185 231 231 235 237 229 225 230 190 202 229 219 194 201 205 193 195 221 224 222 221 221 163 211 220 222 220 119 108 111 159
287 275 273 283 281 281 267 254 258 231 227 228 228 231 228 232 233 230 227 226 224 228 232 228 223 224 227 230 227 225 229 231 219 212 221 231 236 234 231 219 226 228 221 120 202 222 216 193 222
298 285 263 304 282 270 280 263 254 255 248 236 229 179 227 226 228 230 224 223 226 225 227 230 225 223 232 231 220 224 231 233 244 247 247 280 282 248 295 292 284 274 268 150 197 253 253 254 253
269 270 271 282 264 261 262 267 265 264 259 250 242 240 239 232 227 228 232 231 225 223 225 226 228 232 242 237 233 235 282 287 288 288 293 303 307 308 306 303 297 293 286 277 269 261 257 252 250

GFSSGP_2pvu_pres_063.txt.gz
Presure
157 145 150 80 148 141 186 88 104 151 143 126 160 138 149 142 133 149 142 121 110 131 141 119 124 136 142 154 144 146 145 145 159 167 170 169 171 125 94 142 137 125 116 139 159 153 149 149 135
151 163 136 143 80 136 156 130 80 151 131 136 138 144 94 101 143 147 157 138 117 165 117 122 129 110 151 140 103 149 160 134 143 156 159 162 153 143 125 149 140 129 150 148 142 136 127 126 135
156 163 155 142 153 93 123 148 102 90 144 138 129 133 148 143 145 147 159 116 141 125 152 109 109 121 155 127 146 128 149 137 96 135 147 110 141 146 139 157 146 151 127 137 110 139 147 118 141
159 161 130 151 134 133 142 150 84 111 113 150 143 105 146 135 162 100 149 142 143 99 102 148 152 131 105 103 108 125 128 142 104 113 151 96 102 104 153 106 134 142 107 136 129 138 137 133 139
163 151 153 158 146 141 146 132 84 134 92 126 131 103 104 150 138 143 146 144 141 152 141 137 129 98 141 137 140 97 145 140 103 112 136 147 142 126 134 136 140 124 128 142 145 127 131 125 139
160 143 148 149 143 149 142 144 109 142 137 98 136 115 150 127 109 141 119 123 143 116 125 134 140 142 124 137 142 136 131 125 139 130 139 120 131 113 130 133 142 131 120 122 116 142 120 120 124
179 176 146 140 157 151 157 153 151 142 130 111 80 134 118 106 135 143 104 145 141 143 108 108 102 132 124 128 144 112 138 138 134 123 138 133 123 134 143 133 139 127 108 132 116 129 108 128 143
180 180 163 157 152 162 152 156 159 149 145 133 90 156 127 89 87 82 78 127 96 140 134 149 131 138 136 142 135 140 142 132 137 140 138 135 130 129 126 124 123 106 138 111 134 96 128 150 148
186 168 159 137 155 155 161 121 144 124 155 142 138 136 118 136 133 146 149 145 138 148 143 133 137 126 120 134 133 129 123 131 112 128 114 142 128 140 131 147 132 117 121 131 142 141 140 142 150
188 163 171 150 157 152 157 147 143 110 158 140 144 151 133 134 91 107 142 139 142 145 140 119 145 88 107 108 101 148 115 94 144 136 146 150 137 136 143 139 111 128 137 153 148 130 146 146 153
176 148 174 149 171 163 139 148 153 142 147 146 147 143 113 152 140 118 125 149 144 144 143 127 129 133 82 151 134 141 134 139 127 140 142 137 136 137 129 130 132 126 146 148 145 144 152 152 157
184 170 143 177 163 173 163 150 146 150 144 85 156 143 140 140 150 155 131 144 136 141 138 140 154 145 141 149 139 133 141 147 125 125 112 138 85 138 138 141 118 148 148 147 120 151 145 154 158
191 187 173 148 174 149 166 162 148 147 147 143 149 146 155 143 140 152 153 145 133 139 134 135 133 142 119 145 147 135 112 131 144 139 133 133 135 96 141 143 142 142 144 147 150 150 155 160 154
180 183 180 174 142 178 168 175 165 157 150 145 144 150 147 149 150 147 120 152 89 113 77 145 138 136 125 136 101 96 140 132 94 133 93 131 136 150 154 150 155 154 152 147 109 160 155 160 132
205 176 187 170 173 163 163 176 169 160 153 154 149 151 154 149 143 157 144 145 149 140 142 149 146 155 138 141 69 145 140 139 141 143 149 153 147 143 143 142 146 153 155 156 159 160 166 163 180
211 194 176 188 175 172 133 135 178 174 162 154 159 155 154 155 154 158 150 154 145 159 146 147 140 145 138 150 142 150 138 139 140 108 149 153 144 149 153 155 157 153 160 156 161 160 164 179 174
225 214 191 171 185 179 178 171 180 71 75 154 165 151 152 163 150 160 154 153 150 145 142 145 144 146 141 142 143 143 144 146 149 141 149 152 156 154 156 158 161 161 163 163 157 173 188 188 159
222 226 187 193 168 185 187 155 170 148 181 173 167 153 160 155 155 155 152 154 154 158 156 152 154 152 149 145 143 148 149 150 154 97 152 152 153 159 162 161 163 170 163 167 184 184 186 167 167
216 229 210 190 194 189 177 185 176 181 171 170 181 170 168 160 161 156 161 160 155 75 76 149 129 153 159 158 154 153 152 153 149 150 160 160 159 164 165 169 163 170 178 181 177 179 179 181 187
233 230 221 221 188 190 197 165 191 184 175 187 170 168 168 170 166 160 161 162 160 155 154 154 153 153 154 159 160 161 165 168 163 159 159 170 169 164 168 171 173 187 185 177 174 181 177 188 180
254 221 219 228 203 202 181 126 168 163 186 183 178 177 172 169 170 168 169 166 170 164 162 162 164 165 163 166 173 163 165 169 169 172 174 182 186 185 188 188 186 172 179 180 181 169 189 182 208
266 240 214 211 221 213 208 185 193 185 167 171 187 185 172 167 171 172 171 171 171 172 171 172 170 172 173 171 173 174 177 176 178 188 188 192 191 188 187 180 178 179 181 166 163 212 187 201 215
327 237 230 214 216 218 222 203 185 190 192 174 167 152 152 182 181 169 163 178 171 148 173 172 176 180 178 178 187 187 184 179 169 182 180 180 188 185 179 180 187 199 218 207 222 210 217 215 213
309 309 238 225 218 220 215 220 188 182 190 192 189 180 172 159 152 179 175 169 169 173 175 165 177 173 184 172 175 179 177 188 189 192 199 182 179 192 194 203 196 213 212 226 226 222 218 204 213
319 305 297 274 226 219 217 217 219 214 206 187 193 189 187 186 188 188 148 147 148 175 176 180 161 160 174 173 174 188 194 194 192 177 194 192 191 187 171 183 202 199 228 218 206 206 195 201 207
296 314 299 292 281 240 219 207 218 222 220 205 225 198 189 189 186 184 189 188 187 150 176 186 172 177 186 192 192 181 192 196 199 202 199 197 195 197 184 238 236 225 219 228 231 227 133 214 144
297 300 314 287 295 263 247 246 210 219 220 227 231 209 227 200 195 189 185 186 197 201 196 193 194 195 197 200 198 168 182 189 234 233 239 238 233 227 228 230 228 225 102 226 215 210 224 98 219
323 322 306 302 287 288 269 249 251 236 227 219 220 226 228 235 240 235 209 207 206 204 204 191 190 192 190 187 184 181 178 186 237 231 231 234 232 228 233 234 234 89 166 246 249 256 253 251 251
297 299 287 311 298 270 277 277 252 253 234 241 227 220 223 221 223 227 232 233 232 232 232 217 207 233 233 235 236 236 232 229 230 232 236 240 246 248 276 280 310 305 302 297 294 286 278 277 269
290 297 290 279 299 283 268 266 261 257 252 237 226 248 224 220 218 223 227 232 238 237 237 236 236 233 234 229 233 227 237 245 247 246 266 288 283 269 293 378 389 385 296 293 290 280 282 279 280

GFSSGP_2pvu_pres_066.txt.gz
Presure
167 88 82 119 79 81 88 131 84 133 118 134 131 143 148 147 143 150 120 106 119 148 124 122 121 120 124 134 111 150 155 145 141 132 140 154 140 166 175 160 87 111 132 165 128 142 138 124 150
162 96 109 134 125 157 122 79 152 87 143 134 121 140 146 155 140 148 123 153 124 149 111 139 117 118 132 139 123 133 145 152 143 144 147 116 168 147 165 164 163 165 162 144 150 135 155 152 144
158 162 149 142 149 158 112 147 167 140 99 143 144 127 148 148 135 148 155 150 104 152 146 132 111 122 118 106 130 133 116 107 124 107 140 154 163 158 156 147 118 144 134 132 154 132 118 137 138
169 156 165 162 153 153 158 77 85 83 122 79 138 150 87 141 140 147 140 138 149 139 149 137 121 118 126 132 108 109 152 133 111 109 111 101 145 107 130 144 103 147 151 155 143 124 134 125 133
159 167 164 159 156 142 156 154 82 107 112 160 138 111 153 131 133 136 139 144 158 143 139 153 149 162 122 123 146 142 141 103 127 123 144 103 147 143 145 123 125 124 126 147 137 130 121 135 141
186 154 157 151 163 151 155 156 127 80 83 162 149 129 113 149 83 148 142 139 150 149 143 151 147 103 122 138 140 104 138 165 117 146 137 112 131 125 110 138 130 118 128 133 125 126 115 127 112
147 178 163 154 154 163 150 157 159 133 123 91 137 132 143 138 152 121 149 142 152 150 147 152 150 107 128 147 130 132 124 120 129 119 129 139 135 111 137 148 134 134 124 143 128 143 109 115 140
178 145 177 168 158 164 143 157 157 144 67 139 125 135 133 150 140 130 128 152 142 157 136 134 144 149 154 94 120 140 106 148 99 143 147 148 133 130 133 126 123 138 141 131 134 110 133 132 122
181 164 173 166 165 159 156 148 160 131 150 138 145 148 137 103 105 116 142 96 102 144 101 93 103 133 124 141 130 149 141 135 141 123 111 115 126 123 128 127 129 113 132 132 115 137 135 127 134
162 186 174 150 157 163 167 155 150 160 147 123 147 165 147 157 131 133 119 124 118 92 88 152 110 141 135 141 139 133 143 122 112 140 120 141 139 120 116 133 135 140 141 136 137 102 137 140 144
155 164 180 175 153 175 169 138 133 147 113 153 147 121 155 126 92 113 130 156 148 136 142 135 140 149 133 136 141 119 96 100 88 120 149 129 95 129 141 126 145 131 132 132 126 134 134 143 143
192 169 185 177 154 167 167 155 148 146 156 158 157 157 148 143 153 143 114 130 78 134 134 138 137 144 142 144 147 148 136 139 142 134 145 149 135 88 124 125 142 141 134 133 139 145 148 100 158
162 197 187 191 174 154 164 155 157 152 156 160 149 145 148 149 156 144 140 140 149 151 142 112 115 134 135 81 148 139 143 143 139 136 138 140 142 131 127 150 104 100 148 149 156 148 144 157 155
227 198 186 186 181 183 172 161 157 162 158 149 152 158 148 144 144 157 151 141 145 143 141 151 151 150 118 138 134 137 132 115 109 89 82 134 113 124 96 116 142 143 143 150 152 151 154 154 156
223 187 212 184 186 144 184 181 182 164 151 148 150 161 156 147 146 144 149 143 153 152 147 143 138 153 136 150 152 147 147 149 149 81 148 137 150 141 147 149 141 142 144 147 152 153 153 152 159
245 206 210 172 185 182 73 184 180 169 161 156 153 148 146 144 146 153 154 153 157 140 77 141 118 141 156 157 145 142 143 98 148 144 152 145 145 145 144 145 146 143 153 153 155 151 162 160 159
258 209 200 196 177 187 179 139 173 140 159 148 158 153 152 148 148 153 152 150 145 150 152 116 147 148 144 142 140 142 148 145 147 144 144 150 150 143 141 152 154 154 158 148 162 150 163 164 164
274 250 188 186 193 153 187 180 192 103 159 157 168 159 159 150 150 150 150 149 148 150 150 149 136 151 154 140 141 144 152 145 146 151 153 152 153 154 153 156 146 158 162 152 162 166 171 170 178
273 257 232 188 178 193 196 184 185 176 192 120 168 168 157 159 159 158 151 152 156 153 152 151 152 152 148 144 151 153 154 153 153 151 151 154 160 161 164 164 160 166 167 170 170 174 183 199 190
382 275 245 218 190 204 191 193 183 188 180 195 183 146 164 161 160 161 158 160 154 146 149 150 151 152 83 80 152 151 153 158 161 159 154 160 162 161 165 171 176 174 173 177 184 188 187 183 178
357 318 260 254 207 189 201 193 178 182 185 174 179 183 177 169 164 163 159 161 162 161 163 161 157 156 84 151 153 155 156 157 162 164 164 164 167 171 171 172 176 178 186 183 172 179 180 192 175
339 363 263 260 224 203 195 191 196 184 178 180 197 180 173 175 141 157 168 165 166 163 164 163 162 161 162 161 162 160 162 163 161 164 171 174 178 181 183 188 176 174 176 184 189 195 200 198 199
343 344 358 241 242 230 213 202 190 195 184 169 162 193 187 184 167 169 175 176 177 173 169 169 168 169 172 173 171 172 173 174 172 175 182 173 171 171 186 180 181 191 195 165 193 201 213 211 216
300 346 278 307 246 220 217 226 199 195 193 186 184 183 160 161 177 187 181 175 169 168 170 171 162 169 172 178 181 174 177 181 180 176 154 178 179 178 171 181 187 203 204 218 178 220 172 231 237
328 344 336 336 274 240 227 220 215 208 196 184 186 186 188 189 177 157 157 172 185 185 182 181 180 173 169 174 179 167 174 182 174 178 152 175 190 193 194 201 203 179 212 194 220 246 226 243 239
299 351 325 337 326 301 234 231 209 210 217 204 189 185 185 179 179 182 189 187 164 162 162 165 168 172 171 174 151 151 177 183 152 178 190 158 195 193 173 200 190 192 234 242 237 249 245 246 250
311 311 339 319 326 261 293 230 230 205 215 226 220 194 190 187 188 188 184 182 182 181 181 180 174 178 173 170 172 180 178 187 185 185 194 190 196 203 199 205 240 239 242 240 248 258 235 280 288
295 300 316 327 326 302 292 272 239 223 215 216 223 227 216 205 195 199 201 183 178 180 182 184 186 187 183 181 174 182 177 189 192 187 200 199 204 227 209 237 239 237 251 279 289 304 304 308 293
306 331 306 304 318 306 301 290 262 236 229 221 219 217 218 220 217 201 204 205 206 210 207 205 205 202 199 197 196 196 195 201 199 221 248 244 240 238 239 249 253 269 299 301 298 301 270 354 375
282 306 323 314 292 316 298 297 298 266 230 222 220 218 219 220 219 218 221 224 224 224 228 230 239 235 243 243 234 233 236 237 243 242 239 233 236 251 252 280 293 270 324 376 261 318 341 380 385

GFSSGP_2pvu_pres_069.txt.gz
Presure
194 171 134 84 82 81 170 110 150 145 151 149 146 141 145 141 137 141 125 140 148 131 117 143 129 103 120 114 125 142 95 143 151 144 145 144 156 129 149 151 136 172 182 183 172 171 161 130 139
180 170 113 89 152 85 76 86 78 150 156 131 150 137 143 135 138 146 152 137 137 122 125 138 111 114 133 117 120 134 173 134 160 132 159 148 142 147 134 129 131 143 160 152 161 131 131 129 145
164 196 171 99 157 130 81 84 107 157 137 135 150 152 115 137 113 147 138 148 120 146 151 120 123 142 115 104 109 113 122 120 147 158 118 151 140 159 130 147 166 127 153 114 108 128 127 147 135
209 152 169 171 162 157 164 88 89 88 107 89 147 151 77 145 134 134 149 144 144 104 105 103 122 112 149 116 114 129 106 104 154 104 145 111 108 118 149 161 110 153 108 102 125 125 134 138 123
208 203 175 149 155 151 98 138 112 94 83 142 84 83 134 145 91 116 149 147 150 159 150 149 111 152 152 143 117 114 122 105 121 109 144 104 101 143 131 109 136 146 124 138 143 114 117 112 126
169 183 177 165 158 163 163 164 171 165 104 81 156 96 148 86 139 143 100 145 146 143 139 140 142 148 145 131 144 154 139 108 128 149 126 104 139 137 139 129 141 141 104 141 141 122 105 137 137
155 191 181 136 168 169 172 158 127 146 145 78 165 126 156 151 110 144 107 103 136 144 140 141 146 129 154 138 189 142 115 130 136 128 134 129 133 109 143 151 123 134 143 117 111 107 126 128 131
209 161 189 178 138 164 157 166 157 159 158 163 78 100 112 157 153 104 147 152 145 138 144 144 137 134 147 150 166 101 142 181 168 106 126 172 168 168 130 149 141 135 139 133 144 99 133 134 140
209 192 200 144 176 166 61 146 163 146 154 168 163 152 127 83 137 155 107 115 156 150 148 127 144 140 116 157 136 143 149 131 133 146 150 108 120 135 139 114 105 142 108 134 111 109 144 126 124
198 207 184 176 177 165 170 161 148 159 145 147 157 146 136 141 137 128 112 148 143 81 145 146 135 157 110 164 111 139 148 117 123 104 103 125 119 106 121 147 141 126 110 128 130 131 134 142 135
211 220 171 186 184 146 170 169 161 152 165 160 149 158 142 135 154 137 133 136 139 120 112 156 126 126 131 139 97 153 140 90 130 127 127 87 127 120 88 148 136 130 133 140 148 137 142 141 142
223 217 195 184 147 182 151 168 141 160 160 155 152 153 159 142 149 153 146 135 149 140 111 124 84 135 134 143 106 101 103 91 98 94 147 141 135 94 144 134 142 91 143 133 131 135 92 114 142
218 226 183 181 192 191 184 170 154 159 143 162 154 141 148 152 156 145 148 109 142 140 150 113 131 134 107 147 129 117 137 141 125 140 136 112 139 136 135 134 140 113 117 90 147 77 92 144 143
244 224 214 161 198 185 189 167 160 168 160 159 158 158 78 160 150 152 151 148 165 140 82 75 112 140 142 148 149 142 143 121 144 135 136 134 136 94 99 89 150 152 140 141 152 145 143 149 153
235 241 238 199 171 146 188 165 179 167 158 164 160 151 149 153 159 153 150 144 145 149 155 138 141 135 135 81 146 145 141 144 148 148 79 76 151 150 87 140 149 141 141 145 150 142 155 150 142
255 240 256 208 192 143 173 177 182 170 154 157 162 158 147 143 143 161 159 148 150 91 156 153 152 144 143 142 140 142 148 149 143 143 157 141 150 115 157 144 118 149 156 151 154 153 145 161 156
260 262 264 229 223 193 186 129 189 180 165 141 163 167 158 155 155 152 157 156 150 147 143 143 142 152 143 138 120 111 140 143 146 148 149 149 149 143 142 142 152 148 153 152 146 159 160 146 163
248 250 266 209 186 193 183 185 176 190 175 165 159 164 163 152 157 150 157 156 153 152 150 150 145 145 145 146 148 151 148 144 141 147 143 154 156 156 154 152 152 151 151 159 163 151 163 158 166
244 247 141 251 236 198 182 192 189 189 170 184 169 160 155 157 164 158 155 157 153 157 159 148 148 111 153 150 145 144 150 149 147 151 152 152 152 153 154 151 159 158 163 158 169 168 166 171 175
265 244 244 253 246 236 193 184 181 159 192 167 184 168 161 152 159 152 146 152 159 157 156 148 147 148 148 151 152 153 152 152 151 152 151 152 154 154 158 162 158 152 165 170 170 175 174 171 179
282 273 245 252 247 229 226 185 200 183 185 193 168 182 173 169 133 162 162 158 152 157 148 158 155 152 152 152 156 154 152 153 152 153 156 161 162 162 162 153 164 170 169 156 169 182 173 172 179
299 306 273 249 248 237 240 197 187 200 191 173 188 176 184 175 174 169 135 157 162 160 157 156 162 159 157 157 153 157 160 161 161 162 163 164 155 171 171 170 167 144 176 172 169 173 183 158 191
296 317 314 323 248 256 241 236 194 195 197 194 178 178 179 168 183 177 168 162 160 160 162 161 159 159 161 161 160 161 161 159 156 164 170 138 146 171 178 181 171 164 183 173 181 185 191 194 201
290 291 311 302 328 262 255 247 213 221 194 191 197 186 184 183 170 179 181 181 175 169 168 169 168 164 163 168 171 171 169 170 171 160 169 167 159 166 173 171 176 174 186 170 195 196 200 203 211
266 276 308 300 312 325 257 260 247 220 212 188 188 195 188 188 185 181 168 172 179 173 175 178 179 179 177 176 178 180 169 164 175 180 162 182 184 172 179 156 171 153 193 192 198 200 209 223 252
288 277 293 281 338 346 304 251 253 248 227 203 185 185 190 187 181 181 174 179 174 172 178 184 182 181 180 180 180 184 188 164 169 170 153 168 160 173 179 182 190 175 192 197 205 208 248 248 249
257 307 315 258 306 354 356 363 251 252 234 224 208 199 188 187 189 187 184 184 176 164 165 168 170 167 156 158 163 180 185 164 181 180 181 184 185 186 192 192 193 195 204 214 250 248 248 248 297
292 302 300 320 267 278 348 308 351 251 248 240 228 224 208 194 187 189 189 189 188 189 186 183 182 180 181 180 178 180 181 180 180 181 179 174 185 185 191 206 216 243 234 253 244 251 269 288 269
289 311 303 301 332 334 333 343 307 302 243 240 241 242 229 218 207 196 193 189 189 190 190 187 189 188 183 180 183 178 181 187 187 192 193 191 203 207 214 251 243 253 242 251 259 290 267 283 272
302 312 316 302 306 323 325 316 322 319 286 250 235 239 238 229 226 230 228 203 201 198 192 191 190 188 187 187 190 187 192 196 199 200 206 216 229 251 238 248 243 238 268 294 281 277 276 263 272

GFSSGP_2pvu_pres_072.txt.gz
Presure
98 83 81 78 148 75 82 102 147 165 157 112 87 158 144 96 104 132 129 142 133 126 127 140 126 130 121 109 107 110 120 109 160 126 114 143 152 151 145 149 153 135 140 120 129 141 141 144 132
182 203 121 94 84 87 78 84 141 164 80 152 151 165 147 128 120 123 135 129 107 137 131 128 123 115 117 108 112 127 115 146 111 104 125 168 134 144 141 125 141 133 148 114 160 166 140 128 116
206 183 182 171 89 85 84 89 78 81 157 108 157 146 145 139 147 141 133 143 139 125 131 142 143 122 128 110 105 112 126 119 119 114 126 117 143 115 159 145 153 132 149 149 116 151 146 112 122
198 167 201 152 166 148 89 77 89 172 156 165 154 107 149 146 140 140 140 143 138 135 102 128 140 141 126 138 111 108 134 106 121 117 109 160 111 154 111 109 128 112 109 110 100 150 110 135 134
193 151 173 195 141 168 167 89 84 81 87 127 142 131 110 154 140 138 135 136 139 145 146 125 136 140 142 138 139 140 117 113 118 114 110 122 116 147 147 104 127 123 130 127 129 120 143 140 147
172 201 168 186 165 197 175 143 88 86 87 72 110 82 121 80 114 103 121 139 139 143 148 143 148 141 106 128 136 109 142 148 122 110 122 139 149 143 104 122 153 151 151 151 157 142 132 136 120
201 192 158 166 182 192 180 171 159 94 147 78 82 77 157 155 148 84 143 143 132 131 139 144 145 144 156 166 146 126 142 141 158 148 156 107 119 131 150 147 140 157 127 139 165 120 139 95 96
205 195 189 175 194 199 168 165 154 164 91 85 90 150 78 126 152 148 151 146 136 90 138 139 147 146 136 136 143 140 163 157 113 112 145 109 131 112 147 91 160 132 145 106 127 95 141 149 152
154 212 192 169 184 116 167 165 170 159 159 158 114 155 133 89 156 152 153 131 127 144 145 146 135 142 146 139 135 134 128 136 143 129 165 116 116 161 112 151 123 104 109 144 144 99 141 134 141
206 172 223 186 163 202 126 174 160 160 166 166 141 150 158 84 111 124 148 149 149 144 139 151 154 144 111 143 144 129 132 95 153 159 156 103 87 120 142 106 98 132 127 93 143 142 137 143 136
192 190 183 182 209 151 199 180 159 165 168 152 152 119 163 160 151 146 135 92 157 147 102 142 72 151 153 97 94 115 98 102 146 124 94 145 121 95 148 128 145 137 150 134 140 133 128 150 141
210 194 175 194 197 191 207 192 142 157 165 158 162 142 147 166 149 128 132 155 90 155 152 153 131 79 148 155 125 145 131 147 146 132 90 142 125 139 140 100 141 130 137 136 133 144 135 119 117
204 203 197 223 197 183 192 191 186 159 146 156 167 159 146 156 158 155 159 116 162 131 127 149 143 138 144 145 122 104 98 147 116 134 146 135 136 137 139 110 151 149 149 153 151 135 145 141 130
212 207 201 103 200 207 199 194 187 146 158 169 158 160 151 150 146 150 153 145 138 145 137 83 131 134 124 92 120 132 135 134 134 133 129 140 146 148 149 127 144 145 140 96 151 84 141 133 149
227 212 217 207 242 195 201 166 147 183 178 167 162 159 152 152 160 142 148 150 158 139 145 156 145 138 140 81 101 150 138 136 115 121 139 138 137 92 146 85 142 142 153 145 72 142 151 152 153
250 230 232 156 208 200 208 173 162 169 179 166 159 168 163 159 156 162 156 151 154 163 149 156 145 150 152 120 149 122 147 139 137 142 142 138 94 150 153 142 149 144 142 151 143 154 151 148 148
282 234 236 207 212 219 204 176 203 206 172 174 154 159 166 160 159 161 159 152 149 152 147 142 153 143 143 143 143 144 152 151 146 143 144 142 141 145 147 144 147 147 148 155 151 152 151 160 161
287 262 239 222 212 182 217 198 177 153 185 179 166 161 158 162 157 146 154 158 152 153 156 159 151 147 145 149 151 153 149 143 153 144 144 149 146 143 147 153 157 154 146 147 153 150 161 151 158
337 291 267 242 220 228 214 204 213 166 132 192 175 158 164 149 159 161 158 159 158 143 144 150 154 157 154 149 146 143 144 145 143 142 145 151 142 154 152 152 151 135 152 150 161 155 160 161 158
322 275 267 253 252 250 245 241 209 204 196 181 190 180 167 167 160 145 155 88 105 156 152 158 147 146 156 148 148 150 148 150 151 149 148 152 153 152 151 149 155 158 161 156 159 155 143 165 170
266 269 253 260 262 252 250 243 143 228 152 199 185 175 178 169 167 167 144 158 158 164 161 149 152 158 158 156 154 150 151 155 153 151 149 149 148 155 158 162 161 160 155 146 152 166 143 150 178
302 329 266 251 255 264 248 211 225 210 229 175 197 188 178 175 176 165 166 164 154 158 159 166 161 141 144 146 148 149 161 163 161 159 159 160 161 159 151 150 142 140 157 162 168 167 176 179 180
284 304 285 261 251 250 246 249 246 247 207 201 171 190 186 173 175 174 168 160 163 169 152 158 156 159 158 160 166 162 149 150 148 156 156 146 152 158 162 165 168 164 168 168 176 167 176 171 166
288 277 270 311 269 255 250 247 262 228 245 204 208 189 167 184 184 179 172 168 164 167 168 169 143 160 161 161 160 157 157 155 148 156 158 159 152 160 161 160 168 178 178 168 182 159 169 185 188
288 289 283 270 324 263 252 258 247 254 257 250 215 216 195 171 174 165 181 179 162 177 178 169 167 166 162 165 169 168 164 160 153 161 163 166 169 169 158 174 178 179 175 167 177 184 185 189 203
284 283 291 289 267 314 269 256 248 256 243 252 240 225 191 189 174 186 165 175 181 176 164 162 172 177 174 176 177 173 170 168 173 173 175 176 173 175 179 176 154 181 183 183 189 185 203 207 211
280 278 281 293 304 305 289 266 241 243 244 237 245 237 233 190 189 182 187 185 180 172 175 178 174 170 169 173 176 181 180 178 177 174 178 173 181 179 163 189 180 183 188 175 191 200 209 210 252
276 281 278 296 291 283 301 319 294 247 241 231 235 231 229 230 230 194 190 190 193 191 187 180 179 179 181 183 184 185 184 175 173 168 162 168 179 182 184 189 185 190 189 196 203 208 254 248 261
310 273 260 253 259 285 292 374 275 312 354 269 236 231 234 231 228 225 202 191 188 193 196 194 190 187 185 185 182 182 181 183 184 187 188 189 189 190 189 192 189 199 203 215 218 257 256 284 290
284 308 307 307 302 301 253 357 346 268 326 345 260 260 248 253 254 241 238 232 225 185 182 185 186 186 189 192 191 191 191 191 188 190 190 190 162 188 197 204 202 231 253 227 221 263 286 288 276

GFSSGP_2pvu_pres_075.txt.gz
Presure
111 93 79 144 96 170 70 96 164 172 166 76 148 134 93 97 104 101 125 136 118 136 104 134 122 119 134 89 105 155 107 101 116 113 121 139 148 125 153 147 146 119 132 147 145 149 134 130 153
187 161 157 82 81 80 93 82 159 122 147 79 124 81 88 154 91 111 136 136 135 120 128 139 136 100 110 137 139 125 110 112 117 114 117 118 126 131 144 125 121 164 154 147 118 140 147 142 137
175 189 163 182 188 82 79 94 80 98 134 75 158 120 150 93 163 145 120 105 128 132 97 145 126 137 127 134 125 117 131 110 115 125 120 118 120 145 133 152 109 152 116 144 147 114 136 107 110
202 197 193 166 189 84 82 83 86 81 75 170 154 159 153 155 99 118 123 95 148 129 134 133 133 135 134 106 134 119 140 100 109 116 131 117 109 122 121 125 107 140 109 122 151 103 134 149 119
179 172 194 163 166 156 96 89 152 98 130 114 146 151 101 158 155 159 91 90 127 141 139 133 123 129 138 142 144 147 127 145 121 103 123 129 128 113 110 115 110 145 155 99 148 141 157 144 108
192 161 172 183 157 174 201 179 88 85 82 162 71 116 160 153 94 98 159 132 144 136 132 133 143 130 110 133 140 142 138 127 131 139 123 103 119 107 113 113 113 117 147 143 133 149 128 119 119
244 217 180 189 177 169 182 189 158 88 87 91 141 96 74 100 89 121 85 81 130 135 130 142 141 137 137 147 129 139 142 141 128 122 118 144 164 117 162 150 108 147 148 129 115 160 143 97 124
186 183 207 179 190 193 186 196 168 164 173 83 85 147 73 155 77 83 155 91 144 142 141 98 141 93 142 143 144 151 149 150 158 120 125 143 159 123 171 152 94 155 106 122 102 121 131 89 92
216 270 192 161 200 186 163 197 160 160 164 170 86 105 88 78 147 154 83 152 153 136 135 140 105 141 142 146 127 148 145 145 143 108 140 141 146 147 145 146 95 113 110 90 97 145 117 141 126
211 215 165 193 176 187 131 196 190 169 165 162 161 131 103 157 119 154 145 154 153 154 99 112 120 142 135 139 141 144 144 145 144 98 116 123 141 138 155 129 133 91 109 117 106 113 87 145 138
197 213 212 207 197 198 191 164 192 190 173 166 169 167 119 89 84 85 132 83 140 151 145 147 148 144 142 137 120 88 144 138 142 133 135 132 146 145 149 87 90 97 142 137 143 144 149 138 149
201 229 212 224 213 167 192 187 171 193 186 177 153 165 157 165 140 156 125 96 134 82 124 141 141 146 143 89 142 152 93 97 152 145 146 139 130 109 98 103 88 140 136 143 140 146 143 146 130
212 260 220 232 203 188 178 199 172 180 181 167 174 162 159 156 154 157 136 150 156 133 109 110 149 93 140 149 112 144 146 149 138 123 84 138 136 134 114 144 145 147 139 80 117 144 140 148 145
249 276 229 227 224 192 166 193 203 154 155 188 189 162 168 153 158 155 151 161 166 160 145 146 154 145 147 152 154 153 155 129 129 136 115 133 133 124 137 134 135 141 81 83 146 147 149 147 148
294 120 296 220 220 200 185 199 174 166 192 193 141 168 166 171 157 157 151 150 134 164 166 160 125 161 155 158 136 102 144 135 145 131 130 133 108 144 135 142 138 142 132 138 146 144 152 150 153
326 362 280 225 221 207 192 194 234 190 169 194 192 181 157 168 168 154 151 151 146 168 151 148 143 151 146 146 141 132 131 134 135 128 130 134 138 144 137 141 143 139 150 151 145 151 153 144 146
333 387 298 225 217 218 202 179 199 205 189 176 194 179 168 165 159 168 152 152 143 144 154 147 160 148 146 137 133 146 162 109 146 151 151 152 151 149 151 151 149 145 145 145 150 155 144 147 155
305 431 331 231 215 213 189 194 175 231 201 181 152 171 187 137 156 162 162 153 148 141 143 143 146 141 135 135 152 138 147 151 144 147 147 148 150 152 144 145 143 149 151 153 153 140 159 156 159
287 359 346 257 219 215 211 198 198 180 195 175 214 161 192 179 165 158 159 159 158 153 154 156 159 159 155 153 154 146 143 144 144 148 149 146 144 148 145 142 153 150 153 145 153 158 159 148 149
274 349 343 306 229 222 215 208 201 195 172 214 176 169 150 184 171 167 154 161 163 159 158 155 156 157 154 152 153 154 154 155 154 154 157 153 151 151 155 151 158 157 142 160 150 152 142 148 142
296 316 338 276 270 227 223 213 211 197 213 198 191 180 195 189 177 171 160 149 160 163 163 158 151 147 158 160 150 142 144 144 144 148 150 152 153 155 157 156 155 147 141 153 137 140 151 152 151
287 299 324 295 275 245 232 220 216 213 203 214 203 198 178 184 189 161 177 172 166 156 155 156 160 160 160 158 159 157 150 151 150 151 151 142 156 158 160 152 156 137 144 146 148 157 154 157 167
301 297 305 337 278 253 237 241 223 233 221 183 202 203 200 207 198 176 175 178 169 152 158 160 165 147 154 159 158 156 164 166 160 159 156 150 151 143 146 152 148 142 140 147 156 144 156 162 164
293 301 308 268 274 271 256 248 234 230 228 233 202 207 196 216 147 79 173 153 179 169 169 169 163 162 144 153 141 152 157 154 149 148 142 144 146 157 159 155 159 158 159 145 155 163 165 175 174
285 282 280 300 318 271 267 249 247 231 234 237 232 202 225 233 178 190 193 177 187 179 171 171 165 166 168 166 166 168 167 163 162 161 160 163 157 147 152 161 165 168 165 167 172 173 174 177 172
281 290 288 272 312 267 256 254 118 275 252 237 248 246 221 246 246 193 214 189 179 182 179 182 170 152 168 170 169 165 158 161 162 161 157 159 159 164 165 169 172 174 178 178 175 173 177 161 191
279 288 286 286 306 278 292 264 267 254 269 267 247 244 248 261 245 233 197 221 188 188 180 179 180 179 170 167 176 173 167 160 162 168 172 173 170 171 170 169 172 176 173 182 180 165 197 191 193
293 278 280 288 291 296 304 314 276 260 257 262 273 273 265 258 209 242 221 194 228 201 174 177 173 179 182 181 177 174 174 176 169 168 170 172 171 169 178 179 178 184 181 182 193 193 162 199 201
267 281 278 279 284 286 298 313 306 251 248 250 256 247 248 267 264 268 244 222 248 192 197 196 180 173 170 171 170 167 168 170 176 178 177 180 182 178 178 182 186 187 192 195 183 180 196 200 224
280 272 270 270 291 294 291 293 288 299 275 272 250 248 245 246 256 245 254 260 210 237 239 211 210 201 192 178 184 189 188 184 188 189 187 186 189 190 190 189 189 131 187 177 197 197 201 235 251

GFSSGP_2pvu_pres_078.txt.gz
Presure
137 140 77 80 89 80 98 73 152 149 140 107 83 82 84 100 104 103 121 154 94 123 134 145 140 128 115 116 123 129 126 117 117 111 121 99 110 125 103 103 113 157 161 126 155 163 132 143 155
201 182 140 80 76 77 74 120 164 154 108 121 96 94 150 119 77 108 116 112 122 142 138 148 122 126 136 112 99 112 102 122 96 104 100 115 114 116 100 113 138 135 134 115 156 121 154 133 111
155 185 181 157 81 80 82 86 74 106 70 92 68 116 141 121 138 103 97 105 109 104 140 145 138 114 140 137 110 110 103 117 146 111 115 123 105 127 122 123 119 119 122 117 120 110 107 113 140
213 192 205 183 178 156 82 79 83 146 144 82 81 96 104 154 143 101 99 175 103 134 103 139 104 127 127 139 139 143 128 124 134 119 124 112 111 107 117 108 126 132 125 103 109 142 100 108 104
217 219 208 201 161 182 165 82 77 77 119 77 74 100 125 126 136 153 160 151 122 117 104 109 141 120 141 125 132 129 124 130 141 121 133 102 120 110 123 127 146 121 107 111 117 109 143 146 103
251 219 208 194 192 149 175 165 81 81 82 154 77 67 71 113 146 153 150 157 80 127 117 103 117 129 138 148 140 140 138 119 137 137 122 144 110 119 116 130 139 112 117 164 138 111 152 152 92
162 168 210 140 147 183 150 168 196 82 82 87 145 103 157 85 154 156 154 150 154 94 123 128 128 148 112 133 113 130 133 139 142 143 120 133 106 107 147 140 144 149 143 152 172 102 107 133 89
191 188 189 177 142 200 195 164 180 201 183 167 159 129 134 147 72 83 81 146 148 130 157 126 129 130 139 136 143 143 113 133 128 134 139 133 105 158 118 121 146 131 132 123 148 89 87 105 97
195 192 184 143 171 190 186 193 164 189 144 188 164 95 163 85 74 75 123 82 79 93 157 91 126 144 136 122 141 140 132 139 140 140 149 132 133 141 121 117 142 111 91 148 104 83 96 154 135
166 158 166 141 209 173 181 148 186 167 188 194 164 173 115 114 87 79 80 82 165 151 108 156 122 99 136 108 138 140 139 131 141 146 142 148 123 144 143 142 142 148 109 90 123 97 118 136 135
110 176 176 165 220 211 186 152 179 171 163 192 171 166 165 139 86 114 84 83 87 117 87 148 152 113 148 146 141 141 137 139 86 128 142 147 145 147 145 135 103 94 89 84 106 146 148 150 78
188 180 182 221 171 223 205 190 191 173 163 167 183 163 158 165 155 84 131 135 161 142 85 91 147 150 146 157 151 117 146 135 115 90 138 139 140 96 145 137 142 138 137 136 138 134 138 139 145
207 187 181 139 181 183 226 195 173 186 170 158 182 180 162 155 155 146 144 124 129 117 113 115 81 105 87 154 125 153 150 142 81 141 152 150 150 133 125 144 141 119 139 132 138 141 135 143 124
214 197 187 155 193 184 188 180 218 176 190 163 176 189 176 162 161 160 144 160 149 157 100 125 149 133 128 130 153 152 154 156 153 149 142 143 145 147 146 151 124 132 100 109 129 137 137 147 108
221 213 197 132 201 191 226 188 216 196 190 188 168 189 143 164 167 165 160 143 146 145 151 157 128 131 142 140 145 147 150 149 152 149 148 71 122 145 140 141 141 132 129 137 137 138 153 150 145
231 223 198 196 194 191 185 234 199 193 192 189 170 102 176 177 168 169 167 168 162 157 163 163 157 163 164 159 157 149 149 145 157 159 137 159 141 150 143 138 125 129 139 152 148 152 160 145 151
235 227 223 206 195 195 201 202 237 212 192 192 188 171 185 187 187 155 174 165 171 159 156 155 156 155 150 154 161 139 135 161 143 145 139 130 132 128 133 137 159 155 149 151 152 145 146 153 153
250 229 222 223 202 197 193 201 211 225 207 191 186 185 177 178 192 188 165 180 166 161 158 155 155 141 144 145 141 169 147 141 146 150 141 138 137 144 141 146 145 141 148 146 152 153 149 156 162
271 261 235 225 222 207 212 199 225 216 228 204 196 178 189 161 172 191 182 186 178 169 163 143 157 140 148 148 151 156 139 154 160 160 138 137 156 149 155 145 147 156 160 155 150 151 157 141 143
269 260 252 254 232 229 218 219 241 221 211 229 201 191 179 209 170 188 182 188 189 177 162 168 161 158 147 142 147 149 155 152 151 146 147 154 156 155 153 158 161 147 149 152 157 147 148 151 159
285 269 261 262 268 258 241 226 284 227 219 237 228 189 188 172 189 167 201 187 186 185 164 162 162 166 156 153 152 148 148 154 157 156 154 153 151 147 143 145 150 150 141 147 146 144 149 158 157
272 263 260 258 261 257 321 320 271 235 225 222 243 198 187 188 182 180 163 195 190 180 174 166 150 153 156 160 162 161 160 159 161 161 158 160 160 160 158 157 158 162 157 148 149 149 157 153 153
258 302 263 286 301 292 295 302 263 242 227 220 248 252 195 169 207 190 185 166 187 185 180 180 175 168 162 162 165 164 162 161 160 159 156 157 157 155 159 155 146 141 156 157 159 159 156 155 159
258 305 292 302 307 280 346 291 281 247 231 228 222 219 224 198 161 215 200 192 180 187 167 172 181 171 161 156 154 153 155 156 158 160 159 157 144 150 158 158 161 157 158 156 157 156 153 159 161
284 294 309 288 297 316 312 297 268 264 236 234 229 225 229 216 197 167 185 181 195 127 159 155 164 179 163 164 176 175 166 157 158 161 156 161 165 166 162 157 141 148 158 159 157 163 162 163 173
270 280 299 295 281 294 281 317 268 266 256 241 235 225 226 230 218 188 187 182 227 181 187 201 173 141 141 171 145 163 171 167 162 161 161 160 160 160 163 167 168 169 166 162 165 167 169 169 173
285 290 281 290 294 285 313 339 280 263 260 262 243 235 231 231 229 223 180 183 182 184 181 183 187 198 195 189 168 170 172 172 170 169 168 168 170 168 167 168 168 172 171 171 173 174 181 179 180
286 281 282 287 292 283 292 310 270 275 272 265 251 243 239 239 238 241 232 213 189 186 189 234 195 181 196 193 192 182 163 177 179 177 171 172 175 173 169 168 169 170 173 168 164 181 176 185 191
278 282 284 281 273 287 275 290 291 260 259 263 263 260 252 246 237 242 250 245 235 242 189 191 213 214 172 172 182 192 191 182 179 179 178 176 172 168 177 177 169 161 165 179 173 183 189 148 185
290 284 277 165 279 291 286 283 250 292 308 285 267 267 268 255 261 265 243 243 244 239 244 183 190 199 244 224 181 185 191 188 188 180 181 169 168 170 165 164 175 174 173 177 181 180 168 190 203

GFSSGP_2pvu_pres_081.txt.gz
Presure
202 187 82 73 176 174 72 188 159 126 99 97 84 102 85 100 128 110 111 103 147 149 131 113 97 99 107 132 99 108 129 119 121 126 125 130 102 101 110 124 136 100 125 148 123 139 148 126 122
187 150 121 90 72 97 120 90 188 129 81 104 70 107 114 91 154 98 101 100 145 156 157 139 141 139 123 134 128 98 91 136 129 124 114 107 109 107 123 118 111 108 120 121 136 129 111 150 153
104 200 209 203 191 82 84 79 188 165 156 137 116 98 80 89 122 79 103 91 90 146 156 96 145 133 140 132 132 139 119 98 125 112 120 113 130 111 123 105 119 117 115 124 110 119 139 110 115
161 188 203 206 137 81 82 69 68 78 142 133 80 72 77 118 101 106 108 116 103 98 94 160 142 117 148 140 103 125 134 122 141 129 107 132 116 98 111 110 119 131 116 134 130 102 111 110 130
230 170 216 189 194 154 92 74 80 168 188 72 73 117 78 165 83 131 116 122 134 96 127 106 120 107 95 138 127 123 116 139 126 113 139 127 126 127 113 126 106 121 122 140 122 113 116 127 152
171 156 157 208 194 181 166 83 82 83 114 83 74 120 161 155 116 123 137 120 148 156 137 96 139 133 119 123 113 121 136 122 137 137 123 131 139 119 135 128 119 121 110 125 130 124 141 124 128
226 162 138 109 187 201 181 173 67 80 81 86 73 72 78 92 161 73 146 150 137 122 154 124 123 117 136 109 137 134 142 140 119 131 136 117 142 141 118 117 143 143 118 130 123 98 107 110 139
222 254 190 174 215 204 166 180 172 165 78 86 88 94 137 73 77 76 115 148 143 130 126 88 109 118 132 132 121 130 125 145 124 138 135 136 138 137 137 131 137 134 101 135 131 93 93 118 92
204 257 180 216 126 213 208 186 177 175 168 163 157 83 83 77 88 80 147 114 128 100 152 83 151 125 125 131 134 140 142 136 135 138 135 120 131 138 142 109 112 143 144 144 132 127 126 85 134
213 223 264 196 241 216 202 191 189 168 169 163 180 191 140 93 82 102 98 167 80 80 150 129 128 154 159 101 102 130 123 137 132 136 142 136 137 138 139 139 139 149 143 142 140 125 82 117 147
263 185 216 181 205 181 214 187 133 188 162 174 178 184 191 167 153 153 157 149 84 74 80 83 78 82 152 150 128 103 119 85 134 139 143 140 133 128 139 101 144 144 146 153 146 137 131 139 142
222 216 187 190 179 241 136 210 213 134 193 189 162 179 196 172 169 151 87 125 84 78 78 79 89 158 141 155 157 138 132 137 76 134 98 102 140 136 134 142 114 134 148 136 148 145 144 133 141
218 251 195 185 186 186 180 166 215 178 206 181 156 173 149 197 176 156 156 147 164 131 152 158 136 166 130 79 145 149 121 134 142 136 143 139 83 132 136 133 148 150 148 151 154 147 149 139 130
223 248 206 190 188 164 213 194 220 192 196 204 184 155 168 146 186 172 165 157 175 143 100 133 155 101 88 132 87 83 83 114 109 145 156 124 153 141 145 149 140 142 152 159 151 144 143 113 124
230 226 234 195 184 191 174 197 229 216 185 190 177 71 160 172 191 180 188 164 165 169 154 145 142 151 165 163 157 157 101 142 147 153 93 155 153 81 140 149 153 154 154 151 135 149 138 124 156
244 228 230 215 192 108 191 184 166 213 211 177 190 177 178 169 174 172 183 165 170 161 163 148 154 163 146 160 162 167 165 151 146 146 138 144 146 145 149 146 156 148 144 144 133 130 141 157 146
255 235 229 236 204 187 184 189 163 212 211 216 180 191 178 171 166 178 187 171 147 164 166 169 164 162 154 148 153 162 163 164 166 166 152 161 159 127 160 135 145 147 138 133 136 144 167 159 147
253 245 235 232 238 197 190 183 187 164 239 231 211 186 189 178 170 167 159 186 178 171 168 169 165 160 146 147 144 145 153 155 150 153 153 154 158 143 143 145 146 147 140 145 154 161 147 160 150
267 249 237 232 234 205 197 189 185 180 187 184 223 196 197 186 182 175 166 161 176 183 153 168 166 151 159 164 163 152 151 147 151 153 145 156 161 171 145 148 159 138 140 154 153 154 152 141 153
278 260 248 238 236 235 200 194 195 191 182 195 232 217 195 206 174 187 173 169 181 182 190 183 166 162 156 157 162 159 154 159 159 154 151 150 149 155 169 148 152 149 154 154 151 156 158 160 145
276 274 261 250 238 241 226 199 189 196 198 198 189 211 214 202 200 182 180 183 171 191 183 167 187 179 168 163 159 158 158 159 143 143 143 143 144 144 158 154 154 158 160 161 162 152 156 150 152
279 274 273 265 245 240 240 223 187 195 199 198 195 181 210 224 199 188 188 182 184 183 169 165 182 181 186 175 174 168 166 166 164 155 155 155 155 152 151 154 157 160 152 150 151 153 153 157 159
279 276 272 273 260 244 241 232 223 201 194 200 205 192 198 225 225 201 193 190 182 166 176 164 171 164 191 184 189 185 176 163 167 166 169 171 169 168 165 153 159 157 155 158 153 148 158 167 158
264 272 272 267 264 263 254 243 234 220 217 205 206 207 204 191 211 213 201 196 185 179 164 180 185 176 172 190 173 180 189 164 147 138 136 159 157 159 160 160 144 158 156 155 157 161 153 156 160
261 259 264 272 311 262 261 259 249 248 244 219 216 213 208 219 201 214 209 204 172 189 189 171 176 208 173 156 179 185 190 180 180 179 173 164 162 155 161 166 163 159 161 158 163 149 156 162 168
264 256 260 260 256 304 268 263 257 262 258 250 239 235 234 230 253 198 216 207 216 206 182 194 180 179 180 183 189 165 178 182 149 170 173 176 174 158 161 155 160 171 169 168 168 166 163 165 168
285 282 250 281 257 307 284 257 263 267 276 291 319 289 266 254 242 254 247 220 218 221 199 183 170 215 154 177 183 184 168 172 160 181 181 179 185 171 171 168 165 168 163 166 175 177 175 172 169
278 280 287 251 294 261 296 273 284 266 291 281 285 284 290 269 257 254 255 246 230 211 213 202 193 160 162 197 204 177 173 191 190 187 163 190 186 180 179 179 177 175 169 172 176 175 179 180 178
291 285 281 277 270 280 281 282 271 283 312 272 277 271 285 264 278 255 255 247 255 238 219 247 204 192 189 165 170 174 195 201 195 179 175 161 171 180 186 187 186 148 176 170 184 182 177 190 185
284 284 284 282 279 275 275 277 277 275 308 316 288 274 267 272 269 253 257 247 249 255 252 225 213 198 189 181 181 181 181 220 215 210 200 165 166 171 181 172 184 175 178 191 190 187 183 188 196

GFSSGP_2pvu_pres_084.txt.gz
Presure
220 191 111 184 80 173 178 177 155 139 102 97 99 97 96 92 97 104 94 105 92 106 90 122 111 121 136 132 100 131 122 114 129 116 117 129 123 124 129 97 122 119 123 145 101 123 129 120 124
203 217 195 197 182 86 129 85 73 175 122 93 98 99 97 98 94 86 97 96 119 114 104 89 113 126 117 156 103 102 99 98 105 107 107 125 128 116 129 127 111 113 102 112 131 127 123 111 111
207 205 211 145 204 136 73 75 169 185 143 146 106 124 153 100 140 110 113 111 95 91 97 152 121 93 127 108 146 104 107 101 115 118 124 132 119 107 119 120 147 125 111 116 119 125 115 135 141
197 224 219 206 78 187 158 186 82 76 124 136 127 109 101 148 103 100 89 116 149 124 128 97 97 161 95 141 133 133 136 144 130 131 137 119 100 105 128 131 125 106 105 109 109 105 112 124 121
174 207 212 177 167 172 180 121 188 174 186 176 102 130 159 80 106 87 85 107 135 127 93 91 108 103 127 100 117 127 142 138 117 133 148 136 131 114 127 126 128 129 113 125 111 120 102 124 108
190 190 210 209 177 178 196 175 116 146 150 185 170 140 146 98 120 95 117 91 94 110 93 106 144 140 90 120 164 96 94 121 119 121 121 135 129 130 126 125 141 130 131 132 117 129 138 100 98
224 197 198 147 201 191 192 195 179 159 80 84 88 88 74 68 78 96 112 105 124 158 85 139 119 124 117 144 108 137 142 137 132 137 124 123 138 140 123 133 119 138 105 135 129 105 148 145 140
185 206 200 213 198 215 197 190 187 172 159 169 180 177 168 74 78 75 90 77 101 135 113 140 137 144 136 127 138 138 137 152 99 128 143 143 132 129 139 140 141 140 91 136 136 144 150 94 93
223 177 182 190 221 155 211 200 132 160 157 125 182 105 115 143 78 73 72 97 97 116 116 140 122 143 89 138 154 121 126 133 129 117 130 124 145 136 123 118 127 119 137 139 137 137 149 143 142
222 180 168 215 108 211 191 208 201 186 173 172 156 80 75 78 85 109 120 122 80 89 105 97 112 111 89 116 159 144 124 131 144 132 130 131 132 132 137 143 139 134 110 116 141 135 146 144 146
253 172 183 175 213 109 191 142 209 200 165 167 163 144 119 86 88 95 82 80 158 120 90 78 85 77 77 149 79 151 152 124 89 126 85 145 142 141 130 140 142 141 131 98 135 141 139 135 147
221 189 174 179 191 213 191 169 215 197 133 178 169 158 144 170 183 96 151 149 94 92 83 77 94 90 126 148 150 147 155 153 166 129 126 91 137 129 130 119 133 101 138 128 132 128 135 153 144
219 218 188 182 199 212 236 185 170 218 192 130 177 167 155 140 172 184 167 185 157 149 154 79 78 94 77 123 78 84 140 145 123 112 129 133 129 141 137 133 104 137 131 129 100 147 137 141 155
204 206 184 188 225 219 200 223 206 203 214 194 179 170 164 167 135 160 185 175 168 145 129 76 76 74 142 85 86 151 151 83 81 81 83 158 108 135 137 137 148 146 146 142 142 147 147 154 154
215 197 220 194 189 229 199 244 176 148 228 207 201 181 171 164 160 152 165 180 183 171 156 158 154 158 154 87 91 85 78 170 161 102 82 87 85 102 84 141 124 96 122 151 149 139 147 145 147
268 215 201 204 203 230 217 176 206 199 233 210 203 136 137 170 159 165 162 171 181 188 167 169 153 150 142 163 136 153 159 160 169 125 98 154 144 148 142 147 147 144 143 146 144 158 155 144 146
277 267 238 211 204 211 229 190 232 180 175 156 220 199 178 141 170 166 152 162 175 187 179 170 174 154 149 162 165 161 148 151 151 163 169 156 164 153 154 155 151 145 160 156 158 156 146 147 159
128 273 253 227 220 207 235 213 182 184 176 211 233 219 203 201 185 179 167 147 162 169 188 182 178 171 168 160 182 160 166 145 167 142 144 153 156 158 155 155 151 158 153 154 163 160 149 155 145
290 278 259 239 226 215 207 225 193 185 164 185 170 233 219 196 194 190 182 169 159 158 168 185 161 172 173 177 168 165 157 153 158 160 140 140 144 150 156 152 150 149 146 150 149 152 161 153 154
288 278 264 250 237 230 215 248 212 188 178 167 188 155 230 215 183 195 184 182 170 168 161 158 184 177 179 182 164 174 165 167 161 156 154 152 153 155 152 151 152 148 151 152 145 139 155 146 155
313 277 272 261 248 233 224 211 235 221 187 178 184 192 155 224 211 175 176 196 194 169 171 170 167 177 179 184 173 179 172 160 159 150 156 158 160 160 153 152 146 143 147 151 156 155 162 163 142
276 286 276 270 257 242 235 222 239 210 233 182 181 174 234 168 181 208 202 180 190 181 162 167 172 170 170 187 172 164 181 178 168 163 160 158 159 156 154 154 154 159 155 152 166 154 157 154 169
270 277 292 272 264 251 242 234 216 242 214 196 181 182 178 157 164 226 209 206 201 184 184 178 173 165 164 154 165 173 185 183 183 174 175 170 166 169 168 166 167 168 161 151 151 157 154 153 151
278 278 276 280 269 260 245 240 232 223 231 204 201 191 184 182 175 176 224 219 214 205 190 200 171 177 175 169 170 171 162 170 170 173 182 186 163 172 170 173 172 149 136 158 156 158 159 152 145
295 271 278 278 280 272 260 247 241 247 243 219 205 196 191 191 192 173 171 181 202 216 211 203 193 186 174 178 174 182 200 179 177 179 180 160 174 178 152 167 155 169 170 170 171 170 171 169 167
321 277 266 272 276 268 270 264 246 253 248 239 220 204 198 197 194 193 189 191 193 191 177 218 207 199 194 179 180 184 186 144 175 173 192 184 168 156 155 175 174 179 181 164 167 170 170 139 173
328 306 267 258 266 269 265 263 262 266 262 245 245 225 206 201 200 193 191 190 194 193 187 211 224 222 206 198 185 182 185 187 177 184 167 189 166 172 135 135 139 173 174 180 161 174 154 179 182
308 310 282 260 261 264 263 261 261 264 271 265 253 241 232 220 210 203 203 205 199 200 200 200 196 194 217 213 203 197 181 150 189 181 169 174 171 173 174 168 180 183 183 146 153 184 175 186 175
296 291 293 279 255 252 253 259 261 291 302 302 265 260 256 231 228 204 214 213 211 208 209 202 204 206 208 212 211 205 206 203 197 194 184 185 184 204 178 176 175 173 173 179 172 182 179 168 172
294 289 282 280 273 257 275 279 251 283 295 301 273 302 264 264 258 251 243 240 233 232 222 214 215 207 213 211 216 209 207 207 209 199 163 162 158 171 193 203 199 177 170 184 167 194 183 171 199

GFSSGP_2pvu_pres_087.txt.gz
Presure
81 177 209 168 183 157 129 154 113 86 92 92 91 137 90 90 95 91 86 95 90 116 134 128 129 128 120 124 105 137 106 138 130 130 101 98 130 137 127 122 131 133 112 120 119 132 120 130 110
174 191 202 178 187 179 97 167 181 177 93 120 90 90 132 91 87 92 129 98 95 95 90 85 104 89 106 115 147 142 127 104 137 96 97 124 127 115 130 131 124 117 123 107 135 108 117 116 134
211 196 178 172 199 177 93 160 159 151 163 92 95 92 105 133 112 92 94 86 88 107 101 117 108 145 116 90 150 127 141 129 107 130 106 111 108 123 131 132 118 114 130 109 118 119 106 109 113
140 188 102 191 202 74 199 168 161 159 125 148 136 96 97 99 98 84 90 96 103 100 107 95 94 98 97 98 128 129 113 143 134 111 139 130 128 123 123 129 105 116 126 130 144 126 111 125 114
226 210 144 155 213 206 195 153 163 76 185 178 83 107 154 101 105 102 132 95 107 144 132 109 104 127 99 95 127 93 140 95 140 125 142 134 107 136 132 133 134 119 121 124 119 115 123 110 122
210 212 192 185 197 223 216 190 130 177 121 84 117 154 112 152 107 137 130 132 127 156 92 98 136 103 94 102 97 96 137 119 133 97 121 125 137 127 130 139 130 144 126 122 116 137 103 111 140
190 203 203 194 185 171 196 190 187 163 77 166 87 117 123 143 120 92 93 99 105 121 115 89 104 113 116 104 91 97 127 123 101 132 122 141 139 97 106 135 118 124 130 107 122 128 141 140 137
187 193 211 162 198 190 200 204 191 184 158 86 84 70 73 156 74 103 114 78 94 166 86 143 84 111 150 112 109 156 159 123 126 136 111 129 140 130 138 119 132 126 131 134 114 90 131 132 142
184 183 195 216 200 190 175 199 206 196 180 161 184 109 177 167 159 80 76 70 117 93 98 113 95 121 145 145 121 143 159 154 154 155 129 127 126 139 122 135 142 141 85 131 132 133 90 129 134
182 183 192 194 205 201 192 202 195 120 199 187 167 156 179 71 90 76 84 110 147 77 87 128 137 102 108 142 131 96 87 85 156 140 142 128 143 154 139 125 129 129 138 130 137 142 116 131 125
203 164 192 202 202 208 196 203 203 182 193 194 184 168 158 174 164 171 159 71 82 77 138 81 85 135 119 92 103 77 112 156 153 151 84 113 120 92 139 132 129 127 138 88 128 138 140 132 136
237 208 196 208 203 204 190 190 208 202 186 191 199 179 159 176 79 80 77 76 94 93 88 153 91 84 94 103 153 81 148 126 113 137 158 151 134 133 124 123 130 119 116 135 118 135 133 134 138
229 214 225 211 222 196 198 191 195 211 187 199 190 193 151 151 180 167 123 80 83 92 76 82 85 81 78 110 75 109 108 116 124 128 147 136 151 153 136 128 128 128 135 136 131 110 139 130 129
262 222 212 211 197 231 169 204 162 143 205 208 193 196 179 165 161 169 172 184 135 84 101 143 163 139 77 83 158 75 151 152 130 140 141 84 83 84 128 157 91 98 84 83 91 102 149 152 148
269 245 228 209 86 173 213 170 202 194 112 218 209 183 186 179 152 156 175 159 188 181 178 171 158 140 143 75 78 76 83 154 129 86 84 146 148 149 144 141 96 149 151 105 143 158 122 149 147
281 271 222 219 215 237 176 161 91 197 204 210 204 188 196 182 183 163 159 159 149 152 181 182 177 151 166 97 80 83 149 163 152 81 141 153 123 146 107 98 156 152 149 145 146 142 145 146 139
301 270 247 227 225 267 246 172 173 158 211 209 212 209 209 200 180 174 161 161 159 166 153 160 178 199 180 173 163 149 156 152 161 130 148 149 146 129 158 155 167 169 159 157 158 138 158 159 158
315 295 284 224 228 189 253 191 181 168 207 197 218 161 211 167 193 183 172 168 165 155 159 158 153 176 185 199 183 156 152 154 144 136 133 153 157 161 153 146 151 157 154 158 157 157 156 158 151
114 333 290 265 235 216 235 217 192 179 188 219 192 226 176 198 216 183 187 177 170 166 166 152 162 164 164 178 177 181 178 165 167 154 150 148 166 169 167 136 160 148 148 139 141 147 152 151 152
293 331 367 273 239 210 262 197 223 191 184 213 184 201 173 195 200 215 196 189 126 129 167 161 168 152 159 167 171 186 186 174 172 171 163 155 162 172 157 155 150 154 156 148 154 156 145 152 152
275 314 311 285 262 234 208 221 195 203 192 185 224 175 225 178 194 152 185 202 195 178 163 172 167 166 169 151 152 167 177 181 184 178 176 186 180 169 163 164 157 148 144 149 155 155 157 158 155
270 293 305 289 278 269 233 208 245 206 202 190 190 209 201 188 103 199 208 222 209 187 170 182 181 172 167 163 165 162 165 164 159 190 190 186 185 184 188 170 167 159 157 159 161 129 167 167 144
280 272 303 290 285 282 269 244 224 229 210 205 200 230 175 256 183 167 161 176 230 215 202 200 180 180 180 172 165 166 171 169 166 172 171 190 154 174 183 183 177 173 171 168 163 169 169 177 180
277 281 293 313 289 292 275 267 249 236 218 217 212 204 218 193 174 172 173 186 160 217 220 202 195 180 189 177 180 176 167 171 168 163 161 164 143 167 186 167 166 159 170 177 179 148 171 164 168
293 276 279 279 288 285 280 277 259 245 238 232 225 209 241 199 206 173 175 173 175 187 155 183 219 189 178 181 191 184 169 168 162 162 159 168 155 169 166 153 158 151 160 166 178 158 153 167 132
324 315 274 272 281 321 281 277 267 252 249 243 235 219 210 231 197 224 178 179 175 180 231 168 166 214 207 197 188 182 181 178 176 173 170 171 169 174 170 172 178 194 165 173 171 170 171 145 155
317 306 312 281 278 280 277 281 266 260 256 252 245 233 216 230 224 194 242 181 179 177 161 162 161 163 214 210 201 202 198 188 183 190 186 172 173 171 172 156 171 144 174 169 144 161 186 180 173
304 320 326 311 274 270 276 278 275 264 260 257 250 249 238 215 233 221 207 218 194 183 179 179 167 161 167 168 171 187 211 209 200 189 187 187 190 189 183 176 176 176 174 160 164 160 169 173 168
308 304 312 324 285 270 260 271 267 269 267 266 260 251 250 242 222 226 218 203 230 206 193 192 185 186 186 181 176 197 201 195 166 185 208 200 196 193 192 191 191 189 182 183 183 177 177 174 177
296 295 298 306 302 313 262 257 257 265 265 271 270 270 269 256 245 86 229 217 211 220 203 193 192 193 193 189 191 190 188 192 191 187 212 215 213 210 206 198 209 219 197 193 186 165 188 163 181

GFSSGP_2pvu_pres_090.txt.gz
Presure
169 159 148 82 68 93 186 167 193 96 94 142 95 101 115 88 156 123 144 108 84 125 147 95 102 109 140 94 141 127 141 99 139 102 143 100 116 117 136 123 117 109 129 129 129 130 110 124 110
181 120 166 142 182 173 118 153 157 75 88 87 123 94 101 139 148 122 91 91 83 93 95 119 91 96 87 131 144 92 115 139 114 109 104 121 127 113 98 99 135 123 131 137 102 118 117 120 121
183 189 166 179 150 183 196 91 147 158 103 90 96 92 90 93 115 159 117 102 96 141 105 91 100 94 86 133 113 113 96 93 122 138 129 108 125 106 108 118 111 123 118 123 111 121 127 126 139
195 181 184 172 144 159 134 203 77 174 129 181 105 97 94 89 92 90 95 85 93 86 96 95 117 98 103 98 96 97 107 152 152 116 139 136 139 119 133 133 130 132 131 121 127 122 117 129 118
173 203 189 192 158 174 170 219 198 96 169 158 178 163 125 103 91 98 122 144 167 97 97 116 102 115 93 95 100 100 98 104 105 144 121 142 103 126 127 139 118 115 131 136 141 135 141 130 127
182 200 199 184 185 136 128 144 130 170 141 76 82 182 168 112 103 145 97 125 127 132 117 90 130 116 103 99 96 115 99 92 95 157 130 99 109 141 127 119 125 111 112 132 109 102 123 128 107
242 227 204 177 88 186 178 106 200 185 113 154 151 125 194 159 117 157 107 103 133 110 142 167 111 104 104 109 104 120 145 92 95 106 97 130 147 141 102 125 143 142 140 130 137 127 103 94 131
239 223 226 192 189 205 176 170 194 104 178 172 77 137 67 162 85 76 135 101 104 88 93 83 157 150 95 90 101 103 109 109 138 107 113 117 113 148 142 116 91 133 111 115 131 127 135 130 132
258 216 220 210 186 156 159 165 164 193 188 209 162 168 84 82 142 111 149 161 71 115 109 135 87 105 110 108 109 91 118 147 152 112 131 117 136 122 109 147 119 134 129 149 126 128 146 136 145
260 237 214 197 214 198 175 177 178 178 192 187 189 161 177 81 68 78 164 109 117 76 115 82 86 150 155 159 120 135 96 141 141 115 87 122 140 137 140 157 138 137 148 138 148 124 120 93 117
264 211 204 235 205 213 207 176 180 172 185 201 181 169 170 184 86 116 174 124 87 79 82 83 77 90 160 153 113 114 116 111 81 128 119 122 155 149 147 125 131 128 129 134 141 136 131 124 101
270 248 205 205 223 200 213 186 179 178 174 188 202 186 176 159 175 163 183 173 155 83 73 132 114 82 93 158 82 84 139 166 115 126 124 124 132 141 146 150 151 152 160 131 129 126 118 84 89
252 248 244 203 194 186 191 144 193 128 175 181 190 190 105 169 152 173 139 85 122 77 77 152 105 82 79 78 78 124 80 78 104 86 77 83 124 112 87 131 148 87 147 121 141 113 159 106 146
273 246 248 211 189 175 189 204 156 188 177 185 188 207 206 189 171 154 181 178 128 79 78 78 154 124 100 77 139 113 77 87 78 161 110 146 152 139 152 130 151 77 147 95 145 120 148 158 155
278 288 249 225 207 180 187 187 197 172 167 186 181 204 205 207 192 171 157 172 157 171 179 172 176 131 87 87 150 82 84 74 85 127 158 161 119 104 100 92 143 142 151 152 121 111 154 153 151
281 276 273 219 222 176 183 191 183 193 166 190 184 179 201 175 197 179 177 156 171 158 158 161 174 138 110 111 163 156 156 155 92 148 81 84 87 131 94 93 165 158 154 149 150 153 166 169 169
280 277 274 249 247 207 186 193 195 186 193 182 196 185 182 208 185 197 180 174 168 166 180 153 160 179 175 184 190 178 164 156 152 148 146 141 140 143 156 167 164 157 168 159 160 162 155 150 157
273 281 276 278 241 255 205 216 197 206 218 188 206 187 185 192 208 186 195 184 169 168 169 146 151 159 170 144 175 179 175 181 168 158 151 153 147 154 155 150 140 130 144 140 139 164 142 137 150
279 280 284 284 283 248 253 216 203 210 207 221 197 197 182 184 186 186 205 192 190 180 181 170 169 169 143 149 146 148 127 127 176 176 170 180 178 161 154 153 153 166 151 152 153 162 170 144 169
282 276 277 284 291 290 267 236 214 206 185 165 162 180 192 185 190 191 156 207 196 192 178 184 173 159 161 161 158 175 190 163 177 167 183 181 185 186 189 188 188 176 165 159 164 163 159 154 160
274 271 271 276 272 275 283 272 234 223 200 164 189 189 166 188 193 187 198 202 203 205 190 186 194 182 165 168 166 147 145 153 154 174 173 164 183 182 187 181 185 180 182 165 190 184 178 173 180
270 270 269 271 267 276 281 282 294 222 226 202 170 168 169 171 193 193 190 203 160 170 219 182 192 184 180 175 133 156 167 157 153 157 153 152 161 174 176 180 173 174 156 178 175 164 163 177 178
281 271 268 269 271 302 298 294 268 264 226 198 213 260 174 171 174 200 206 184 202 195 169 220 205 181 177 186 184 174 168 167 175 177 169 165 163 169 172 173 158 171 160 161 157 184 162 130 171
308 286 264 284 279 298 337 300 293 283 230 232 218 262 178 182 179 180 179 201 186 176 166 155 187 212 198 189 189 192 182 172 169 168 166 167 168 169 168 169 169 179 178 148 136 153 163 163 166
287 284 301 270 272 275 320 355 287 275 259 240 207 225 191 198 186 184 177 150 207 157 193 191 212 186 183 210 200 191 187 181 179 172 177 178 177 178 180 180 178 177 156 164 133 136 174 175 162
323 323 316 289 271 258 310 337 322 278 276 256 242 204 210 186 196 200 192 177 188 167 180 201 102 167 196 194 219 210 192 191 188 184 186 185 178 173 174 169 170 177 178 178 176 145 166 175 173
315 290 322 293 313 274 277 290 332 299 275 274 256 238 222 211 208 200 204 192 178 198 186 176 218 214 173 171 180 181 154 205 194 189 188 183 180 183 181 178 177 180 179 185 179 179 191 175 181
297 304 315 323 317 279 269 271 298 308 280 278 273 264 261 232 232 234 218 208 195 187 204 204 178 197 172 168 166 181 183 187 159 157 205 193 182 188 189 186 186 185 146 186 182 181 187 190 184
296 292 310 315 307 314 274 282 289 312 287 282 278 272 265 259 251 244 238 219 215 204 196 208 205 208 237 173 174 161 163 181 220 225 199 204 208 175 199 194 193 195 194 193 191 194 175 193 190
298 295 292 302 322 323 319 280 263 257 307 305 279 279 271 267 260 255 252 242 230 216 209 196 222 217 193 214 218 179 174 175 171 169 162 163 154 152 164 151 172 202 204 175 190 170 205 201 200

GFSSGP_2pvu_pres_093.txt.gz
Presure
191 132 147 135 133 138 82 76 182 163 186 91 83 118 182 146 165 126 82 143 163 169 159 131 133 102 101 103 110 100 148 125 112 150 95 104 128 129 102 112 105 109 122 140 137 132 137 126 125
205 148 136 156 141 140 66 69 198 155 89 79 90 102 89 144 122 147 153 88 94 118 87 172 163 110 95 108 152 107 103 130 119 114 132 106 120 105 124 97 103 103 118 103 120 110 128 125 121
220 124 148 165 148 134 138 129 155 132 164 178 164 101 105 100 132 93 162 97 94 111 173 172 170 145 96 91 109 119 96 142 159 104 125 120 140 136 131 113 123 136 142 130 134 135 127 141 139
260 204 130 143 171 146 157 120 203 175 172 101 175 96 94 93 91 113 110 152 141 132 151 96 95 87 158 160 107 121 97 97 94 152 130 130 132 96 142 129 119 138 98 97 143 130 150 108 130
170 249 226 135 169 135 164 132 156 203 191 76 167 172 144 164 81 92 106 100 158 138 95 109 91 94 151 92 150 105 125 118 97 101 88 98 96 131 122 141 143 142 125 136 139 146 128 140 142
188 252 222 210 183 170 157 138 147 95 194 131 164 162 154 97 162 94 97 91 100 107 119 134 124 152 102 99 97 106 100 101 107 91 96 102 115 124 141 130 130 126 122 131 141 142 147 122 118
277 246 164 174 196 182 158 141 158 130 196 183 136 80 78 168 164 112 99 100 97 103 98 96 150 132 84 166 101 105 94 90 105 109 133 140 96 96 164 114 117 102 133 89 135 134 133 140 136
261 269 202 228 176 183 153 156 63 131 163 194 188 130 67 150 108 169 104 170 101 100 91 140 139 135 160 92 157 99 159 99 105 102 133 151 133 150 115 117 132 91 119 92 113 118 114 105 79
246 258 194 236 214 185 85 174 166 161 163 108 190 162 73 81 71 86 164 69 109 148 107 102 128 128 84 142 124 132 158 128 98 106 107 112 130 149 142 114 128 134 138 140 136 139 141 89 139
248 241 228 194 189 199 179 177 175 168 172 171 110 117 161 92 132 117 98 175 141 160 104 124 93 134 156 159 145 146 133 142 132 107 102 125 141 135 146 155 132 160 135 105 123 143 154 135 136
247 233 243 169 194 198 188 180 181 178 170 178 176 198 183 194 138 95 109 76 111 171 98 159 136 140 88 93 90 162 106 108 107 85 111 140 87 104 149 147 132 128 152 91 123 131 126 129 156
282 244 235 126 183 220 193 190 177 190 175 176 170 194 192 170 171 160 94 176 72 165 165 74 143 110 81 77 79 86 97 107 151 107 88 137 101 91 142 141 140 128 154 148 103 87 153 129 149
295 252 233 268 143 197 187 199 179 184 183 175 143 174 196 189 191 177 166 171 170 108 173 81 81 75 77 76 123 87 79 127 81 79 79 82 123 84 82 79 138 130 99 108 96 150 133 145 121
291 289 246 232 257 248 197 215 187 185 184 173 179 154 185 190 188 192 164 164 172 158 153 171 141 80 76 82 126 79 78 116 83 104 138 75 76 86 79 116 142 83 103 150 122 94 113 133 117
291 252 263 241 237 255 209 217 211 101 186 178 182 178 165 177 191 185 196 186 162 166 176 143 79 87 83 87 73 91 81 147 139 81 86 84 84 90 93 145 146 163 85 163 117 156 155 152 166
281 287 279 243 256 243 250 227 203 195 187 192 176 174 162 167 180 185 153 180 169 165 146 166 176 178 107 90 165 162 140 92 76 83 143 152 123 150 136 154 150 155 161 161 160 160 166 167 160
287 278 294 266 249 248 252 252 214 212 190 201 189 177 177 177 177 191 185 189 188 170 166 171 143 177 181 178 172 171 170 172 171 172 97 165 160 140 138 151 155 146 147 144 149 148 157 145 130
291 278 281 268 251 249 248 212 214 189 186 200 203 179 185 181 175 176 205 186 189 182 180 167 170 160 173 180 154 168 179 169 177 167 178 179 176 173 170 168 144 145 148 157 171 174 174 153 153
282 282 277 283 280 252 251 258 172 217 187 197 206 196 187 186 181 178 173 180 222 192 195 181 190 171 154 130 169 176 152 153 157 172 128 168 163 168 173 167 168 168 172 174 177 180 183 181 164
293 290 227 278 281 264 258 261 261 206 170 176 188 208 143 189 188 188 178 177 179 206 157 199 194 175 173 173 172 176 147 142 142 158 154 157 164 163 159 161 165 181 153 181 201 152 176 189 174
278 281 287 298 284 276 280 271 264 251 186 161 168 184 185 186 193 168 195 189 179 180 191 172 191 193 186 181 177 170 164 166 161 174 151 145 162 150 152 169 177 167 158 152 150 148 176 154 167
273 277 290 283 287 304 299 285 274 275 238 173 160 171 186 176 182 185 162 197 183 183 182 185 201 193 188 186 186 180 180 178 166 151 158 162 159 158 147 151 157 162 191 176 157 165 173 166 173
281 274 282 289 297 296 294 309 277 283 285 269 166 182 186 187 184 179 193 190 189 186 182 183 190 191 205 202 175 180 189 180 166 181 167 155 158 160 161 166 170 159 182 175 174 169 169 163 159
339 274 286 276 274 294 293 293 288 297 282 289 283 200 188 190 193 182 186 171 190 186 180 180 186 190 194 174 202 256 182 181 188 182 176 171 173 172 168 171 169 169 169 170 169 171 180 170 164
319 330 265 264 283 291 281 290 276 239 264 288 283 271 227 208 198 195 173 201 163 169 183 188 188 189 188 194 191 184 201 197 182 179 181 181 180 176 174 178 177 172 171 179 178 165 173 177 178
313 306 313 268 275 269 257 271 265 246 274 275 281 279 269 266 222 209 197 186 168 211 181 202 183 191 190 184 188 174 159 168 175 203 142 143 182 174 174 178 181 181 180 180 180 178 183 182 189
319 338 335 349 309 303 272 258 257 256 268 266 269 286 287 281 266 248 206 200 204 173 170 171 173 174 187 199 202 180 179 199 207 160 167 201 198 199 196 189 188 189 188 188 183 188 176 179 179
302 320 326 338 334 318 300 262 256 261 271 278 298 358 291 281 265 259 249 202 203 210 220 219 179 178 173 172 189 203 211 190 191 169 196 193 182 189 177 200 169 152 154 168 191 177 191 190 176
310 296 312 302 302 320 299 305 269 258 262 272 305 329 316 311 283 268 259 246 214 211 209 197 180 181 182 178 175 177 198 192 182 194 205 181 169 171 168 167 195 180 215 212 209 174 154 173 159
309 309 296 318 311 304 328 311 304 311 258 255 259 325 316 294 278 276 266 257 246 233 207 219 182 185 195 196 191 185 182 187 210 172 186 205 170 171 171 171 161 171 171 220 167 161 161 164 206

GFSSGP_2pvu_pres_096.txt.gz
Presure
247 177 148 155 120 140 145 128 136 141 81 143 93 91 170 168 143 144 150 123 123 126 165 176 132 124 105 144 88 91 100 92 108 149 132 113 97 104 136 141 121 135 138 109 116 114 118 118 129
102 248 163 133 143 116 154 94 78 95 123 178 90 87 88 106 166 104 158 132 125 99 124 165 111 92 137 115 104 107 108 107 116 128 108 165 130 129 150 139 144 112 116 125 136 135 134 114 121
129 126 146 157 168 125 109 101 71 97 134 150 168 120 99 103 155 150 180 157 88 100 117 159 142 141 176 116 92 121 119 133 114 97 106 159 138 118 115 111 131 132 130 139 130 141 140 132 123
290 119 128 183 190 170 161 123 146 136 127 186 183 155 117 89 113 163 118 153 163 160 151 130 114 111 173 127 135 168 129 102 106 100 101 118 105 160 135 97 149 136 126 139 143 145 142 145 143
252 161 169 216 147 141 151 141 142 150 147 82 192 154 106 145 83 102 103 107 104 125 90 137 142 151 94 147 98 109 122 127 122 139 124 95 92 113 141 100 130 122 133 132 125 140 129 121 135
257 271 197 193 192 180 164 129 169 157 124 78 101 183 139 149 95 93 90 117 106 96 110 167 92 115 84 131 137 166 136 93 130 97 97 135 98 97 98 91 103 131 136 131 115 129 127 125 140
269 257 183 229 210 106 176 142 135 156 151 136 130 187 79 151 130 92 116 93 90 112 141 134 136 88 141 154 168 129 102 146 107 148 91 104 127 120 123 97 104 110 158 112 144 125 125 133 139
159 245 232 200 187 211 186 182 132 161 157 88 74 159 179 83 167 153 156 127 96 94 91 97 148 98 145 166 145 93 126 90 93 138 141 144 101 105 106 111 128 136 147 107 143 119 113 116 119
207 275 255 200 247 172 168 190 138 173 154 161 126 135 180 192 183 134 75 137 169 101 101 102 106 97 91 101 135 164 97 154 121 93 105 106 153 107 108 111 113 139 103 139 146 150 142 130 147
298 272 242 236 259 154 224 204 186 171 165 143 158 165 134 185 138 69 142 97 138 146 189 134 89 104 94 103 148 142 144 124 119 159 159 143 107 125 94 111 100 114 107 121 123 76 115 157 106
288 309 245 178 213 225 215 212 216 144 174 158 170 170 146 175 177 163 99 93 85 174 78 91 152 87 96 138 95 88 149 132 95 146 166 161 77 102 133 94 111 93 82 113 129 143 88 118 125
276 271 272 230 199 247 230 209 180 179 163 166 158 167 165 143 96 112 126 88 157 81 76 170 171 167 87 132 158 77 139 90 88 154 108 161 97 82 77 151 119 82 85 76 83 144 157 120 156
271 276 266 255 126 262 227 228 215 204 170 172 161 166 163 167 170 192 152 172 126 81 113 114 161 157 113 159 74 96 126 77 80 77 100 77 77 83 79 82 75 93 83 82 116 141 82 131 120
318 268 271 260 244 149 243 211 182 190 185 174 172 167 167 165 164 193 172 193 182 165 165 139 112 117 123 85 79 76 81 79 87 99 143 84 83 105 130 127 136 82 103 93 111 147 141 149 165
277 283 277 244 255 243 251 222 173 217 180 174 170 171 169 162 168 167 191 181 187 180 169 185 180 163 86 172 138 77 77 79 82 150 86 80 155 146 81 88 80 147 152 157 161 157 163 153 148
309 265 260 260 235 246 241 245 217 218 206 170 173 177 174 170 160 170 162 187 186 178 179 162 169 177 180 102 83 154 151 167 81 81 93 80 91 96 100 132 142 137 142 150 152 136 139 149 165
281 308 270 293 235 223 244 237 177 206 184 178 176 176 173 180 172 168 147 171 188 192 179 187 182 157 170 177 168 142 162 162 150 126 124 161 123 161 160 167 168 132 171 171 172 168 170 175 163
283 301 278 270 252 242 236 235 237 173 167 205 175 184 176 188 179 171 167 166 174 182 189 182 171 194 163 166 160 165 164 168 164 167 168 168 168 161 161 163 165 167 163 170 174 180 180 182 178
289 287 301 286 274 253 256 235 231 245 188 183 191 191 176 172 187 173 170 171 168 173 176 224 217 172 211 187 167 154 151 137 158 170 164 171 158 152 152 163 166 161 162 177 127 172 171 172 157
309 298 291 291 283 277 267 266 250 234 234 235 201 202 188 175 187 182 182 177 168 170 160 198 179 214 182 192 197 186 168 163 166 156 129 167 176 165 148 156 170 153 165 160 147 153 149 155 143
314 291 306 294 232 289 279 267 269 245 237 196 182 201 206 185 173 185 188 178 176 174 170 163 184 182 181 183 154 202 199 184 171 168 75 167 160 160 151 150 178 145 154 152 163 166 168 152 157
297 292 286 286 297 296 293 274 270 267 255 258 211 236 143 211 191 183 187 190 171 174 166 172 166 172 173 180 185 181 142 187 182 179 165 164 163 160 161 165 162 154 166 171 162 164 163 159 171
294 294 282 284 286 285 287 305 287 273 269 254 260 288 239 186 202 191 194 202 192 174 176 177 173 173 169 170 168 177 174 219 187 208 210 183 170 171 174 175 166 171 168 171 171 168 143 183 169
331 303 301 283 283 283 285 304 292 299 300 268 254 259 244 240 196 172 187 195 198 186 182 183 176 179 173 166 173 172 169 176 204 180 170 183 172 177 179 178 167 173 175 163 167 173 175 171 179
307 316 338 278 281 295 281 288 280 299 309 282 277 268 248 189 188 185 154 174 183 191 192 188 190 184 181 188 185 172 170 175 177 204 201 193 206 205 175 178 173 183 185 183 194 182 183 187 176
327 327 288 279 292 285 280 275 274 278 284 286 286 278 273 262 237 162 167 173 164 180 180 178 180 182 186 194 188 185 184 173 172 174 178 195 168 195 201 193 187 122 183 175 182 156 157 184 182
322 324 330 349 275 274 291 298 284 263 301 283 282 290 317 313 260 264 197 182 181 173 186 193 182 180 183 185 182 192 190 193 189 187 175 177 181 181 166 166 174 188 159 183 155 160 190 191 191
325 304 322 325 310 293 277 271 273 265 278 283 274 276 281 282 273 253 191 167 197 189 189 192 197 194 186 192 195 163 163 166 193 186 186 190 188 183 181 183 191 182 198 187 180 174 174 178 181
329 315 301 312 315 335 295 284 273 268 269 282 274 278 281 277 271 274 248 253 284 269 188 184 188 196 199 197 195 198 200 164 169 164 169 185 190 193 185 189 176 184 188 191 203 208 178 170 176
324 324 310 301 327 316 334 296 346 286 277 269 271 274 282 272 271 265 264 268 270 277 256 269 262 217 205 200 199 203 204 201 168 170 172 171 171 173 179 191 195 204 207 175 181 198 196 160 161

GFSSGP_2pvu_pres_099.txt.gz
Presure
117 121 129 127 140 128 154 154 115 103 125 153 94 88 165 162 175 170 151 170 162 131 153 148 140 152 114 94 123 101 105 90 112 98 114 109 122 123 117 121 115 145 150 143 98 106 102 125 127
155 134 145 119 129 148 148 128 123 121 127 139 142 90 90 173 151 164 157 169 142 145 95 132 89 125 151 116 126 117 127 95 119 94 151 102 113 117 115 142 119 115 138 122 143 144 125 140 124
138 144 127 131 118 148 149 125 115 119 139 149 138 91 93 89 174 133 115 140 168 164 170 124 121 132 148 174 134 137 134 150 126 107 96 104 96 139 106 102 154 156 139 136 149 141 134 123 125
134 167 148 115 111 139 157 138 159 65 129 158 80 175 158 98 151 93 171 90 89 146 151 170 148 140 109 172 183 173 90 171 110 127 145 109 130 115 114 95 95 127 149 110 122 129 96 106 100
152 131 137 157 149 139 117 140 155 171 125 98 68 100 169 115 92 160 121 170 161 168 155 90 119 117 124 122 94 142 116 100 131 101 106 140 147 105 94 109 101 94 97 144 110 152 152 120 125
133 162 158 154 145 111 168 120 143 157 126 128 104 104 162 133 176 117 95 131 150 90 153 174 154 160 139 126 86 140 163 139 95 132 98 103 132 92 139 97 99 126 123 103 125 133 148 151 111
160 137 165 169 150 166 172 191 131 184 134 125 157 138 179 131 119 187 153 96 173 158 137 179 176 114 102 98 84 134 97 106 112 135 168 139 89 91 104 105 123 111 100 142 114 100 138 128 140
319 332 264 302 182 179 132 148 196 170 174 139 136 148 101 183 84 118 76 92 83 81 85 140 121 103 98 98 96 160 154 137 97 171 165 93 160 106 163 111 106 148 108 109 113 113 87 129 128
299 281 270 166 299 238 194 161 199 149 176 169 125 153 116 163 177 151 192 190 152 109 127 101 99 131 98 153 130 143 121 93 102 154 165 166 145 99 112 124 142 144 86 123 96 114 108 140 119
290 276 305 315 234 285 198 178 216 182 175 151 134 140 154 67 109 128 167 166 191 179 167 127 95 99 100 102 105 121 89 111 119 112 168 170 165 166 163 158 161 133 166 124 133 143 106 120 78
276 278 279 269 233 282 221 231 188 193 168 169 149 135 148 156 142 69 139 142 162 157 185 178 95 121 106 101 103 96 100 103 113 105 155 88 121 100 150 156 91 96 160 136 137 139 81 82 74
294 261 274 281 297 284 221 196 184 194 189 177 168 139 165 146 156 156 171 161 214 119 77 166 159 81 95 156 182 116 102 103 92 91 104 142 117 92 161 161 151 83 89 77 156 73 107 77 147
288 273 262 292 62 218 243 197 223 204 191 177 181 157 148 160 147 152 128 113 140 145 106 82 77 143 109 178 148 171 150 79 79 78 91 79 77 80 144 112 85 84 104 116 107 128 85 109 152
275 269 274 264 268 217 264 227 172 148 203 187 171 177 164 147 156 146 180 158 140 137 181 131 81 108 149 76 151 189 76 191 111 108 114 82 83 99 132 110 78 83 80 103 80 118 77 97 142
253 295 266 270 271 266 250 258 195 221 213 196 182 166 166 163 151 157 148 199 167 177 168 218 146 145 88 83 85 85 157 165 178 143 84 81 83 84 76 79 85 85 140 143 152 148 151 146 151
260 249 275 285 281 264 247 262 178 190 211 202 194 180 175 159 146 157 155 149 173 173 140 149 166 184 167 178 162 166 109 147 169 87 100 100 168 101 77 153 102 156 103 121 151 151 157 167 170
267 256 253 284 280 254 266 292 249 192 202 215 209 189 172 165 161 151 151 157 173 161 185 163 144 202 152 168 162 169 173 172 119 84 81 83 78 120 162 161 160 162 163 164 165 167 168 168 171
300 271 269 265 296 291 262 232 271 190 224 209 215 205 179 167 167 162 159 153 159 156 164 170 160 126 171 167 184 179 175 159 177 179 173 175 138 150 175 161 159 160 162 161 166 170 172 175 177
280 274 264 275 286 285 275 268 224 276 219 230 215 222 188 175 169 169 163 163 157 149 162 150 165 176 165 206 205 189 201 103 123 155 162 161 165 163 162 157 156 163 166 150 150 153 186 157 160
324 304 281 269 267 312 277 260 256 232 257 204 225 211 153 181 175 167 168 171 165 162 154 150 144 163 169 162 175 179 204 187 167 177 177 170 154 150 151 149 151 158 157 158 165 165 180 158 154
283 290 278 284 272 270 271 276 266 245 300 227 242 225 220 183 196 170 113 172 176 161 165 162 163 164 164 160 167 173 182 184 185 167 167 173 187 179 164 165 166 156 159 152 186 187 176 183 179
297 293 280 277 290 299 294 293 273 276 244 250 201 235 206 211 200 179 163 162 148 163 159 168 170 164 172 174 166 187 165 181 185 220 172 168 159 185 182 174 172 183 183 165 173 171 166 172 177
303 286 288 295 286 281 273 296 270 283 227 232 244 240 243 208 157 211 172 174 167 163 169 176 179 162 157 159 169 165 171 161 161 187 184 173 170 175 171 175 190 192 176 177 189 185 174 176 181
339 303 292 288 285 279 281 280 271 296 285 266 219 226 235 233 199 168 210 196 169 173 173 167 167 173 176 165 164 170 169 171 168 170 169 162 163 183 178 187 199 210 203 192 192 195 192 186 182
322 361 302 296 295 293 288 286 290 286 280 277 300 269 245 212 218 199 169 204 190 156 184 179 176 174 177 176 172 164 159 161 164 169 170 168 169 168 172 179 190 182 165 170 194 183 169 183 169
333 313 355 307 295 292 275 286 248 275 287 284 273 275 277 266 250 217 229 250 238 187 212 202 192 177 173 176 173 179 171 168 168 166 167 165 160 161 163 179 179 183 182 182 208 180 176 197 184
345 326 308 346 303 302 290 300 298 294 292 289 283 277 267 265 275 251 219 211 238 223 170 203 204 202 194 182 181 187 170 171 171 171 165 176 174 169 166 165 168 185 179 169 171 180 189 181 182
358 334 310 304 314 328 300 291 276 270 273 270 282 278 278 285 284 282 285 247 226 229 205 226 209 197 199 191 175 198 203 204 171 162 170 173 172 184 185 174 169 171 172 181 199 179 178 177 173
377 341 324 315 308 307 313 295 290 280 273 272 272 281 297 298 290 290 304 307 287 248 222 225 206 214 200 192 172 177 187 204 202 200 165 190 188 184 183 180 164 186 162 177 186 180 179 178 170
385 350 329 313 310 310 307 309 284 279 274 283 281 267 272 278 271 270 276 284 291 281 281 244 242 226 222 171 161 197 195 184 178 196 192 192 192 189 190 196 202 168 161 196 189 166 169 180 177

GFSSGP_2pvu_pres_102.txt.gz
Presure
222 136 168 153 174 153 81 168 166 163 103 123 147 177 158 151 86 175 174 164 157 131 102 180 137 97 161 102 109 97 92 102 108 123 120 100 113 129 139 110 116 105 138 98 126 151 143 132 96
141 131 139 170 126 113 129 119 70 123 133 134 146 123 165 162 136 153 183 168 168 157 157 172 183 149 94 145 116 93 94 131 103 102 92 121 104 109 105 114 117 144 126 121 110 129 127 125 124
148 148 158 138 129 115 136 120 141 127 151 133 97 120 135 85 122 177 157 142 172 165 160 161 155 100 158 91 140 94 168 149 140 119 141 123 96 108 95 141 102 111 97 97 154 112 113 110 100
142 131 103 121 134 125 139 116 127 141 142 159 91 123 133 91 134 87 164 172 134 165 168 162 113 136 151 181 135 156 97 145 151 132 162 132 100 122 105 98 133 95 103 129 94 126 105 129 151
159 72 126 137 130 127 136 130 122 119 201 171 159 102 117 132 170 114 88 150 170 157 89 169 162 156 90 130 122 124 117 111 113 160 96 148 147 147 135 93 96 118 114 100 96 129 122 128 122
119 150 188 137 143 128 145 140 128 123 169 155 157 137 78 89 140 157 169 164 88 164 141 96 169 163 145 105 168 130 149 94 99 150 170 124 95 109 133 93 97 130 132 107 116 104 142 130 146
305 177 143 164 83 119 158 120 150 157 128 147 166 159 159 80 83 83 157 89 105 165 165 173 168 163 96 145 137 107 94 91 137 140 112 104 98 174 92 94 93 103 159 114 107 102 107 113 89
176 127 165 145 129 69 70 139 141 149 178 119 162 167 158 162 132 131 152 174 99 167 98 163 96 159 144 158 116 152 84 90 151 148 152 143 100 103 170 173 163 155 101 123 161 97 136 106 116
199 194 153 179 158 116 128 114 142 151 151 199 141 143 160 148 140 97 88 161 139 156 139 101 83 100 177 134 97 96 105 163 97 145 96 147 146 155 103 153 138 96 154 114 120 78 115 103 86
322 319 246 262 169 167 152 141 142 148 152 180 188 122 162 157 122 214 148 144 132 76 174 130 95 91 102 97 88 153 140 182 159 141 90 94 156 148 139 176 170 133 163 126 129 160 79 165 111
305 285 295 272 262 88 195 228 153 159 154 160 195 178 150 165 123 144 144 151 156 157 167 155 162 96 105 90 95 99 99 100 102 88 96 105 152 86 100 105 97 104 169 105 152 93 97 75 74
302 275 301 284 277 310 280 331 192 164 155 199 213 190 155 166 141 125 145 154 141 205 154 87 86 132 177 172 161 99 104 101 103 100 98 98 99 92 81 84 83 79 79 146 78 88 143 93 115
289 273 287 289 262 283 297 335 270 241 214 182 197 161 179 163 112 143 131 176 141 75 122 198 116 146 185 141 137 108 92 149 117 144 169 133 77 141 117 135 74 143 89 75 90 80 83 99 126
301 305 253 187 295 265 253 306 272 253 203 167 191 197 195 161 167 149 140 156 143 162 149 153 132 78 81 109 88 158 158 129 112 165 182 76 77 92 130 156 83 80 81 143 139 94 74 88 120
303 284 272 266 256 288 250 287 314 260 228 168 161 187 210 148 174 157 151 132 122 135 150 150 124 131 148 120 93 143 152 172 94 179 139 190 184 189 169 167 122 81 75 76 87 146 89 151 155
274 278 269 263 263 281 297 241 319 186 156 211 203 160 186 191 169 154 149 148 159 155 178 162 130 171 118 131 148 160 170 82 99 83 138 138 146 107 157 112 155 76 98 124 163 162 163 162 164
270 262 274 261 263 253 296 274 308 244 222 209 205 171 169 173 162 170 151 154 136 154 159 126 151 143 142 165 163 142 166 190 170 120 128 164 140 119 164 115 116 157 153 157 158 166 128 166 165
301 262 252 265 268 274 254 285 261 293 256 227 209 204 189 189 182 174 142 161 140 142 148 153 140 171 152 191 169 164 176 161 143 150 183 164 156 162 156 158 189 171 171 170 157 161 164 165 165
276 293 262 252 250 269 281 295 285 256 277 233 209 158 184 234 158 199 178 164 153 158 148 147 168 144 145 171 175 148 212 126 174 184 178 179 180 170 180 175 152 157 178 155 142 144 166 159 160
276 275 288 258 273 300 265 279 277 290 287 254 189 159 164 202 215 160 177 163 143 148 157 146 134 127 153 161 175 172 131 149 210 206 204 158 179 182 168 156 169 168 175 169 170 173 149 179 180
275 220 276 263 271 272 276 273 289 301 278 247 240 207 166 206 194 169 186 174 130 168 164 161 157 168 149 164 177 212 184 177 133 197 165 165 199 170 198 177 170 165 161 159 176 176 173 182 188
298 289 284 268 267 262 259 262 307 279 287 197 250 188 175 169 192 187 194 186 177 174 156 160 160 149 187 151 150 151 173 163 162 138 170 165 167 160 186 174 180 176 182 161 162 164 160 161 163
304 284 289 236 265 274 271 305 283 303 273 303 209 242 243 196 204 198 191 186 180 181 173 169 168 167 167 186 161 169 152 166 165 171 164 146 169 168 186 186 160 166 164 185 179 165 174 174 170
309 296 295 291 278 278 274 266 278 294 298 268 299 257 244 243 185 186 197 193 186 181 180 163 176 175 160 161 163 168 163 158 160 160 157 162 151 158 162 154 159 146 160 168 163 164 173 214 163
327 309 301 290 280 275 272 273 289 275 273 289 301 260 260 249 243 235 190 197 192 186 190 181 150 159 169 171 160 151 166 160 151 164 164 171 166 164 146 162 163 164 158 159 157 202 165 179 171
352 317 170 304 291 289 273 274 272 251 275 270 278 273 291 206 251 252 184 228 186 198 188 182 211 178 170 167 167 169 166 144 165 138 160 158 177 160 161 162 164 151 155 163 154 169 177 155 172
418 361 358 185 302 302 285 276 271 268 261 262 268 273 277 259 266 230 247 246 240 232 206 185 185 181 186 182 174 165 168 175 155 160 170 170 169 171 180 166 135 171 166 164 162 167 170 175 155
395 396 331 350 339 312 297 287 271 277 275 269 269 284 283 281 279 264 234 235 242 249 181 205 169 192 185 185 172 161 174 170 173 177 176 177 159 182 179 173 182 168 171 180 167 163 161 167 173
148 389 369 324 343 307 299 311 291 279 274 270 263 265 274 273 280 279 273 222 223 227 230 234 226 184 186 153 161 149 172 160 159 154 174 179 178 171 186 181 158 183 183 159 171 177 179 179 180
449 152 383 273 320 327 303 286 296 290 277 280 274 268 259 264 267 269 276 297 289 215 218 230 214 211 218 221 225 229 226 223 183 160 154 190 143 182 190 163 191 212 213 210 198 195 146 180 181

GFSSGP_2pvu_pres_105.txt.gz
Presure
108 102 134 111 108 146 174 154 116 171 145 138 145 140 132 136 180 171 138 168 167 139 98 92 96 90 94 102 100 95 101 160 101 115 127 108 116 106 109 111 96 121 135 111 112 126 95 145 109
145 241 135 105 131 132 130 178 128 126 143 163 123 135 113 140 89 169 163 167 170 173 161 119 152 97 98 138 126 154 97 147 98 142 94 99 102 115 95 104 113 100 130 96 130 97 115 127 117
136 133 146 117 139 131 145 136 170 136 108 134 153 87 134 88 137 143 81 112 162 167 169 151 134 160 103 172 165 162 117 127 120 132 115 133 90 128 97 102 95 116 94 133 96 127 97 101 128
121 134 132 143 175 139 147 138 143 136 116 144 141 150 108 157 137 137 183 155 173 162 177 175 167 161 152 159 104 91 162 173 108 159 168 161 156 116 128 148 148 91 94 131 100 124 93 150 102
146 137 143 148 134 140 116 172 90 168 135 130 87 160 161 112 135 111 122 124 161 176 165 169 174 167 155 159 98 105 152 104 137 132 151 166 141 113 139 169 125 91 95 135 125 113 104 160 103
131 120 111 137 132 103 145 158 149 189 151 136 123 129 160 155 125 143 124 87 106 132 163 166 163 161 163 169 127 121 152 167 157 104 96 99 162 137 178 118 103 92 94 118 101 136 104 103 102
104 132 125 138 87 91 102 139 118 152 150 156 131 112 203 143 163 130 136 136 142 93 149 163 166 168 166 150 169 129 163 162 120 84 101 120 122 143 126 100 94 94 169 118 126 101 153 164 76
139 131 110 107 115 115 77 121 139 128 98 151 143 150 110 145 177 80 115 123 135 137 174 169 98 170 164 168 166 92 101 144 94 146 92 111 93 142 132 139 100 110 93 100 99 156 150 89 118
122 123 117 133 79 158 163 131 139 136 132 150 145 145 138 151 181 165 141 155 118 117 113 117 89 124 163 165 169 118 159 96 164 103 96 96 151 101 92 106 94 130 94 174 140 95 74 76 95
135 130 128 129 134 110 167 118 155 77 104 127 132 139 178 123 113 101 141 129 148 110 146 141 87 133 163 131 141 106 159 153 140 121 163 97 157 137 87 165 95 140 132 86 175 82 158 169 96
155 146 139 120 261 295 85 144 82 127 128 133 127 139 139 153 149 116 142 217 204 128 98 158 165 125 166 88 119 181 90 161 91 96 178 164 145 96 156 107 112 94 94 134 106 102 93 111 80
370 312 312 319 268 123 302 69 132 126 131 135 140 128 141 144 178 139 124 147 152 204 135 76 103 153 179 177 167 151 92 89 96 97 101 128 115 87 95 168 93 85 85 110 77 84 84 78 76
326 309 291 283 287 191 194 266 111 134 137 143 124 141 142 128 142 156 171 122 154 150 108 135 174 139 135 150 136 127 152 132 152 176 171 99 102 140 103 98 103 127 86 83 124 150 85 93 118
316 287 288 276 282 201 123 297 289 186 145 147 129 140 134 139 140 153 170 194 159 167 124 142 159 152 141 155 152 147 153 83 148 129 112 111 181 136 96 79 137 156 81 110 148 87 78 79 82
291 309 282 269 267 279 299 285 295 83 254 201 152 146 138 146 140 165 160 174 160 69 164 76 133 79 75 152 158 130 91 78 132 76 195 91 128 167 184 143 137 83 182 79 135 160 80 89 132
305 300 286 279 291 284 270 176 313 289 267 241 244 163 157 143 141 162 186 172 176 158 149 139 134 152 134 148 157 153 157 136 114 167 84 165 146 162 167 167 150 156 144 154 72 97 107 81 157
273 294 285 294 259 283 271 296 304 283 271 229 208 228 208 155 146 151 181 172 161 163 159 164 150 160 184 176 146 123 134 124 116 82 152 158 112 179 184 195 205 138 155 166 175 167 164 167 169
280 283 272 286 275 262 282 283 303 287 266 227 220 199 223 189 179 196 176 178 153 156 169 153 159 152 136 138 190 162 152 135 142 149 133 161 203 164 162 146 171 176 169 155 167 170 158 168 173
316 291 275 266 261 284 275 272 307 318 270 231 214 205 194 218 209 187 181 213 159 159 166 158 162 158 154 151 152 159 179 176 152 199 168 167 169 139 145 165 169 193 180 171 177 169 177 159 178
277 295 282 297 277 282 287 264 309 316 276 239 225 218 204 190 217 175 157 175 171 167 170 203 154 160 155 158 152 136 124 181 176 163 181 177 175 128 204 193 202 171 164 166 160 176 170 163 158
284 261 286 270 262 265 286 320 273 299 267 264 230 216 206 203 194 213 163 159 150 174 166 175 179 173 159 160 158 151 125 149 181 174 170 202 168 176 179 136 188 152 183 157 174 158 177 178 179
293 271 260 289 266 272 268 257 248 329 251 266 257 228 208 211 209 185 184 188 155 183 175 177 158 190 198 193 170 158 162 195 146 203 185 171 157 163 142 154 148 182 158 162 168 170 170 166 169
297 294 283 268 281 268 269 265 264 317 305 208 255 237 217 207 218 202 193 185 166 228 157 177 147 198 170 174 180 156 166 156 165 159 156 164 154 144 174 132 161 163 159 166 149 156 156 158 159
320 294 281 274 269 271 272 268 268 304 286 281 273 255 207 217 197 205 199 195 158 182 189 164 171 172 169 196 167 191 165 163 169 159 167 168 166 194 176 164 157 156 158 150 161 171 175 166 174
266 305 289 274 275 266 271 269 259 268 287 279 294 283 241 237 229 207 209 198 187 171 179 186 203 154 154 176 198 172 171 167 168 180 173 174 203 168 165 172 152 164 172 165 144 165 169 154 183
153 351 322 290 281 274 264 266 272 268 260 256 319 302 270 227 231 228 211 180 186 177 158 161 186 184 175 170 173 175 163 185 166 177 165 155 174 177 153 167 170 153 170 158 148 153 161 174 187
198 173 348 324 297 280 271 258 268 267 264 266 306 303 297 252 238 234 230 214 206 189 181 195 180 181 209 219 177 178 217 206 192 171 149 159 166 175 176 171 172 141 150 135 160 173 165 163 172
156 322 354 385 320 309 278 268 257 263 268 261 279 278 288 297 267 217 217 224 221 214 209 199 198 188 188 173 176 178 181 184 178 176 157 141 188 135 162 166 156 162 152 167 149 176 146 176 173
188 459 392 150 356 315 306 280 267 259 264 270 263 240 262 270 282 275 249 233 206 223 178 159 179 196 179 181 176 181 179 178 183 177 178 174 174 140 165 170 169 158 177 178 138 142 176 179 150
146 440 418 388 369 352 336 295 294 279 265 263 270 254 257 260 297 292 165 272 241 229 224 209 213 213 208 189 185 183 181 181 178 168 176 154 178 174 145 135 180 170 188 178 135 179 161 194 177

GFSSGP_2pvu_pres_108.txt.gz
Presure
168 212 133 106 135 140 148 121 105 142 141 75 148 130 138 117 148 149 167 191 112 98 98 116 95 124 91 101 90 89 95 91 98 101 100 101 107 107 116 115 121 105 94 112 138 103 133 97 123
108 117 122 126 126 129 151 152 146 119 138 138 165 122 88 138 146 140 150 168 177 160 118 93 93 95 101 100 93 101 97 98 95 94 104 104 106 102 119 125 106 100 102 103 102 94 111 116 96
97 118 122 90 130 144 119 133 153 154 156 128 155 171 153 123 140 138 85 147 183 172 174 159 159 130 148 140 95 102 93 179 133 92 150 107 94 103 135 113 131 101 96 117 100 128 125 102 104
95 96 180 180 119 140 102 128 129 121 124 174 129 151 160 156 137 123 135 101 145 187 163 172 165 162 159 153 102 150 103 170 90 115 129 100 168 145 148 171 115 156 120 121 95 132 122 157 135
188 164 144 180 147 138 145 143 150 158 139 148 148 128 115 100 123 148 139 135 139 140 130 173 164 174 165 166 150 159 162 152 97 92 107 149 168 147 160 169 137 152 164 96 92 92 153 153 124
130 145 148 153 153 119 121 146 128 152 162 160 186 127 134 154 148 138 109 138 80 141 142 165 178 154 163 172 177 160 149 152 112 144 159 163 159 134 132 135 169 165 163 98 90 125 172 172 101
177 95 94 147 144 136 113 85 149 148 132 161 148 145 137 127 126 134 174 125 97 94 109 148 144 166 167 160 169 175 150 153 124 160 126 149 170 128 93 112 123 174 136 98 150 96 104 171 151
145 118 148 148 204 137 124 113 129 119 113 130 109 145 145 130 117 143 144 128 167 151 85 96 142 160 145 162 161 163 164 162 167 163 146 117 164 121 123 92 162 127 100 94 160 85 97 171 73
125 160 139 123 94 123 115 135 130 138 98 127 126 146 119 144 129 121 173 208 141 139 158 151 139 103 87 159 161 143 167 164 167 165 164 162 130 149 95 110 167 92 94 135 102 92 83 173 89
175 151 169 126 119 106 128 103 110 85 96 127 124 146 123 147 127 109 134 122 126 148 141 143 125 112 148 130 141 141 170 174 162 166 169 136 105 143 131 96 143 89 135 159 82 95 89 94 102
189 154 265 175 154 149 112 124 102 125 108 120 146 110 130 116 127 149 149 176 126 162 111 84 151 140 132 139 93 95 154 159 172 97 106 166 169 145 179 119 143 161 110 170 103 79 91 95 109
390 356 261 179 139 128 127 110 117 111 139 108 82 106 120 148 126 123 157 144 160 154 191 130 159 129 122 136 139 134 134 166 127 179 163 143 166 116 91 104 182 91 93 87 98 72 72 86 97
360 345 346 230 295 140 131 116 81 127 145 83 136 145 132 122 117 147 123 151 156 162 132 155 117 118 146 109 79 150 115 174 151 85 84 85 95 83 127 155 94 97 138 141 91 93 79 80 141
368 327 315 302 302 298 315 237 237 145 152 152 87 134 144 152 138 132 139 136 147 183 175 124 184 151 130 128 152 130 133 140 121 100 167 136 90 127 108 155 182 120 152 84 133 72 196 186 135
319 308 303 313 307 285 290 313 325 166 147 135 107 136 145 131 134 144 128 127 148 147 154 191 124 210 199 128 146 140 160 90 74 135 84 169 123 108 167 124 77 92 95 86 163 142 151 178 183
308 310 299 291 285 293 301 292 120 296 110 162 142 142 137 132 144 110 150 138 139 149 149 209 96 141 135 155 133 158 109 120 81 120 83 130 99 81 181 145 82 82 123 133 184 150 130 188 169
296 281 279 286 283 291 295 295 290 320 313 156 208 141 134 135 138 134 135 135 143 142 143 143 140 183 183 115 192 168 155 165 144 148 143 79 176 180 139 142 157 165 171 177 185 188 158 167 160
273 286 286 294 286 288 274 285 301 292 304 279 278 143 143 136 133 135 134 140 151 165 150 149 187 148 182 166 140 155 150 162 156 146 133 171 162 152 154 141 176 129 157 161 166 150 161 168 182
303 292 291 279 264 268 306 281 302 302 310 273 279 180 143 141 136 135 136 135 142 143 149 150 168 149 158 197 125 153 154 160 161 190 142 119 153 158 103 176 146 158 210 142 149 166 172 177 156
296 297 295 284 270 279 286 293 270 323 307 272 280 252 226 179 146 157 147 151 147 143 141 151 174 151 172 174 189 162 154 157 164 164 121 151 136 171 159 177 168 161 207 124 132 151 183 182 157
295 279 279 307 282 282 287 265 329 319 306 274 265 263 229 202 175 166 164 175 159 155 159 176 156 154 166 151 156 166 136 164 162 133 135 170 138 157 158 143 137 143 161 148 147 127 210 176 165
302 282 307 278 282 290 286 274 262 334 290 279 263 256 217 229 214 214 202 193 192 176 167 176 160 171 173 186 171 155 152 157 148 154 163 153 168 143 138 166 172 152 133 181 179 125 185 166 127
160 295 284 297 267 298 301 284 287 273 301 243 244 228 247 239 215 217 200 213 192 187 188 167 181 167 165 162 172 180 167 157 157 160 166 140 120 157 129 153 177 150 149 162 157 154 159 155 168
159 164 288 291 275 271 282 280 272 286 289 260 228 224 219 221 230 221 201 255 208 188 190 191 183 170 167 186 151 182 146 174 174 187 160 166 173 177 161 163 145 145 169 174 176 200 138 167 145
182 155 311 299 284 275 264 269 281 274 296 274 242 238 233 224 216 221 219 231 209 231 199 201 200 185 161 158 163 150 154 160 166 159 169 173 193 192 169 157 166 183 191 175 177 166 153 150 195
139 148 185 307 301 284 276 262 280 269 287 300 232 230 219 219 222 215 231 227 208 195 206 240 201 170 183 194 162 163 174 186 168 158 174 192 152 161 166 196 172 176 175 158 187 159 192 173 185
165 146 262 295 194 298 285 268 260 272 272 311 234 222 218 219 227 211 209 206 228 219 191 233 208 206 192 183 184 138 185 139 182 172 173 188 173 176 149 159 174 174 180 177 180 160 202 150 173
300 330 227 266 366 315 302 278 272 269 285 277 314 231 221 219 217 214 213 214 193 207 211 203 213 185 184 178 184 156 168 159 170 138 185 174 168 153 186 187 168 135 152 174 169 176 177 161 130
140 165 162 231 358 330 300 283 287 274 272 279 284 304 233 215 220 220 214 216 215 214 206 188 206 202 202 190 186 155 166 156 157 167 176 166 173 210 206 159 188 183 186 163 124 169 145 141 189
148 177 146 401 376 158 241 288 278 281 277 272 267 284 319 237 228 225 223 223 175 208 213 205 201 208 204 208 203 190 186 165 164 195 199 176 164 164 169 176 181 190 176 182 199 145 172 184 181

GFSSGP_2pvu_pres_111.txt.gz
Presure
129 121 203 189 118 139 75 77 78 135 128 123 126 95 116 89 126 145 148 95 100 99 93 92 97 89 91 178 91 91 94 88 90 95 97 98 99 99 159 115 111 116 110 104 91 144 126 114 149
138 156 137 162 127 126 143 112 123 127 145 125 132 129 149 153 113 134 112 155 185 175 150 95 98 102 96 97 91 102 97 96 96 98 100 96 117 96 90 101 94 129 101 109 141 103 98 139 108
147 127 126 138 136 99 148 92 123 162 113 106 95 136 114 149 132 136 133 136 146 171 176 129 99 103 102 96 111 102 93 100 102 110 98 94 101 92 104 97 107 160 114 92 144 138 89 93 143
132 130 162 131 108 166 107 182 166 115 99 125 149 131 117 146 95 127 137 143 127 136 161 171 178 133 110 101 100 96 169 146 115 95 115 173 176 169 161 108 92 150 151 129 165 161 90 93 101
168 128 163 104 126 164 132 114 122 112 148 128 116 162 148 163 164 133 125 136 132 108 96 104 177 179 175 172 142 117 165 153 157 82 160 146 170 116 99 158 154 128 135 100 149 172 91 97 110
165 138 146 139 169 140 102 150 147 110 166 182 138 134 125 126 164 153 140 105 135 134 119 91 146 158 183 170 168 168 162 161 155 154 154 158 180 148 165 172 170 154 113 92 101 176 92 154 93
132 182 120 156 172 175 173 145 153 145 121 101 148 171 137 166 122 148 134 124 146 105 110 135 139 143 152 179 171 163 170 174 166 106 153 146 153 179 161 132 165 101 98 114 153 138 94 168 92
121 116 113 111 125 162 107 134 108 120 157 118 147 142 148 182 162 117 137 160 155 121 126 92 141 142 98 143 178 177 155 152 166 184 152 92 147 102 167 124 149 153 120 118 162 103 110 121 88
138 135 162 170 153 236 141 180 159 131 111 115 113 116 120 146 94 161 125 128 129 145 169 127 112 81 118 127 134 168 169 154 155 157 168 159 167 154 152 135 94 115 98 124 176 100 158 87 93
141 158 161 103 101 179 155 173 96 141 126 119 130 134 144 123 126 131 151 125 128 146 152 197 154 140 95 123 139 102 114 162 163 168 166 166 161 144 170 114 165 149 126 107 154 122 133 77 144
104 87 180 169 124 159 152 119 114 102 109 132 104 120 123 127 123 129 133 87 165 132 128 222 168 177 142 142 105 138 141 134 130 113 152 170 173 172 104 104 128 155 149 149 110 165 162 96 73
184 188 136 148 165 163 147 161 143 132 70 127 109 96 119 117 119 134 138 115 121 159 151 227 109 78 132 122 84 130 102 93 90 91 89 148 118 157 96 94 171 91 103 102 88 98 105 101 109
179 171 174 199 119 175 149 137 101 161 117 132 138 116 115 111 125 144 125 151 143 94 156 152 143 189 207 128 136 119 139 127 141 112 110 138 119 85 71 109 133 99 98 125 175 172 169 137 79
163 285 118 270 157 148 144 139 134 103 132 103 138 181 120 88 102 112 119 128 125 121 113 156 168 140 153 206 154 164 115 144 140 126 150 125 156 151 140 97 119 112 126 126 148 145 150 157 190
177 174 322 214 312 313 240 260 164 157 127 133 131 132 128 91 148 132 134 140 146 147 136 125 121 151 152 136 145 157 127 123 169 135 166 164 116 136 89 161 85 171 84 159 151 79 136 159 187
147 169 325 316 300 307 312 303 282 146 175 91 90 96 108 142 88 132 129 134 116 161 134 140 135 122 131 175 218 124 185 129 168 145 162 138 170 132 135 114 130 123 78 86 172 175 173 176 173
326 321 301 292 289 311 309 314 311 319 160 137 135 100 90 115 141 97 138 135 150 146 152 162 125 137 132 143 145 152 207 164 158 189 144 144 154 150 146 151 135 109 144 163 124 151 146 152 157
291 311 297 290 297 288 285 309 313 277 233 141 152 131 140 153 156 152 166 147 149 140 136 173 137 145 148 142 155 140 165 182 169 169 158 147 136 163 141 128 135 143 157 145 165 132 162 139 159
302 291 309 298 289 300 305 305 304 324 315 148 153 144 148 143 156 158 143 152 135 154 166 142 151 151 158 132 144 139 143 148 145 166 189 149 170 177 143 162 170 119 118 140 188 160 207 166 157
303 293 277 268 289 286 296 295 294 311 315 323 147 141 134 136 146 147 153 164 154 179 156 148 150 147 144 157 152 137 202 144 159 145 200 182 141 187 144 147 133 169 160 127 161 165 149 132 145
297 288 298 275 269 294 292 298 303 297 324 309 303 228 140 139 143 158 139 142 144 145 153 148 143 152 150 155 194 156 147 135 151 137 130 180 170 183 145 149 171 155 151 135 160 165 152 141 180
166 204 282 284 274 288 280 279 311 298 323 300 273 266 200 164 140 140 142 142 142 146 154 148 152 160 147 178 157 167 97 165 189 147 142 189 182 190 151 143 164 156 162 165 180 180 168 140 194
164 199 303 285 282 276 267 278 286 292 320 288 284 276 221 199 197 186 146 183 151 148 150 141 144 146 151 153 158 176 157 165 164 144 178 173 178 153 126 162 153 154 157 134 156 160 142 152 182
150 190 216 293 288 290 277 273 277 297 309 297 298 271 268 217 184 202 177 180 188 212 152 146 147 170 162 173 173 179 186 184 181 173 153 160 181 170 174 131 173 179 146 142 112 139 201 163 170
160 284 271 332 313 287 292 273 272 286 297 312 294 270 275 218 210 212 199 187 196 190 199 175 186 163 159 163 162 175 165 168 164 168 165 192 166 146 156 178 186 147 182 181 158 159 194 151 147
146 141 192 165 321 303 297 282 282 239 284 311 287 306 271 222 207 198 210 200 197 193 203 195 192 187 189 187 176 184 190 195 195 188 186 175 163 148 154 152 162 186 208 187 175 173 152 142 183
150 148 308 205 338 302 294 303 288 300 300 283 284 279 285 246 213 208 210 211 196 205 200 185 187 191 185 179 188 193 148 189 187 168 190 212 214 179 154 174 181 172 161 181 196 178 173 172 187
133 152 164 272 326 325 231 293 320 289 276 264 306 284 264 255 201 218 215 211 198 197 210 198 195 185 202 184 181 188 184 184 187 199 170 192 175 187 168 164 154 154 171 191 179 187 173 173 175
145 141 453 147 404 356 304 199 308 293 287 261 300 264 236 217 242 228 206 216 210 198 194 189 201 193 190 192 182 183 185 183 181 176 179 179 190 213 190 204 181 194 203 177 156 167 175 164 179
149 148 176 151 358 340 346 312 300 299 283 299 276 303 265 248 239 214 222 214 212 194 216 199 204 198 186 190 200 197 194 195 188 174 176 178 171 175 185 161 176 215 198 151 168 186 190 189 164

GFSSGP_2pvu_pres_114.txt.gz
Presure
142 147 137 107 117 126 121 147 98 105 106 149 89 150 142 136 138 143 161 87 95 132 83 89 93 91 106 89 171 91 118 95 97 96 107 100 96 98 97 97 105 96 95 153 103 102 102 90 120
130 138 104 130 66 116 127 78 95 79 113 128 136 129 125 119 148 130 112 120 121 88 100 101 89 109 94 94 89 103 88 99 100 96 97 96 100 101 94 94 97 97 98 117 127 103 106 149 106
148 148 157 156 141 128 102 92 138 85 85 146 109 132 126 143 140 130 119 90 154 149 117 102 101 123 93 99 98 92 103 99 95 98 103 104 103 101 101 101 103 100 94 161 148 134 157 149 129
238 175 190 151 137 148 121 125 92 138 141 114 144 151 148 96 91 139 116 140 138 137 150 164 178 189 103 99 93 107 91 102 99 96 182 107 98 130 117 147 127 112 95 168 161 159 99 161 160
144 170 168 147 143 136 121 98 123 91 119 134 105 142 141 142 71 114 140 125 152 137 149 142 153 174 180 180 117 101 147 118 106 106 173 156 112 102 90 154 180 180 168 140 161 150 129 94 127
142 188 138 145 134 131 87 110 112 112 127 108 142 148 133 158 144 151 140 136 146 141 114 113 113 92 125 182 178 170 164 157 143 116 173 156 161 130 160 139 179 171 172 121 174 127 110 118 141
154 147 176 103 122 139 137 130 90 106 121 104 135 113 110 130 158 162 156 157 137 131 137 133 138 89 96 146 181 108 182 176 163 159 157 160 152 153 147 158 165 180 178 90 118 146 105 115 97
157 162 180 140 143 141 151 95 118 147 188 170 211 178 99 159 126 133 105 124 160 146 131 133 91 136 134 139 144 153 126 186 171 170 135 165 161 131 157 150 119 138 166 169 95 172 103 99 88
143 165 150 179 147 132 76 125 138 129 115 125 158 146 141 158 167 139 140 136 125 157 77 133 134 123 126 81 125 143 145 180 175 117 157 172 173 169 159 151 148 122 115 103 150 148 156 108 101
95 152 169 162 147 141 130 126 115 82 157 109 110 164 137 127 157 156 175 142 162 135 128 155 124 145 131 132 132 120 86 142 134 158 168 166 158 164 161 160 163 161 152 89 123 168 165 150 108
156 158 143 179 188 195 155 140 138 152 128 102 107 143 69 87 120 111 127 138 148 133 125 111 124 111 145 144 128 144 141 148 145 131 131 165 151 168 100 170 162 158 150 164 156 90 106 90 105
156 144 164 134 137 184 114 139 148 173 149 152 174 165 110 111 125 140 84 85 111 109 216 158 156 142 154 118 179 146 141 137 140 145 138 91 91 93 88 97 141 92 99 165 90 138 81 102 91
124 145 166 145 164 150 178 233 156 149 155 166 99 177 127 165 125 111 119 119 122 140 128 116 131 113 151 143 187 95 110 158 136 94 118 145 121 139 141 76 122 157 170 133 78 113 168 129 168
151 140 150 122 158 152 195 157 161 156 150 110 171 163 163 116 159 109 116 115 117 122 121 134 121 133 106 90 134 162 185 180 164 156 146 140 133 79 140 176 132 86 136 159 91 110 183 175 163
93 138 140 179 189 180 170 190 193 194 162 155 161 142 174 159 70 98 92 115 123 109 166 116 117 122 127 119 139 146 193 201 164 134 190 154 101 124 119 161 79 95 125 78 139 132 131 86 78
160 197 324 199 200 174 171 172 287 192 161 161 156 155 105 148 146 189 113 99 131 97 157 143 134 122 128 157 126 114 124 141 176 142 127 155 141 158 163 163 157 165 97 156 137 176 94 119 146
182 169 238 325 307 328 261 245 327 138 156 149 130 174 139 156 163 137 173 86 113 107 143 134 137 120 135 117 123 126 120 120 127 182 193 138 130 165 126 169 158 144 153 157 121 167 122 153 157
266 142 199 315 299 303 315 323 337 352 150 174 155 143 140 102 77 75 121 78 99 137 152 140 146 158 119 133 163 144 137 132 125 129 136 177 161 150 135 160 142 160 124 138 155 141 184 160 146
143 175 279 282 295 307 323 328 324 281 289 305 251 159 111 148 150 141 144 149 178 134 136 134 166 176 192 141 137 163 155 174 139 136 136 143 158 137 123 146 161 170 170 165 117 177 160 110 120
301 305 291 263 269 293 298 322 322 277 291 294 284 158 162 158 155 151 146 149 139 162 166 144 173 152 187 146 167 154 177 128 128 142 150 136 133 153 149 143 142 137 147 155 161 167 163 167 178
185 175 240 287 305 270 297 310 303 269 277 281 275 185 178 156 180 164 149 148 149 141 159 154 154 175 174 161 149 154 166 168 162 152 127 150 129 157 138 146 141 149 149 180 126 141 139 181 155
150 135 312 297 293 289 282 283 307 316 264 270 270 208 152 147 175 236 165 153 149 142 149 176 146 150 165 172 181 158 201 163 145 140 181 132 136 147 136 145 180 141 144 146 184 145 163 144 174
156 133 186 244 283 290 276 287 287 295 324 259 259 259 262 149 181 170 161 149 154 135 156 154 148 153 151 150 141 152 140 189 128 157 86 153 111 153 140 148 161 160 139 145 96 187 183 172 169
138 153 181 180 310 294 284 281 274 285 297 337 257 257 264 160 161 153 178 164 152 170 149 156 162 167 154 173 172 146 153 144 151 190 141 151 150 152 154 165 190 143 181 163 180 144 159 165 153
191 144 195 138 273 304 295 290 283 279 299 304 314 292 264 220 187 170 180 171 166 146 148 169 146 146 174 157 172 180 166 169 170 174 163 156 165 165 182 162 155 172 148 183 179 179 151 149 163
478 188 173 164 319 314 302 294 277 276 297 292 302 300 289 219 197 220 160 161 163 167 174 186 160 169 161 165 179 139 161 176 176 178 175 165 202 167 165 165 167 201 178 198 165 178 174 204 208
148 229 146 156 177 176 319 298 274 282 285 286 304 285 287 240 194 199 190 185 190 190 174 175 187 158 157 180 184 176 187 171 171 174 167 179 166 164 173 173 179 183 182 190 195 209 182 171 155
142 146 142 175 126 185 327 318 236 289 279 287 297 297 290 230 210 197 192 183 188 182 213 186 166 180 167 175 175 170 166 176 174 175 183 172 173 171 174 184 195 192 190 204 170 167 189 180 181
220 194 180 142 159 155 236 282 307 259 271 298 299 289 294 245 222 195 194 182 192 194 180 197 192 184 183 190 192 197 191 188 190 192 184 181 182 187 179 177 179 176 184 170 189 180 204 208 173
202 185 143 152 183 155 162 188 131 308 282 287 300 296 282 296 246 224 203 201 200 204 191 196 201 199 201 187 194 165 168 169 170 167 170 176 193 181 185 187 180 188 175 186 176 199 168 181 191

GFSSGP_2pvu_pres_117.txt.gz
Presure
140 147 183 110 83 83 101 89 134 122 113 139 149 149 159 166 159 135 90 86 92 92 100 96 109 139 96 117 127 89 172 99 97 100 99 96 96 98 99 96 94 90 100 99 99 97 122 121 101
130 131 123 159 157 156 131 138 93 135 128 123 128 119 81 97 141 139 86 119 116 87 89 94 89 85 88 88 122 87 88 89 90 123 99 96 98 99 103 99 91 97 96 100 94 165 159 167 149
157 117 150 126 125 109 142 106 145 208 99 152 122 137 130 122 129 115 131 153 98 148 135 99 94 97 112 100 93 96 100 89 149 94 97 96 100 105 100 93 108 100 139 132 111 177 163 163 106
149 118 99 121 151 136 75 85 93 76 107 99 96 157 147 133 131 76 101 84 155 151 147 138 183 136 96 103 131 98 97 100 90 131 106 94 109 129 90 95 181 93 138 96 178 96 170 164 149
135 130 172 183 86 61 101 114 175 119 110 119 162 133 116 136 76 115 89 129 140 135 128 135 128 139 175 182 186 123 123 152 106 98 105 103 135 108 157 168 153 96 112 179 180 179 179 175 178
114 161 148 127 173 154 134 139 111 104 87 157 113 190 144 123 134 135 132 148 145 137 138 127 139 135 150 143 180 190 195 187 134 107 125 164 140 162 165 166 165 166 135 175 185 136 178 98 143
167 133 150 136 157 163 158 171 158 111 204 159 106 128 117 110 122 116 147 142 130 147 90 126 137 115 126 135 93 119 187 198 172 170 165 175 164 164 169 100 106 153 164 162 173 178 177 162 107
138 139 136 156 136 204 165 207 153 141 69 136 107 123 102 124 131 113 148 135 158 153 132 125 102 140 139 129 135 97 135 158 186 170 172 174 158 163 168 158 164 162 153 152 91 148 158 97 136
126 158 152 167 207 148 157 154 107 154 140 108 88 132 130 149 150 126 102 81 136 110 162 142 143 138 117 132 98 139 138 143 138 159 170 181 176 161 166 163 150 162 163 163 133 154 158 153 93
145 127 133 141 142 147 151 159 81 158 143 126 130 118 130 160 138 198 168 115 121 129 94 169 136 126 144 140 137 138 100 131 109 87 116 183 139 137 123 174 156 170 163 162 168 82 101 156 160
118 131 149 128 134 133 156 145 158 117 150 145 120 140 162 116 166 133 163 142 118 136 200 131 119 144 120 119 127 145 140 140 131 118 150 94 97 97 168 133 167 94 100 104 90 93 97 143 162
126 140 142 134 140 148 257 209 145 155 169 145 168 108 144 172 134 182 129 136 91 74 173 217 151 166 152 142 146 153 137 116 145 160 143 136 143 142 142 134 94 138 94 112 163 126 131 101 93
137 127 133 137 161 192 175 160 140 141 160 104 165 136 152 123 128 115 129 216 148 115 122 120 128 119 143 108 105 146 144 139 141 112 108 125 129 131 79 130 148 133 131 88 105 116 127 131 94
141 147 131 147 160 146 157 172 344 145 156 137 146 161 152 163 159 138 128 175 118 125 119 111 117 118 121 117 132 155 152 145 143 136 79 151 86 175 135 122 144 95 132 126 163 122 155 78 99
148 136 129 141 166 151 134 148 165 101 161 94 106 128 166 167 115 162 87 102 91 83 120 119 129 146 127 141 145 126 124 88 106 199 183 147 189 167 177 133 167 166 126 149 154 157 164 160 96
132 143 148 124 150 145 157 143 161 169 160 151 152 103 115 127 114 120 88 117 131 165 133 118 129 126 114 118 111 111 115 119 119 116 117 155 134 155 149 160 120 172 138 160 162 135 176 149 151
122 151 164 98 136 126 236 202 208 210 241 158 164 164 153 150 143 126 159 180 171 98 104 117 134 128 110 102 160 122 138 131 116 138 128 105 121 115 129 164 186 162 125 158 161 144 163 162 144
94 153 155 157 300 177 157 211 285 194 200 183 186 198 153 110 151 159 118 164 131 140 77 95 122 220 133 109 125 138 127 126 132 161 139 139 136 121 124 120 130 186 194 168 132 151 161 174 184
133 149 316 252 157 273 223 317 316 320 236 151 170 184 163 195 166 166 162 132 91 124 99 172 127 99 134 135 121 169 165 136 177 135 134 150 145 134 172 135 135 142 137 133 147 143 144 149 152
181 160 183 180 148 303 309 308 319 316 333 354 158 149 176 183 161 225 107 166 133 159 149 205 138 165 193 143 152 209 168 159 152 168 161 152 167 144 118 169 138 133 133 127 143 142 157 147 165
157 159 164 234 166 289 303 310 332 309 306 334 326 159 169 176 171 162 206 78 143 119 139 146 145 150 176 188 159 174 146 133 170 164 155 146 153 146 151 143 151 156 149 120 160 130 139 186 131
175 147 169 168 279 305 307 310 301 308 334 313 272 268 256 176 167 158 141 153 178 135 160 156 148 159 156 181 198 199 155 147 167 166 159 163 153 169 145 149 150 130 91 134 138 203 127 146 157
121 139 150 153 145 287 304 304 316 319 302 274 266 261 258 242 155 145 209 154 149 143 142 166 148 158 186 151 141 168 216 174 209 151 131 137 133 126 129 160 141 130 129 142 176 144 169 167 153
155 134 172 148 145 306 286 310 302 334 289 275 264 254 256 240 237 211 152 153 202 174 160 161 193 150 193 166 150 155 157 166 137 162 145 124 137 142 173 163 173 154 145 149 164 172 192 167 163
153 142 146 167 172 257 314 215 274 274 285 277 265 266 248 251 233 167 208 151 152 240 167 149 149 156 170 151 160 141 157 160 159 149 171 139 144 139 142 156 161 158 162 178 184 190 183 166 205
260 180 157 159 176 144 145 267 184 265 252 252 280 264 252 242 242 240 186 196 162 275 176 163 191 148 148 150 182 173 176 161 165 152 199 159 157 207 196 195 174 206 210 188 165 154 170 174 197
178 167 177 174 148 177 121 132 147 309 266 279 266 269 269 242 239 217 183 192 217 201 217 167 158 159 167 157 179 175 168 156 171 181 172 176 189 182 169 166 179 174 184 177 210 172 178 215 169
176 415 189 165 141 211 166 131 129 301 146 264 233 262 272 258 247 258 236 181 195 186 186 176 178 214 171 195 160 176 187 156 151 155 162 190 183 183 188 170 190 210 172 170 179 176 188 170 186
289 189 320 274 185 180 171 240 222 304 140 268 254 263 277 274 276 259 209 198 187 240 219 191 203 192 185 174 175 200 185 199 177 173 186 175 189 171 168 171 180 183 184 180 163 163 169 183 188
165 138 173 336 395 167 176 170 314 306 134 300 309 279 256 246 267 258 201 204 210 224 207 169 207 191 195 198 196 198 180 181 183 192 198 187 171 174 169 169 189 190 180 189 196 182 185 181 193